Date StartTime U_cm/s V_cm/s W_cm/s Ustd_cm/s Vstd_cm/s Wstd_cm/s Uvar_(cm/s)^2 Vvar_(cm/s)^2 Wvar_(cm/s)^2 KE_(m/s)^2 TurbulentKE_(m/s)^2 HorizWindSpeed_cm/s FrictionSpeec_cm/s DragCoef SpeedOfSound_m/s SonicTemperature_C Pressure_mb 
07/06/2013  00:00:00      -75.864      -43.013        1.870       31.065       41.972       21.833      965.021     1761.666      476.682        0.541        0.160       87.210       22.698        0.068      345.727       23.466      856.873
07/06/2013  00:01:00      -46.447      -25.809       17.073       42.928       30.994       21.629     1842.816      960.605      467.822        0.319        0.164       53.136       25.287        0.226      345.612       23.267      856.883
07/06/2013  00:02:00      -33.997      -28.456        1.984       26.215       26.217       18.530      687.209      687.320      343.359        0.184        0.086       44.335       12.530        0.080      345.709       23.435      856.900
07/06/2013  00:03:00       -7.511       -5.322        2.458        7.949        8.156        5.130       63.184       66.528       26.314        0.012        0.008        9.205        4.733        0.264      345.610       23.264      856.909
07/06/2013  00:04:00       54.540       38.125       13.001       33.099       22.845       18.287     1095.558      521.875      334.403        0.327        0.098       66.545       14.544        0.048      345.492       23.061      856.893
07/06/2013  00:05:00      131.453       49.138       12.744       33.607       40.047       32.351     1129.446     1603.743     1046.618        1.182        0.189      140.337       19.753        0.020      345.388       22.881      856.874
07/06/2013  00:06:00       23.877       25.197       32.439       27.116       23.997       20.929      735.282      575.865      438.003        0.200        0.087       34.713       12.756        0.135      345.330       22.784      856.890
07/06/2013  00:07:00       73.229       26.794        6.703       29.616       26.431       16.943      877.101      698.608      287.064        0.399        0.093       77.977       16.498        0.045      345.415       22.928      856.897
07/06/2013  00:08:00      150.059       62.642       10.981       27.742       28.511       21.180      769.611      812.876      448.587        1.430        0.102      162.609       13.844        0.007      345.641       23.316      856.873
07/06/2013  00:09:00       77.177       41.464       34.462       50.601       38.005       29.447     2560.469     1444.415      867.134        0.687        0.244       87.610       29.032        0.110      345.543       23.147      856.852
07/06/2013  00:10:00       17.351      -34.812       33.567       35.395       56.074       28.176     1252.794     3144.339      793.866        0.391        0.260       38.896       30.964        0.634      345.573       23.199      856.873
07/06/2013  00:11:00       54.249      -41.991        9.770       27.262       32.987       20.676      743.225     1088.166      427.509        0.353        0.113       68.602       17.516        0.065      345.552       23.165      856.897
07/06/2013  00:12:00       55.247      -40.313       14.679       30.050       30.460       17.665      902.999      927.807      312.054        0.352        0.107       68.391       19.200        0.079      345.592       23.232      856.889
07/06/2013  00:13:00       36.728      -89.276       -8.359       44.905       52.622       35.093     2016.467     2769.098     1231.503        0.770        0.301       96.536       33.225        0.118      345.682       23.386      856.867
07/06/2013  00:14:00       86.606     -123.626      -30.563       28.745       38.865       18.219      826.296     1510.510      331.939        1.319        0.133      150.943       13.719        0.008      345.696       23.410      856.864
07/06/2013  00:15:00       41.723     -101.025       -9.533       22.658       24.778       18.621      513.404      613.940      346.759        0.676        0.074      109.302       13.209        0.015      345.718       23.449      856.873
07/06/2013  00:16:00        0.270      -41.599      -17.374       35.942       26.416       13.780     1291.817      697.814      189.891        0.211        0.109       41.600        7.995        0.037      345.674       23.373      856.869
07/06/2013  00:17:00        7.668        8.490        8.320       16.127       24.555       12.134      260.084      602.955      147.233        0.060        0.051       11.440       12.183        1.134      345.625       23.288      856.864
07/06/2013  00:18:00        6.191       45.430      -10.122       12.537        7.762       13.334      157.174       60.247      177.808        0.130        0.020       45.849        7.298        0.025      345.557       23.172      856.856
07/06/2013  00:19:00      -33.484      105.575      -14.163       11.989       26.468       10.208      143.736      700.556      104.210        0.671        0.047      110.758       10.060        0.008      345.349       22.815      856.858
07/06/2013  00:20:00       -0.838      124.983      -14.931       24.683       20.987       14.180      609.257      440.438      201.081        0.855        0.063      124.986       10.801        0.007      345.372       22.856      856.862
07/06/2013  00:21:00       61.644       73.482       -6.570       41.692       28.869       21.599     1738.217      833.437      466.503        0.614        0.152       95.915       15.810        0.027      345.296       22.724      856.835
07/06/2013  00:22:00       52.495       14.824       -1.209       34.847       28.451       14.037     1214.284      809.452      197.029        0.260        0.111       54.548       12.143        0.050      345.374       22.858      856.828
07/06/2013  00:23:00      -11.697       -3.727       -5.409       10.645       16.586        8.167      113.314      275.100       66.705        0.032        0.023       12.277        7.872        0.411      345.417       22.933      856.854
07/06/2013  00:24:00       23.198      -13.957       -7.823       13.654       15.242       10.270      186.441      232.315      105.470        0.066        0.026       27.074        8.848        0.107      345.490       23.058      856.865
07/06/2013  00:25:00       28.085        4.957        2.500       10.536        5.904        7.107      111.007       34.860       50.507        0.051        0.010       28.519        5.512        0.037      345.468       23.020      856.866
07/06/2013  00:26:00       -7.149       -1.689       -0.459       39.000        9.380        9.546     1520.974       87.990       91.131        0.088        0.085        7.346       17.075        5.403      345.442       22.976      856.878
07/06/2013  00:27:00      -17.532       36.830       -4.569       36.529       14.644       10.440     1334.342      214.458      108.997        0.167        0.083       40.790       14.338        0.124      345.416       22.932      856.876
07/06/2013  00:28:00      100.242       91.454       -2.635       56.418       40.576       34.513     3182.980     1646.426     1191.162        1.222        0.301      135.692       25.889        0.036      345.461       23.008      856.831
07/06/2013  00:29:00      165.073       86.411       41.130      106.646       71.252       42.570    11373.429     5076.882     1812.210        2.733        0.913      186.322       38.854        0.043      345.493       23.058      856.767
07/06/2013  00:30:00       -6.428       17.794       13.931       53.624       47.863       35.481     2875.550     2290.821     1258.900        0.349        0.321       18.919       17.501        0.856      345.268       22.676      856.797
07/06/2013  00:31:00      -72.028     -103.906      -14.657       55.963       66.613       23.050     3131.810     4437.275      531.308        1.215        0.405      126.429       12.206        0.009      345.317       22.759      856.823
07/06/2013  00:32:00      -97.545       -9.206       11.347       35.297       48.257       27.831     1245.850     2328.783      774.546        0.704        0.217       97.979       15.922        0.026      345.578       23.208      856.826
07/06/2013  00:33:00      -86.507       27.494       -0.811       42.672       30.486       18.688     1820.917      929.392      349.245        0.567        0.155       90.771       11.933        0.017      345.295       22.723      856.843
07/06/2013  00:34:00     -105.548       29.920       -9.342       62.104       47.216       34.751     3856.857     2229.369     1207.624        0.971        0.365      109.707       32.439        0.087      345.249       22.645      856.848
07/06/2013  00:35:00     -121.329       54.740       -8.844       52.646       37.001       34.954     2771.606     1369.106     1221.807        1.158        0.268      133.106       27.429        0.042      345.289       22.713      856.856
07/06/2013  00:36:00      -81.776        1.483      -17.910       55.741       21.342       12.031     3107.061      455.469      144.741        0.536        0.185       81.790       15.591        0.036      345.326       22.775      856.851
07/06/2013  00:37:00      -17.401      -30.853        7.545       25.236       21.099       17.593      636.839      445.170      309.502        0.135        0.070       35.422       11.298        0.102      345.247       22.641      856.841
07/06/2013  00:38:00      -22.406       -9.140        6.159       17.171       11.726        9.098      294.842      137.503       82.766        0.057        0.026       24.198        8.970        0.137      345.306       22.741      856.827
07/06/2013  00:39:00       11.830       16.741        8.642       13.355        9.801        9.278      178.358       96.052       86.090        0.043        0.018       20.499        7.485        0.133      345.242       22.632      856.815
07/06/2013  00:40:00        3.117       15.163        2.971       16.379        6.659       11.162      268.258       44.336      124.584        0.034        0.022       15.480       10.938        0.499      345.380       22.870      856.809
07/06/2013  00:41:00      -17.964        2.972       -2.611        5.348        6.096        3.591       28.606       37.157       12.893        0.021        0.004       18.208        3.927        0.047      345.567       23.187      856.803
07/06/2013  00:42:00       11.122       21.570        0.281       17.393       25.451       11.325      302.505      647.752      128.253        0.083        0.054       24.269       11.986        0.244      345.341       22.802      856.796
07/06/2013  00:43:00       21.943       36.779       -2.646        9.756        6.955        9.323       95.189       48.374       86.924        0.104        0.012       42.828        4.268        0.010      345.158       22.490      856.802
07/06/2013  00:44:00        0.964       10.976       -5.407       17.625       11.248        4.791      310.655      126.507       22.954        0.031        0.023       11.018        7.973        0.524      345.225       22.604      856.822
07/06/2013  00:45:00      -46.262      -11.776       -7.079       21.653       11.209        7.385      468.855      125.647       54.543        0.149        0.032       47.738        4.611        0.009      345.292       22.718      856.843
07/06/2013  00:46:00      -65.743      -36.426       -7.358       30.183       18.176       13.415      911.010      330.365      179.960        0.356        0.071       75.160        4.386        0.003      345.094       22.379      856.854
07/06/2013  00:47:00      -10.256      -32.672        9.289       29.883       18.107       15.744      892.983      327.878      247.872        0.136        0.073       34.244       15.799        0.213      345.148       22.471      856.875
07/06/2013  00:48:00       13.700      -29.511        4.697       13.094       14.088        9.907      171.465      198.465       98.142        0.077        0.023       32.536        8.577        0.069      345.211       22.578      856.874
07/06/2013  00:49:00        0.078      -10.421       -4.110       12.952        9.022        5.612      167.746       81.399       31.499        0.020        0.014       10.421        5.267        0.255      345.244       22.636      856.878
07/06/2013  00:50:00      -57.108      -16.006       -5.226       19.491       16.202       13.572      379.887      262.518      184.211        0.219        0.041       59.309       11.603        0.038      345.334       22.791      856.886
07/06/2013  00:51:00     -112.305      -40.790      -10.582       26.805       18.149        9.916      718.493      329.393       98.328        0.777        0.057      119.483        5.435        0.002      345.038       22.283      856.915
07/06/2013  00:52:00      -31.943      -38.209        1.874       48.522       29.395       22.143     2354.341      864.052      490.294        0.310        0.185       49.802       20.144        0.164      344.979       22.182      856.919
07/06/2013  00:53:00        1.033      -11.001        4.084        9.789       10.833        9.401       95.821      117.361       88.375        0.022        0.015       11.049        5.285        0.229      345.021       22.254      856.899
07/06/2013  00:54:00        4.993       17.117        7.498        5.292       10.554        5.949       28.006      111.390       35.391        0.027        0.009       17.830        2.989        0.028      345.027       22.263      856.855
07/06/2013  00:55:00        9.625       25.907        6.854        7.577        7.166        7.679       57.407       51.354       58.962        0.049        0.008       27.637        4.940        0.032      345.225       22.604      856.806
07/06/2013  00:56:00       -3.214       44.141       -7.560       11.824       11.215       10.137      139.813      125.780      102.768        0.119        0.018       44.258        8.636        0.038      345.309       22.746      856.788
07/06/2013  00:57:00       14.795       66.568      -10.692       12.324       14.413        7.370      151.886      207.721       54.320        0.259        0.021       68.192        2.742        0.002      345.451       22.990      856.770
07/06/2013  00:58:00       12.130       39.838       -3.124       17.156       22.954        9.242      294.319      526.895       85.415        0.133        0.045       41.644       10.868        0.068      345.273       22.685      856.748
07/06/2013  00:59:00      -37.727       19.803       -8.046       27.939       25.444        8.047      780.563      647.398       64.749        0.169        0.075       42.608        9.745        0.052      345.189       22.541      856.750
07/06/2013  01:00:00      -38.346      -21.493        2.936       30.394       23.171       17.018      923.825      536.915      289.609        0.185        0.088       43.958       19.415        0.195      344.987       22.196      856.786
07/06/2013  01:01:00      -15.926      -37.294       20.536       49.501       36.409       24.900     2450.388     1325.633      619.998        0.323        0.220       40.552       17.894        0.195      344.820       21.910      856.826
07/06/2013  01:02:00      -70.569      -65.215       -4.663       52.825       32.762       24.504     2790.442     1073.367      600.435        0.686        0.223       96.088       19.083        0.039      344.890       22.029      856.847
07/06/2013  01:03:00        2.636      -57.372        9.562       23.895       24.004       20.009      570.987      576.194      400.359        0.247        0.077       57.433        9.348        0.026      344.960       22.148      856.846
07/06/2013  01:04:00      -34.383      -20.251        8.489       23.784       17.014       18.204      565.669      289.467      331.400        0.143        0.059       39.904       13.880        0.121      344.954       22.139      856.813
07/06/2013  01:05:00       12.813        7.673       20.703       18.714        9.719       12.833      350.200       94.459      164.674        0.063        0.030       14.935       12.002        0.646      344.755       21.799      856.771
07/06/2013  01:06:00      -10.819        1.653        4.853       21.176        8.130       12.652      448.443       66.102      160.075        0.041        0.034       10.944       15.461        1.996      344.785       21.849      856.742
07/06/2013  01:07:00      -39.542       -5.575       -6.575       13.140       14.094       10.755      172.667      198.648      115.670        0.106        0.024       39.933        4.718        0.014      344.899       22.046      856.751
07/06/2013  01:08:00      -70.658      -36.493       -8.731       24.824       21.977       15.171      616.235      482.986      230.169        0.386        0.066       79.526        8.397        0.011      344.828       21.924      856.770
07/06/2013  01:09:00      -32.500      -56.077        8.653       43.182       20.885       22.085     1864.721      436.195      487.742        0.353        0.139       64.814       22.891        0.125      344.854       21.968      856.788
07/06/2013  01:10:00      -38.182      -38.854        1.366       28.944       21.119       11.573      837.767      446.014      133.940        0.219        0.071       54.474        8.845        0.026      344.929       22.097      856.786
07/06/2013  01:11:00      -62.280      -31.932       -6.544       19.994       13.977        8.162      399.759      195.344       66.621        0.280        0.033       69.989        5.089        0.005      344.992       22.204      856.770
07/06/2013  01:12:00      -16.769      -29.217        6.287       26.313       14.825       17.523      692.377      219.784      307.047        0.120        0.061       33.687       11.182        0.110      344.851       21.964      856.771
07/06/2013  01:13:00      -23.456      -18.632        8.596       25.278       20.325       16.343      638.968      413.093      267.103        0.114        0.066       29.956       15.766        0.277      344.686       21.681      856.770
07/06/2013  01:14:00      -16.063      -36.788        1.780       31.104       20.173       14.633      967.461      406.962      214.111        0.160        0.079       40.142       14.318        0.127      344.850       21.962      856.762
07/06/2013  01:15:00      -45.890      -11.880        1.462       23.460       20.226       12.122      550.353      409.079      146.947        0.168        0.055       47.403       11.139        0.055      344.746       21.784      856.750
07/06/2013  01:16:00      -47.759        4.754        0.374       19.139       21.112       12.870      366.314      445.699      165.629        0.164        0.049       47.995       12.474        0.068      344.538       21.427      856.759
07/06/2013  01:17:00      -93.242      -12.244       -4.818       22.996       27.126       13.646      528.815      735.833      186.209        0.516        0.073       94.043       13.167        0.020      344.485       21.337      856.775
07/06/2013  01:18:00     -120.562       -9.894       -9.897       30.050       27.101       17.958      902.984      734.479      322.495        0.835        0.098      120.967       14.015        0.013      344.357       21.119      856.778
07/06/2013  01:19:00      -58.516      -44.867       -1.239       38.906       18.448       17.219     1513.672      340.330      296.481        0.379        0.108       73.737       15.385        0.044      344.397       21.187      856.775
07/06/2013  01:20:00      -87.657      -40.090        0.574       30.767       18.852       17.578      946.585      355.385      308.969        0.545        0.081       96.390       17.186        0.032      344.358       21.120      856.766
07/06/2013  01:21:00      -61.385      -25.417        2.046       16.631       14.129       10.627      276.602      199.641      112.923        0.250        0.029       66.438        6.164        0.009      344.362       21.126      856.758
07/06/2013  01:22:00      -72.688       -1.864       -7.938       11.327       11.672        8.860      128.294      136.244       78.507        0.285        0.017       72.711        6.143        0.007      344.440       21.261      856.738
07/06/2013  01:23:00      -63.951       20.495       -1.349       17.244       15.973       10.699      297.357      255.152      114.474        0.259        0.033       67.155        7.273        0.012      344.280       20.988      856.723
07/06/2013  01:24:00      -51.773       23.947       -8.633       25.208       17.945       15.452      635.445      322.030      238.762        0.226        0.060       57.042       13.225        0.054      344.280       20.987      856.717
07/06/2013  01:25:00      -62.238       17.318       -3.370       26.147       18.260       12.484      683.686      333.426      155.848        0.268        0.059       64.603        8.939        0.019      344.337       21.084      856.724
07/06/2013  01:26:00      -44.826      -24.459       -4.307       17.078       21.288       12.779      291.663      453.159      163.293        0.177        0.045       51.065        9.975        0.038      344.380       21.157      856.735
07/06/2013  01:27:00       -8.243      -31.977      -11.186       18.545       15.857       10.359      343.932      251.458      107.301        0.096        0.035       33.022        7.303        0.049      344.511       21.382      856.738
07/06/2013  01:28:00      -11.889      -66.769      -14.611       27.161       19.360       11.697      737.746      374.798      136.824        0.303        0.062       67.819        7.775        0.013      344.567       21.478      856.735
07/06/2013  01:29:00      -40.836      -41.414       -2.703       32.112       23.016       14.398     1031.208      529.749      207.294        0.258        0.088       58.161       17.046        0.086      344.542       21.435      856.743
07/06/2013  01:30:00      -35.761      -35.533       -3.263       18.104       13.810       13.516      327.740      190.727      182.671        0.163        0.035       50.413        7.785        0.024      344.679       21.666      856.739
07/06/2013  01:31:00      -10.852        5.719        3.250        9.307       12.120        5.799       86.614      146.897       33.626        0.021        0.013       12.267        4.162        0.115      344.605       21.543      856.717
07/06/2013  01:32:00      -22.809       16.154       -3.558        6.766        9.729        3.988       45.781       94.656       15.906        0.048        0.008       27.950        2.727        0.010      344.650       21.619      856.705
07/06/2013  01:33:00      -33.169      -14.812       -0.265       10.938       10.241        7.405      119.630      104.883       54.840        0.080        0.014       36.327        6.120        0.028      344.548       21.445      856.716
07/06/2013  01:34:00      -33.659      -12.918       -4.300       20.505       12.984        8.493      420.474      168.590       72.136        0.099        0.033       36.053        8.993        0.062      344.316       21.048      856.726
07/06/2013  01:35:00      -10.398      -33.169        0.218       22.673       14.196        8.855      514.086      201.520       78.418        0.100        0.040       34.760        6.324        0.033      344.383       21.163      856.726
07/06/2013  01:36:00        3.482      -29.943       -1.268       10.951       10.312        8.341      119.930      106.332       69.577        0.060        0.015       30.144        6.886        0.052      344.462       21.297      856.739
07/06/2013  01:37:00       17.080      -28.806       -4.100        9.751        8.932        6.616       95.073       79.774       43.769        0.068        0.011       33.489        3.228        0.009      344.482       21.331      856.758
07/06/2013  01:38:00       43.604      -41.220       -8.244       21.508       31.450       18.567      462.579      989.093      344.741        0.273        0.090       60.003       18.960        0.100      344.298       21.016      856.762
07/06/2013  01:39:00       40.385      -32.441       -5.297       36.729       41.099       27.682     1349.000     1689.123      766.282        0.326        0.190       51.801       29.618        0.327      344.210       20.866      856.757
07/06/2013  01:40:00      -21.166       17.803       -0.514       15.672       15.510       11.763      245.617      240.569      138.357        0.069        0.031       27.657       11.268        0.166      344.369       21.138      856.754
07/06/2013  01:41:00      -48.212       43.050        2.849       17.516       13.903       13.850      306.800      193.296      191.810        0.244        0.035       64.635       10.107        0.024      344.524       21.402      856.735
07/06/2013  01:42:00      -93.231        5.646       -8.894       26.910       20.308       12.284      724.171      412.408      150.885        0.504        0.064       93.402       13.921        0.022      344.525       21.405      856.716
07/06/2013  01:43:00      -41.418       21.460        3.442       21.237       17.750       11.556      451.017      315.064      133.541        0.154        0.045       46.647        6.649        0.020      344.177       20.811      856.700
07/06/2013  01:44:00      -57.458       15.048       -0.902       18.279       14.380        8.475      334.121      206.791       71.827        0.207        0.031       59.396        5.715        0.009      344.055       20.604      856.691
07/06/2013  01:45:00      -57.468      -33.368        1.774       23.936       17.081       12.425      572.940      291.774      154.372        0.272        0.051       66.453       11.822        0.032      344.041       20.579      856.685
07/06/2013  01:46:00      -65.046      -34.094      -12.041       17.628       13.419       14.301      310.743      180.068      204.524        0.312        0.035       73.440        4.296        0.003      343.982       20.477      856.682
07/06/2013  01:47:00      -53.421      -26.886       -1.378       46.084       19.783       15.900     2123.730      391.365      252.809        0.317        0.138       59.805       16.669        0.078      343.924       20.378      856.682
07/06/2013  01:48:00      -51.265      -26.542        6.168       35.415       16.944       20.667     1254.206      287.087      427.122        0.267        0.098       57.729       22.077        0.146      343.924       20.380      856.695
07/06/2013  01:49:00      -37.670      -30.385       -6.353       23.947       16.055       14.011      573.440      257.761      196.303        0.170        0.051       48.397        8.629        0.032      343.924       20.378      856.696
07/06/2013  01:50:00       -5.060       26.814       -0.257       16.305       25.631       13.575      265.858      656.944      184.293        0.093        0.055       27.287       12.630        0.214      343.869       20.285      856.685
07/06/2013  01:51:00      -13.063      101.474       -4.652       15.591       22.857       13.001      243.068      522.440      169.032        0.571        0.047      102.311        4.446        0.002      344.046       20.586      856.678
07/06/2013  01:52:00        4.017      103.071      -13.488       12.991       14.776        8.741      168.755      218.343       76.409        0.564        0.023      103.149        6.497        0.004      344.267       20.964      856.675
07/06/2013  01:53:00      -12.825      126.462      -13.509       17.479       23.102       12.908      305.502      533.709      166.614        0.867        0.050      127.110       11.070        0.008      344.207       20.863      856.677
07/06/2013  01:54:00       -1.197      110.101      -21.532       17.611       21.624       11.793      310.164      467.584      139.064        0.675        0.046      110.108       11.347        0.011      344.119       20.712      856.696
07/06/2013  01:55:00      -38.357       46.786      -12.862       19.467       46.460       11.420      378.952     2158.498      130.407        0.325        0.133       60.500       11.448        0.036      344.080       20.645      856.722
07/06/2013  01:56:00      -55.071      -34.408       -8.486       37.795       26.608       17.030     1428.432      707.998      290.008        0.336        0.121       64.937        4.238        0.004      343.978       20.472      856.745
07/06/2013  01:57:00      -78.152      -65.027        1.400       47.618       40.163       29.306     2267.516     1613.055      858.855        0.754        0.237      101.667       28.263        0.077      343.797       20.161      856.779
07/06/2013  01:58:00      -72.361      -46.023        5.004       46.059       39.229       24.072     2121.418     1538.900      579.474        0.581        0.212       85.757       21.574        0.063      343.654       19.917      856.795
07/06/2013  01:59:00      -73.051      -41.652        3.553       34.495       24.304       18.103     1189.882      590.690      327.719        0.460        0.105       84.091       13.968        0.028      343.649       19.909      856.803
07/06/2013  02:00:00      -53.534       13.223      -10.034       15.936       24.229        9.659      253.949      587.066       93.297        0.204        0.047       55.143        5.313        0.009      343.607       19.839      856.801
07/06/2013  02:01:00      -51.033       37.663      -14.909        6.992        8.313        5.861       48.895       69.105       34.347        0.220        0.008       63.426        3.718        0.003      343.664       19.936      856.790
07/06/2013  02:02:00      -41.697       24.402       -7.467        9.758        9.271        4.964       95.222       85.953       24.641        0.130        0.010       48.313        3.457        0.005      343.853       20.260      856.790
07/06/2013  02:03:00      -27.478       57.211       -9.822       12.510       17.402        8.312      156.510      302.844       69.088        0.233        0.026       63.467        7.342        0.013      343.819       20.200      856.798
07/06/2013  02:04:00      -10.402       34.693       -6.997       15.463       12.706        7.271      239.096      161.432       52.871        0.091        0.023       36.219        3.315        0.008      343.964       20.447      856.809
07/06/2013  02:05:00       -6.158       -2.952       -3.347        8.426       14.423        5.754       70.993      208.031       33.108        0.018        0.016        6.829        4.906        0.516      344.021       20.545      856.821
07/06/2013  02:06:00       -9.940      -31.943       -4.091       16.415       15.531       12.144      269.457      241.222      147.473        0.090        0.033       33.454        7.915        0.056      343.894       20.328      856.837
07/06/2013  02:07:00      -32.307      -17.357       -4.028       14.910       11.647        8.367      222.316      135.653       70.000        0.089        0.021       36.674        7.227        0.039      343.815       20.193      856.842
07/06/2013  02:08:00      -46.224      -15.197       -0.161        9.699        9.770        7.812       94.068       95.459       61.027        0.131        0.013       48.658        3.769        0.006      343.782       20.136      856.858
07/06/2013  02:09:00      -71.567      -24.412      -11.954       11.693       11.291        7.581      136.729      127.478       57.468        0.309        0.016       75.616        4.041        0.003      343.624       19.865      856.880
07/06/2013  02:10:00      -57.344      -39.965       -7.255       20.898       16.080       11.439      436.734      258.581      130.855        0.288        0.041       69.896        7.414        0.011      343.620       19.858      856.884
07/06/2013  02:11:00      -48.408      -33.671       -5.082       16.681       13.542       11.863      278.264      183.392      140.732        0.205        0.030       58.967        8.298        0.020      343.603       19.829      856.896
07/06/2013  02:12:00      -49.734      -31.419       -6.440       11.161        6.366        6.063      124.577       40.529       36.762        0.185        0.010       58.827        2.666        0.002      343.762       20.103      856.887
07/06/2013  02:13:00       -3.730       -4.663       -1.737       12.037        9.774        4.703      144.879       95.532       22.121        0.015        0.013        5.971        5.774        0.935      343.765       20.108      856.868
07/06/2013  02:14:00       15.873       -1.098        0.079       17.581        5.194        9.219      309.094       26.982       84.987        0.034        0.021       15.911        9.990        0.394      344.246       20.928      856.866
07/06/2013  02:15:00       12.721      -19.111       -2.859       10.498       17.018       10.868      110.217      289.629      118.122        0.053        0.026       22.958       10.673        0.216      344.064       20.618      856.869
07/06/2013  02:16:00       19.380      -38.442        0.042       12.752       12.697       13.493      162.623      161.210      182.061        0.118        0.025       43.051        8.750        0.041      343.973       20.461      856.874
07/06/2013  02:17:00      -10.056       -9.476        6.651       19.003       20.164       12.607      361.126      406.572      158.949        0.058        0.046       13.817        7.428        0.289      343.849       20.251      856.870
07/06/2013  02:18:00      -17.275       -8.190       -1.853       31.284        8.444       10.038      978.668       71.305      100.765        0.076        0.058       19.118       10.728        0.315      343.927       20.384      856.854
07/06/2013  02:19:00       -1.569       -1.565        4.597        5.364        4.750        4.706       28.777       22.561       22.147        0.005        0.004        2.216        3.630        2.684      343.837       20.230      856.831
07/06/2013  02:20:00      -27.086       -6.576       -3.645       22.009        7.088        5.075      484.398       50.245       25.755        0.068        0.028       27.873        5.110        0.034      343.809       20.184      856.828
07/06/2013  02:21:00      -82.126      -21.253      -10.418       11.215       16.490        8.602      125.772      271.936       73.990        0.389        0.024       84.831        4.016        0.002      343.787       20.145      856.822
07/06/2013  02:22:00      -87.048      -37.778       -3.679       30.696       21.268       17.661      942.221      452.324      311.916        0.536        0.085       94.893       10.430        0.012      343.679       19.960      856.813
07/06/2013  02:23:00     -111.804      -53.840       -3.985       26.696       20.860       20.076      712.698      435.157      403.049        0.848        0.078      124.093       16.884        0.019      343.389       19.466      856.804
07/06/2013  02:24:00     -103.966       -5.873       -7.604       34.961       26.339       20.379     1222.276      693.718      415.284        0.662        0.117      104.131       18.971        0.033      343.224       19.184      856.806
07/06/2013  02:25:00      -82.910       -0.107       -2.664       29.507       20.998       16.113      870.687      440.902      259.622        0.423        0.079       82.910       14.206        0.029      343.153       19.064      856.810
07/06/2013  02:26:00      -43.179      -11.750       -5.958       28.202       24.721       15.526      795.348      611.142      241.059        0.184        0.082       44.750       13.642        0.093      343.086       18.950      856.816
07/06/2013  02:27:00      -68.779      -13.115       -1.474       32.175       20.620       20.918     1035.245      425.183      437.573        0.340        0.095       70.018       17.790        0.065      343.221       19.181      856.827
07/06/2013  02:28:00      -80.222       -5.604       -6.360       42.879       22.095       16.289     1838.651      488.175      265.344        0.455        0.130       80.418       20.630        0.066      343.126       19.017      856.837
07/06/2013  02:29:00      -90.257      -30.932       -7.091       23.715       24.029       13.871      562.398      577.416      192.398        0.524        0.067       95.410       13.777        0.021      343.192       19.130      856.833
07/06/2013  02:30:00      -87.089      -59.393        2.252       47.928       28.200       24.578     2297.079      795.246      604.081        0.741        0.185      105.413       20.864        0.039      343.166       19.087      856.815
07/06/2013  02:31:00     -148.426      -49.681       -7.204       27.936       14.514       11.777      780.429      210.670      138.690        1.284        0.056      156.520       10.752        0.005      343.083       18.945      856.805
07/06/2013  02:32:00     -108.374      -62.851       -1.029       39.371       27.054       17.480     1550.065      731.917      305.553        0.914        0.129      125.281       12.293        0.010      343.197       19.140      856.807
07/06/2013  02:33:00     -106.169      -57.196        0.509       38.149       27.020       22.471     1455.314      730.106      504.960        0.862        0.135      120.595       21.390        0.031      343.184       19.118      856.799
07/06/2013  02:34:00     -117.133      -48.030      -10.180       14.841       17.199       14.250      220.261      295.817      203.061        0.842        0.036      126.598        7.525        0.004      343.228       19.193      856.782
07/06/2013  02:35:00     -116.102      -64.567       -5.446       24.429       18.193       16.078      596.795      330.977      258.514        0.943        0.059      132.848       12.910        0.009      343.296       19.307      856.798
07/06/2013  02:36:00     -101.364      -66.884       -1.776       39.834       25.800       20.746     1586.781      665.662      430.417        0.872        0.134      121.442       19.539        0.026      343.230       19.197      856.825
07/06/2013  02:37:00     -114.134      -51.200       -1.509       49.158       35.488       24.875     2416.485     1259.413      618.746        0.997        0.215      125.092       24.723        0.039      343.182       19.113      856.838
07/06/2013  02:38:00     -104.375      -43.254        3.836       44.294       39.557       24.100     1961.996     1564.769      580.829        0.844        0.205      112.982       23.215        0.042      343.152       19.063      856.845
07/06/2013  02:39:00     -116.120       22.197       -6.420       40.477       31.786       19.749     1638.391     1010.353      390.021        0.853        0.152      118.222       17.845        0.023      343.022       18.841      856.833
07/06/2013  02:40:00      -74.654       74.519       -9.035       36.260       50.221       22.193     1314.801     2522.159      492.508        0.777        0.216      105.481       22.520        0.046      343.005       18.812      856.799
07/06/2013  02:41:00     -114.882       99.224      -21.407       26.948       38.111       18.656      726.207     1452.424      348.064        1.301        0.126      151.800       16.090        0.011      343.346       19.391      856.797
07/06/2013  02:42:00      -68.843       -4.633      -10.736       25.697       23.049       18.243      660.361      531.242      332.818        0.320        0.076       68.999       14.575        0.045      343.236       19.205      856.782
07/06/2013  02:43:00      -75.528       -1.437       -6.017       37.547       31.510       20.752     1409.784      992.884      430.630        0.429        0.142       75.542       17.231        0.052      343.168       19.091      856.777
07/06/2013  02:44:00      -49.076      -14.321       -7.608       33.593       27.567       16.915     1128.511      759.948      286.119        0.242        0.109       51.123       12.393        0.059      343.148       19.056      856.790
07/06/2013  02:45:00      -53.576      -41.389       -1.265       55.153       40.637       29.179     3041.905     1651.343      851.396        0.506        0.277       67.701       32.823        0.235      343.087       18.951      856.800
07/06/2013  02:46:00     -117.863      -44.132       -1.876       48.906       36.252       27.375     2391.833     1314.179      749.372        1.015        0.223      125.854       12.476        0.010      342.870       18.582      856.807
07/06/2013  02:47:00      -46.780       22.261       -3.518       35.618       44.354       23.263     1268.675     1967.257      541.149        0.324        0.189       51.807       25.397        0.240      342.849       18.546      856.794
07/06/2013  02:48:00      -39.598       32.980       -8.440       25.382       29.154       12.520      644.238      849.945      156.754        0.219        0.083       51.534       14.864        0.083      342.831       18.515      856.780
07/06/2013  02:49:00      -36.136       19.370      -13.998       39.913       41.819       10.709     1593.012     1748.814      114.688        0.267        0.173       41.000        9.503        0.054      342.951       18.720      856.803
07/06/2013  02:50:00     -140.837      -63.530      -14.788       35.881       28.883       26.455     1287.411      834.248      699.882        1.346        0.141      154.503       18.424        0.014      342.749       18.375      856.833
07/06/2013  02:51:00     -133.189      -30.574      -11.743       42.486       29.245       18.779     1805.025      855.275      352.669        1.091        0.151      136.654       14.596        0.011      342.748       18.373      856.870
07/06/2013  02:52:00      -69.743      -31.031      -10.708       35.925       20.117       15.903     1290.612      404.707      252.919        0.394        0.097       76.335        9.157        0.014      342.803       18.467      856.896
07/06/2013  02:53:00      -25.696      -26.858       -5.241       33.457       21.874       17.054     1119.401      478.491      290.837        0.165        0.094       37.170       15.097        0.165      342.862       18.568      856.865
07/06/2013  02:54:00      -12.865        8.106       -5.164       10.115       10.294        9.296      102.320      105.965       86.420        0.028        0.015       15.206        6.608        0.189      342.855       18.554      856.827
07/06/2013  02:55:00       -6.526       50.284       -9.476       14.440       17.699        7.274      208.509      313.265       52.904        0.162        0.029       50.706        5.052        0.010      343.473       19.610      856.785
07/06/2013  02:56:00        0.371       35.567        6.152       10.574       25.762       11.242      111.807      663.700      126.374        0.110        0.045       35.568       12.472        0.123      343.334       19.373      856.777
07/06/2013  02:57:00       -7.071      -25.057        3.114       13.455       18.232       13.692      181.039      332.418      187.462        0.069        0.035       26.036       10.903        0.175      343.256       19.239      856.812
07/06/2013  02:58:00      -25.854      -25.106       10.926       29.792       24.055       20.159      887.563      578.652      406.371        0.164        0.094       36.038       18.398        0.261      342.972       18.755      856.851
07/06/2013  02:59:00      -65.707      -46.703        5.658       59.227       35.548       24.930     3507.825     1263.666      621.503        0.596        0.270       80.614       27.746        0.118      342.857       18.562      856.899
07/06/2013  03:00:00     -121.947      -65.230       -1.278       51.494       33.430       30.867     2651.629     1117.533      952.761        1.192        0.236      138.296       28.191        0.042      342.953       18.722      856.900
07/06/2013  03:01:00     -101.596      -46.972       -3.029       29.571       34.340       21.285      874.468     1179.214      453.060        0.752        0.125      111.928       15.977        0.020      343.054       18.896      856.873
07/06/2013  03:02:00     -113.618      -42.996       -6.395       30.066       22.445       14.770      903.992      503.762      218.142        0.821        0.081      121.481       14.752        0.015      342.994       18.793      856.851
07/06/2013  03:03:00      -81.353      -40.705       -6.574       30.595       27.647       15.742      936.076      764.339      247.818        0.513        0.097       90.968       13.910        0.023      342.947       18.713      856.851
07/06/2013  03:04:00      -82.272      -17.033       -6.759       19.589       24.378       16.057      383.737      594.280      257.816        0.417        0.062       84.017       11.911        0.020      342.819       18.495      856.875
07/06/2013  03:05:00      -78.214      -26.434       -5.535       17.490       16.228        9.655      305.896      263.342       93.226        0.375        0.033       82.560        6.660        0.007      342.847       18.544      856.894
07/06/2013  03:06:00      -72.094      -24.480      -11.703       15.751       11.755        9.397      248.105      138.190       88.308        0.320        0.024       76.137        7.560        0.010      342.931       18.687      856.880
07/06/2013  03:07:00      -68.270       -7.141      -10.187       11.671       11.860        8.330      136.203      140.668       69.394        0.258        0.017       68.642        4.041        0.003      342.901       18.635      856.850
07/06/2013  03:08:00      -84.103       -4.998      -12.695       26.053       11.633       11.069      678.776      135.327      122.525        0.410        0.047       84.251        9.717        0.013      342.813       18.485      856.814
07/06/2013  03:09:00     -129.230      -27.246      -13.040       23.713       28.012       16.212      562.283      784.647      262.833        0.961        0.080      132.071       11.337        0.007      342.664       18.232      856.800
07/06/2013  03:10:00     -131.300      -67.805       -2.357       50.092       23.701       26.722     2509.216      561.720      714.091        1.281        0.189      147.774       29.520        0.040      342.591       18.109      856.828
07/06/2013  03:11:00     -120.956      -85.577       -3.120       60.477       50.987       30.546     3657.466     2599.677      933.053        1.458        0.360      148.168       29.720        0.040      342.656       18.217      856.875
07/06/2013  03:12:00     -100.655     -107.471        0.598       57.079       37.871       29.960     3257.971     1434.207      897.602        1.363        0.279      147.247       29.017        0.039      342.794       18.453      856.908
07/06/2013  03:13:00      -89.630      -71.495       -2.215       40.758       26.199       25.109     1661.206      686.381      630.479        0.806        0.149      114.652       20.579        0.032      342.826       18.509      856.917
07/06/2013  03:14:00      -52.739      -31.155        5.186       36.664       39.528       17.852     1344.226     1562.465      318.692        0.350        0.161       61.253       17.358        0.080      342.888       18.614      856.909
07/06/2013  03:15:00      -79.475       -6.657      -11.402       26.063       11.981       10.479      679.291      143.552      109.815        0.371        0.047       79.753        4.795        0.004      342.950       18.717      856.870
07/06/2013  03:16:00      -68.162        2.540      -12.171       13.780       10.238        8.617      189.892      104.826       74.249        0.258        0.018       68.209        8.628        0.016      342.947       18.713      856.840
07/06/2013  03:17:00     -100.515       -8.549       -8.316       15.459       13.086        9.873      238.974      171.243       97.485        0.538        0.025      100.878        9.231        0.008      342.928       18.681      856.813
07/06/2013  03:18:00     -135.381      -53.636      -12.047       29.841       34.067       17.130      890.514     1160.550      293.420        1.185        0.117      145.619       12.809        0.008      342.793       18.451      856.813
07/06/2013  03:19:00     -130.465      -89.960       -3.359       57.849       43.436       29.514     3346.462     1886.664      871.089        1.561        0.305      158.474       28.287        0.032      342.668       18.238      856.847
07/06/2013  03:20:00     -148.614     -114.129        8.972       61.533       55.503       35.033     3786.261     3080.582     1227.298        2.164        0.405      187.381       32.603        0.030      342.632       18.176      856.884
07/06/2013  03:21:00     -132.083      -94.262       -1.114       65.885       43.062       26.039     4340.868     1854.351      678.005        1.660        0.344      162.269       23.052        0.020      342.805       18.470      856.903
07/06/2013  03:22:00      -99.789      -47.329        1.341       56.659       38.354       17.030     3210.288     1471.030      290.006        0.858        0.249      110.444       21.216        0.037      342.844       18.537      856.904
07/06/2013  03:23:00      -45.458      -21.570        5.507       37.697       18.613       17.572     1421.042      346.460      308.764        0.232        0.104       50.316       22.388        0.198      342.800       18.462      856.892
07/06/2013  03:24:00      -45.862      -36.141        3.153       27.206       22.080       17.077      740.146      487.515      291.614        0.247        0.076       58.391       15.299        0.069      342.881       18.600      856.869
07/06/2013  03:25:00      -86.012      -12.960       -6.736       19.323       16.073       14.407      373.389      258.330      207.552        0.423        0.042       86.983       10.580        0.015      342.792       18.449      856.871
07/06/2013  03:26:00     -109.644      -27.937       -5.150       19.931       19.393       15.508      397.237      376.072      240.512        0.692        0.051      113.147       11.314        0.010      342.847       18.544      856.873
07/06/2013  03:27:00     -141.783      -61.496      -14.881       17.228       18.699       14.883      296.814      349.643      221.503        1.249        0.043      154.545        4.390        0.001      342.775       18.422      856.882
07/06/2013  03:28:00      -85.570      -60.748        2.035       52.149       42.162       25.228     2719.502     1777.602      636.457        0.807        0.257      104.941       28.155        0.072      342.672       18.245      856.902
07/06/2013  03:29:00     -104.620      -44.228      -23.747       31.015       33.684       23.453      961.914     1134.618      550.041        0.806        0.132      113.585       18.825        0.027      342.670       18.243      856.889
07/06/2013  03:30:00      -70.252      -34.958       -3.297       50.521       28.319       24.491     2552.394      801.954      599.833        0.506        0.198       78.470       23.312        0.088      342.683       18.264      856.871
07/06/2013  03:31:00      -21.270       -4.940        1.661       18.878       20.868       21.060      356.395      435.477      443.544        0.086        0.062       21.836       17.006        0.607      342.603       18.128      856.853
07/06/2013  03:32:00      -24.840      -17.113       -4.427       28.656       18.961       19.075      821.170      359.522      363.870        0.124        0.077       30.164       12.132        0.162      342.668       18.240      856.853
07/06/2013  03:33:00      -46.304      -26.257       -2.840       36.585       24.413       18.513     1338.475      595.994      342.721        0.256        0.114       53.231       10.810        0.041      342.492       17.940      856.871
07/06/2013  03:34:00     -123.186      -45.566       -6.628       24.487       26.822       17.699      599.593      719.408      313.260        0.946        0.082      131.344       11.591        0.008      342.472       17.906      856.897
07/06/2013  03:35:00     -114.510      -53.352      -13.859       22.780       28.419       15.941      518.910      807.658      254.116        0.887        0.079      126.329       13.690        0.012      342.478       17.917      856.908
07/06/2013  03:36:00     -118.261      -55.768      -14.727       15.781       20.884       14.059      249.027      436.125      197.658        0.910        0.044      130.750        7.544        0.003      342.425       17.828      856.904
07/06/2013  03:37:00     -149.545      -57.430      -16.147       28.248       30.957       16.237      797.926      958.340      263.641        1.397        0.101      160.193       10.428        0.004      342.381       17.750      856.922
07/06/2013  03:38:00     -145.628      -55.975      -13.164       27.012       31.870       21.278      729.649     1015.688      452.735        1.336        0.110      156.015       18.313        0.014      342.422       17.820      856.936
07/06/2013  03:39:00      -94.426      -20.678        2.513       37.047       27.945       19.602     1372.515      780.947      384.242        0.594        0.127       96.663       17.542        0.033      342.430       17.834      856.942
07/06/2013  03:40:00     -111.604      -26.646       -4.173       32.844       27.979       19.170     1078.755      782.808      367.492        0.771        0.111      114.740       13.449        0.014      342.411       17.802      856.927
07/06/2013  03:41:00      -85.932      -21.963       -4.237       31.781       27.426       19.675     1010.054      752.212      387.106        0.502        0.107       88.694       19.217        0.047      342.325       17.655      856.921
07/06/2013  03:42:00      -84.661      -36.045      -13.531       19.936       15.296       14.970      397.446      233.970      224.092        0.475        0.043       92.015        7.131        0.006      342.483       17.924      856.908
07/06/2013  03:43:00      -44.022      -36.048       -0.874       45.331       25.784       23.558     2054.885      664.809      554.960        0.326        0.164       56.898       27.516        0.234      342.395       17.775      856.882
07/06/2013  03:44:00       -1.085      -22.547        9.118       22.930       12.871       17.396      525.783      165.659      302.621        0.079        0.050       22.573       16.694        0.547      342.434       17.840      856.863
07/06/2013  03:45:00      -10.685      -19.296        7.253       20.228       12.441       13.626      409.186      154.785      185.678        0.064        0.037       22.057       10.139        0.211      342.389       17.764      856.854
07/06/2013  03:46:00      -57.636      -41.402       -9.698       28.236       22.498       16.818      797.252      506.180      282.845        0.336        0.079       70.965       12.841        0.033      342.451       17.871      856.853
07/06/2013  03:47:00      -43.504       -8.154      -10.040       23.606       18.542       11.088      557.231      343.815      122.947        0.154        0.051       44.261        4.876        0.012      342.408       17.797      856.861
07/06/2013  03:48:00      -80.364      -24.276       -6.501       44.114       20.340       16.451     1946.057      413.717      270.641        0.486        0.132       83.951       13.454        0.026      342.349       17.696      856.871
07/06/2013  03:49:00      -80.003      -44.701       -9.881       40.782       25.863       20.150     1663.133      668.880      406.036        0.562        0.137       91.645        9.508        0.011      342.299       17.610      856.886
07/06/2013  03:50:00     -103.643      -69.389       -5.320       50.500       32.705       25.015     2550.217     1069.621      625.756        0.991        0.212      124.727       24.289        0.038      342.134       17.332      856.884
07/06/2013  03:51:00     -126.022      -38.825      -13.886       18.285       22.704       17.228      334.324      515.466      296.812        0.936        0.057      131.867       13.074        0.010      342.106       17.286      856.885
07/06/2013  03:52:00     -105.428       -4.185      -18.178       26.380       17.172       17.631      695.897      294.871      310.844        0.638        0.065      105.511       13.266        0.016      342.183       17.416      856.879
07/06/2013  03:53:00     -101.618      -18.832      -12.847       25.311       17.300       17.223      640.641      299.302      296.638        0.604        0.062      103.349       17.148        0.028      342.217       17.472      856.877
07/06/2013  03:54:00     -109.030      -16.163      -16.341       17.347       13.281       12.521      300.932      176.394      156.776        0.652        0.032      110.222        7.323        0.004      342.377       17.744      856.878
07/06/2013  03:55:00     -143.541      -31.735      -14.366       26.688       20.373       15.291      712.259      415.071      233.819        1.159        0.068      147.007       13.139        0.008      342.303       17.617      856.886
07/06/2013  03:56:00     -144.969      -55.569      -18.829       32.666       28.378       18.453     1067.083      805.326      340.510        1.334        0.111      155.255       12.373        0.006      342.302       17.616      856.902
07/06/2013  03:57:00     -126.164      -67.952      -16.796       66.044       42.543       25.346     4361.796     1809.898      642.419        1.381        0.341      143.299       23.900        0.028      342.216       17.470      856.908
07/06/2013  03:58:00     -111.564      -64.812        4.486       63.020       35.828       29.152     3971.561     1283.649      849.829        1.138        0.305      129.024       31.957        0.061      342.258       17.541      856.893
07/06/2013  03:59:00      -85.996      -22.616       -3.003       25.783       23.173       16.198      664.783      536.984      262.382        0.469        0.073       88.920       15.634        0.031      342.268       17.558      856.879
07/06/2013  04:00:00      -58.605       -5.728        0.469       23.750       22.707       13.628      564.082      515.591      185.711        0.237        0.063       58.884        9.588        0.027      342.227       17.490      856.865
07/06/2013  04:01:00      -81.020      -43.127      -11.560       19.383       21.900       17.110      375.703      479.606      292.745        0.485        0.057       91.783       10.440        0.013      342.383       17.752      856.861
07/06/2013  04:02:00      -94.233      -71.582      -15.924       28.425       20.621       11.691      807.959      425.209      136.674        0.781        0.068      118.338        8.673        0.005      342.260       17.546      856.872
07/06/2013  04:03:00     -131.010      -54.128      -12.019       29.690       40.611       19.018      881.513     1649.218      361.701        1.156        0.145      141.752       12.580        0.008      342.326       17.657      856.888
07/06/2013  04:04:00     -183.245      -70.641      -13.157       44.704       27.747       20.930     1998.408      769.903      438.061        2.097        0.160      196.390       17.540        0.008      342.165       17.382      856.892
07/06/2013  04:05:00     -175.651      -54.569       -7.534       55.688       39.789       30.631     3101.114     1583.197      938.235        1.975        0.281      183.932       32.657        0.032      342.122       17.308      856.901
07/06/2013  04:06:00     -118.272      -52.152        1.748       43.558       46.747       35.097     1897.319     2185.249     1231.827        1.101        0.266      129.259       28.356        0.048      342.136       17.334      856.892
07/06/2013  04:07:00     -128.445      -33.498       -3.967       43.369       39.292       24.536     1880.857     1543.880      602.018        1.083        0.201      132.741       18.653        0.020      342.082       17.243      856.882
07/06/2013  04:08:00     -172.398      -41.271       -7.261       56.704       33.300       26.188     3215.379     1108.904      685.813        1.824        0.251      177.269       27.373        0.024      342.110       17.289      856.886
07/06/2013  04:09:00     -161.695      -25.210      -12.450       49.757       48.250       25.543     2475.805     2328.036      652.451        1.619        0.273      163.648       23.683        0.021      342.146       17.351      856.899
07/06/2013  04:10:00     -129.970      -41.951       -7.398       34.103       21.441       19.519     1163.031      459.696      380.996        1.035        0.100      136.573       18.655        0.019      342.189       17.425      856.894
07/06/2013  04:11:00     -120.651      -40.855      -10.214       23.832       21.279       14.882      567.982      452.776      221.461        0.879        0.062      127.380       13.056        0.011      342.239       17.509      856.889
07/06/2013  04:12:00     -124.055      -24.545      -10.786       33.638       26.075       18.982     1131.518      679.902      360.313        0.914        0.109      126.460       17.416        0.019      342.231       17.496      856.887
07/06/2013  04:13:00     -113.985      -16.867       -3.330       47.982       37.941       27.833     2302.241     1439.490      774.691        0.890        0.226      115.226       28.241        0.060      342.200       17.442      856.883
07/06/2013  04:14:00     -102.107      -58.339       -6.155       57.928       41.530       22.100     3355.638     1724.706      488.397        0.972        0.278      117.598       22.988        0.038      342.133       17.330      856.872
07/06/2013  04:15:00      -76.523      -47.052        0.725       66.561       58.839       35.491     4430.391     3462.064     1259.603        0.861        0.458       89.832       33.789        0.141      342.213       17.465      856.865
07/06/2013  04:16:00     -103.182      -44.058        7.863       65.535       57.404       30.729     4294.791     3295.173      944.288        1.059        0.427      112.194       32.306        0.083      342.109       17.287      856.887
07/06/2013  04:17:00      -85.923      -12.526        7.645       46.006       37.724       24.879     2116.549     1423.128      618.948        0.588        0.208       86.831       25.784        0.088      342.079       17.236      856.907
07/06/2013  04:18:00      -52.458        7.801        6.914       38.106       31.959       19.560     1452.082     1021.384      382.611        0.286        0.143       53.034       22.258        0.176      342.092       17.260      856.924
07/06/2013  04:19:00      -34.034      -14.069        5.354       31.679       25.181       15.088     1003.534      634.071      227.637        0.162        0.093       36.827       17.094        0.215      342.149       17.357      856.933
07/06/2013  04:20:00      -50.120      -13.721       -6.210       24.671       18.760       20.322      608.679      351.921      412.991        0.206        0.069       51.964       16.701        0.103      342.227       17.489      856.928
07/06/2013  04:21:00      -42.427       -7.127        0.816       25.924       22.636       18.420      672.043      512.375      339.285        0.169        0.076       43.022       11.191        0.068      342.136       17.335      856.907
07/06/2013  04:22:00      -72.279       -8.836       -8.440       20.117       24.733       13.207      404.698      611.738      174.430        0.328        0.060       72.817       13.250        0.033      342.158       17.371      856.903
07/06/2013  04:23:00      -86.690      -37.990       -8.176       19.449       15.687       13.022      378.280      246.071      169.572        0.491        0.040       94.649        6.550        0.005      342.251       17.531      856.910
07/06/2013  04:24:00     -116.926      -54.102      -13.037       25.705       17.035       16.447      660.737      290.202      270.514        0.899        0.061      128.836       15.095        0.014      342.119       17.305      856.917
07/06/2013  04:25:00     -120.518      -73.336       -4.924       30.771       22.401       17.558      946.867      501.813      308.275        1.084        0.088      141.078       15.656        0.012      342.136       17.334      856.927
07/06/2013  04:26:00      -57.016      -40.254        3.010       52.080       33.177       28.611     2712.326     1100.682      818.575        0.475        0.232       69.794       30.728        0.194      342.162       17.378      856.934
07/06/2013  04:27:00      -56.200      -46.997       -4.268       19.029       20.789       15.866      362.109      432.166      251.716        0.322        0.052       73.261        4.549        0.004      342.082       17.242      856.924
07/06/2013  04:28:00      -61.054      -44.994       -4.912       37.553       30.015       18.787     1410.217      900.908      352.937        0.422        0.133       75.842       13.015        0.029      342.190       17.427      856.901
07/06/2013  04:29:00      -63.524      -25.529       -2.671       23.405       21.614       13.584      547.771      467.168      184.533        0.295        0.060       68.462        8.948        0.017      342.179       17.408      856.893
07/06/2013  04:30:00      -32.626      -42.754       -1.193       35.322       28.623       15.045     1247.629      819.252      226.356        0.259        0.115       53.781       20.622        0.147      342.220       17.478      856.898
07/06/2013  04:31:00        3.505      -31.586       11.195       23.573       18.442       17.595      555.671      340.105      309.572        0.117        0.060       31.780        8.357        0.069      342.338       17.678      856.891
07/06/2013  04:32:00      -52.137      -20.587       -8.784       38.505       19.529       13.629     1482.621      381.364      185.763        0.263        0.102       56.054       20.412        0.133      342.222       17.480      856.878
07/06/2013  04:33:00      -69.722      -39.223       -3.041       17.684       13.772       12.036      312.711      189.681      144.864        0.353        0.032       79.997        3.281        0.002      342.236       17.503      856.863
07/06/2013  04:34:00      -51.316      -54.394        1.798       46.456       26.592       18.751     2158.166      707.109      351.602        0.441        0.161       74.780       12.055        0.026      342.132       17.328      856.863
07/06/2013  04:35:00      -95.521      -89.400       -6.931       33.899       32.667       23.703     1149.128     1067.154      561.841        0.997        0.139      130.830       19.165        0.021      342.081       17.240      856.853
07/06/2013  04:36:00      -88.357      -58.500        7.902       48.391       33.727       23.692     2341.699     1137.505      561.320        0.767        0.202      105.968       24.526        0.054      342.059       17.203      856.855
07/06/2013  04:37:00      -95.117      -77.264       -5.140       45.146       39.323       31.031     2038.148     1546.313      962.945        0.979        0.227      122.544       24.044        0.038      341.993       17.092      856.864
07/06/2013  04:38:00      -94.357      -86.858        6.718       44.107       40.772       22.792     1945.458     1662.319      519.464        1.031        0.206      128.248       24.685        0.037      341.924       16.974      856.874
07/06/2013  04:39:00     -105.479      -66.743        3.536       62.636       39.545       26.825     3923.303     1563.791      719.598        1.090        0.310      124.822       25.288        0.041      341.993       17.092      856.868
07/06/2013  04:40:00      -83.697      -70.291        0.962       48.720       34.679       24.550     2373.596     1202.608      602.686        0.806        0.209      109.298       27.803        0.065      341.985       17.078      856.862
07/06/2013  04:41:00      -60.716      -51.080       10.075       52.501       33.151       23.656     2756.316     1098.962      559.583        0.541        0.221       79.345       27.864        0.123      342.015       17.129      856.854
07/06/2013  04:42:00      -75.644      -71.881        7.309       46.667       29.036       32.507     2177.822      843.107     1056.686        0.751        0.204      104.350       27.252        0.068      341.978       17.066      856.856
07/06/2013  04:43:00      -54.930      -73.235        8.712       59.144       36.431       25.982     3497.980     1327.190      675.047        0.698        0.275       91.546       30.063        0.108      342.064       17.211      856.869
07/06/2013  04:44:00      -71.132      -79.115        3.271       43.477       31.699       27.562     1890.216     1004.800      759.664        0.749        0.183      106.390       24.027        0.051      342.063       17.210      856.872
07/06/2013  04:45:00      -76.477     -101.843       -0.367       33.098       28.246       23.718     1095.467      797.850      562.549        0.934        0.123      127.361       23.252        0.033      342.014       17.127      856.873
07/06/2013  04:46:00      -56.472      -84.333       10.678       62.798       61.040       31.394     3943.627     3725.859      985.569        0.953        0.433      101.494       38.004        0.140      341.963       17.039      856.889
07/06/2013  04:47:00     -124.758      -75.920        3.919       67.669       56.325       39.724     4579.038     3172.479     1577.982        1.533        0.466      146.043       33.172        0.052      341.876       16.893      856.894
07/06/2013  04:48:00     -160.783     -116.774       -7.054       91.279       51.880       38.274     8331.802     2691.541     1464.888        2.601        0.624      198.714       42.055        0.045      341.777       16.723      856.898
07/06/2013  04:49:00     -184.004     -125.488      -10.608       55.265       44.190       29.382     3054.243     1952.737      863.273        2.779        0.294      222.722       23.288        0.011      341.766       16.702      856.891
07/06/2013  04:50:00     -102.481      -77.101       -1.953       47.765       45.416       22.837     2281.528     2062.653      521.537        1.066        0.243      128.245       27.507        0.046      341.796       16.757      856.887
07/06/2013  04:51:00      -91.273      -43.891        5.045       40.708       34.936       25.044     1657.110     1220.517      627.220        0.689        0.175      101.277       24.856        0.060      341.819       16.796      856.882
07/06/2013  04:52:00      -95.229      -49.202        1.808       39.131       35.401       18.734     1531.274     1253.246      350.958        0.731        0.157      107.188       18.632        0.030      341.935       16.994      856.881
07/06/2013  04:53:00     -106.850      -34.507       -0.475       37.089       34.346       15.287     1375.631     1179.665      233.701        0.770        0.139      112.284       16.524        0.022      341.930       16.985      856.886
07/06/2013  04:54:00     -111.269      -24.576        1.270       37.314       27.626       18.855     1392.305      763.211      355.510        0.775        0.126      113.951       18.913        0.028      341.864       16.873      856.878
07/06/2013  04:55:00      -99.118      -37.072        2.909       25.531       21.641       15.537      651.814      468.350      241.400        0.628        0.068      105.824       13.695        0.017      341.843       16.836      856.879
07/06/2013  04:56:00      -34.669      -28.778        7.089       41.772       24.450       16.542     1744.905      597.811      273.633        0.235        0.131       45.057       20.731        0.212      341.962       17.039      856.880
07/06/2013  04:57:00      -48.299      -43.035        5.089       49.571       23.037       16.095     2457.244      530.714      259.037        0.373        0.162       64.690       23.654        0.134      341.995       17.096      856.884
07/06/2013  04:58:00      -42.757      -24.811        5.843       22.742       19.886       17.152      517.218      395.444      294.203        0.184        0.060       49.434       13.285        0.072      341.863       16.870      856.894
07/06/2013  04:59:00      -34.550      -40.718        1.855       39.531       26.628       16.117     1562.711      709.042      259.742        0.269        0.127       53.401       13.036        0.060      341.946       17.012      856.907
07/06/2013  05:00:00      -83.522      -79.631      -17.457       44.855       38.349       21.346     2011.998     1470.611      455.644        0.878        0.197      115.399        9.761        0.007      341.873       16.888      856.913
07/06/2013  05:01:00      -78.892      -85.246        2.025       51.997       40.942       31.257     2703.675     1676.229      976.997        0.942        0.268      116.150       33.491        0.083      341.759       16.693      856.920
07/06/2013  05:02:00     -120.455     -104.497       -0.863       46.041       56.434       26.563     2119.802     3184.797      705.577        1.572        0.301      159.465       22.896        0.021      341.792       16.751      856.912
07/06/2013  05:03:00      -98.716      -86.191        2.968       73.866       51.337       30.547     5456.169     2635.440      933.121        1.310        0.451      131.049       36.626        0.078      341.810       16.780      856.902
07/06/2013  05:04:00     -101.270      -80.187        2.055       49.022       40.875       20.955     2403.114     1670.774      439.107        1.060        0.226      129.173       17.292        0.018      341.754       16.686      856.912
07/06/2013  05:05:00     -124.650      -49.375       -0.660       33.642       33.521       17.741     1131.772     1123.677      314.726        1.027        0.129      134.073       18.444        0.019      341.753       16.684      856.910
07/06/2013  05:06:00      -48.678      -22.545        3.563       28.726       22.408       16.894      825.206      502.101      285.422        0.225        0.081       53.646       15.194        0.080      341.771       16.716      856.913
07/06/2013  05:07:00      -68.305      -18.722       -7.323       15.505       13.883       12.662      240.396      192.734      160.316        0.283        0.030       70.824        7.522        0.011      341.792       16.750      856.927
07/06/2013  05:08:00      -63.257       -5.391       -2.432       14.874       11.263       11.427      221.226      126.864      130.566        0.226        0.024       63.487        7.239        0.013      341.745       16.671      856.934
07/06/2013  05:09:00      -65.111       -1.896       -3.346       17.008       17.459        8.800      289.259      304.808       77.448        0.246        0.034       65.138        8.325        0.016      341.756       16.690      856.951
07/06/2013  05:10:00      -50.090      -17.805        4.021       21.983       16.802       12.656      483.273      282.305      160.168        0.188        0.046       53.161       11.543        0.047      341.705       16.602      856.958
07/06/2013  05:11:00      -62.796      -37.321        1.085       35.716       21.363       17.696     1275.664      456.365      313.158        0.369        0.102       73.049       20.843        0.081      341.756       16.690      856.952
07/06/2013  05:12:00      -45.451      -46.947        3.126       38.675       33.967       20.741     1495.769     1153.776      430.208        0.368        0.154       65.344       25.630        0.154      341.681       16.564      856.953
07/06/2013  05:13:00      -49.157      -38.363        4.416       35.847       27.176       17.620     1284.994      738.562      310.467        0.312        0.117       62.355       18.332        0.086      341.690       16.578      856.960
07/06/2013  05:14:00      -77.476      -55.456       -4.433       23.835       24.341       16.439      568.094      592.476      270.240        0.526        0.072       95.278       12.659        0.018      341.726       16.639      856.961
07/06/2013  05:15:00      -68.411      -33.828       -0.368       29.976       23.057       12.144      898.556      531.628      147.466        0.370        0.079       76.318       15.391        0.041      341.687       16.575      856.956
07/06/2013  05:16:00      -71.815      -40.248       -5.948       14.423       14.950       13.576      208.019      223.508      184.312        0.371        0.031       82.324        8.951        0.012      341.711       16.613      856.963
07/06/2013  05:17:00      -30.424      -32.169        8.241       35.906       24.697       17.455     1289.253      609.932      304.683        0.212        0.110       44.277       19.756        0.199      341.687       16.573      856.974
07/06/2013  05:18:00      -11.266      -30.175       11.301       30.379       19.076       22.419      922.858      363.906      502.607        0.148        0.089       32.210       17.991        0.312      341.637       16.488      856.976
07/06/2013  05:19:00      -16.361      -25.462       15.258       31.022       19.490       16.955      962.368      379.842      287.488        0.139        0.081       30.265       18.015        0.354      341.598       16.422      856.974
07/06/2013  05:20:00      -63.548      -38.240       -0.360       22.668       19.484       12.186      513.829      379.625      148.507        0.327        0.052       74.166       10.550        0.020      341.626       16.469      856.979
07/06/2013  05:21:00      -19.887      -33.521        5.121       24.875       13.523       16.573      618.756      182.866      274.661        0.131        0.054       38.976       12.646        0.105      341.555       16.348      856.987
07/06/2013  05:22:00      -44.050      -43.478       -0.147       26.176       18.277       13.980      685.179      334.042      195.444        0.252        0.061       61.893       11.064        0.032      341.606       16.437      856.996
07/06/2013  05:23:00      -75.093      -37.867       -7.129       12.882       14.259        8.495      165.939      203.325       72.157        0.378        0.022       84.100        3.618        0.002      341.589       16.408      857.000
07/06/2013  05:24:00      -93.097      -33.131      -10.157       14.969       16.215       10.099      224.077      262.914      101.985        0.523        0.029       98.817        5.345        0.003      341.619       16.458      857.015
07/06/2013  05:25:00      -92.494      -35.204       -5.295       22.618       22.133       13.509      511.584      489.855      182.496        0.550        0.059       98.967        7.329        0.005      341.565       16.366      857.028
07/06/2013  05:26:00      -52.712      -45.554        5.632       44.550       27.144       20.338     1984.681      736.796      413.654        0.401        0.157       69.669       23.195        0.111      341.561       16.359      857.039
07/06/2013  05:27:00      -75.227      -53.695        3.111       45.633       24.473       21.378     2082.328      598.919      457.020        0.584        0.157       92.425       22.914        0.061      341.481       16.222      857.029
07/06/2013  05:28:00      -50.930      -45.861        8.424       38.057       28.863       20.037     1448.328      833.084      401.465        0.372        0.134       68.536       19.245        0.079      341.493       16.243      857.031
07/06/2013  05:29:00      -57.444      -28.065        4.571       32.572       23.015       18.150     1060.942      529.704      329.411        0.301        0.096       63.933       16.948        0.070      341.472       16.207      857.036
07/06/2013  05:30:00      -82.765      -33.321       -3.694       23.133       21.059       13.668      535.138      443.461      186.804        0.457        0.058       89.220       13.874        0.024      341.519       16.288      857.042
07/06/2013  05:31:00      -58.225      -41.498       -2.867       31.240       18.028       13.205      975.929      325.022      174.369        0.330        0.074       71.499       14.778        0.043      341.575       16.384      857.044
07/06/2013  05:32:00      -83.713      -30.217       -2.721       18.791       22.141       15.099      353.090      490.225      227.989        0.450        0.054       89.000       11.899        0.018      341.534       16.311      857.044
07/06/2013  05:33:00      -61.192      -40.712        5.595       18.992       15.476       11.264      360.680      239.511      126.876        0.308        0.036       73.497        8.630        0.014      341.581       16.393      857.043
07/06/2013  05:34:00      -71.585      -38.689       -1.939       27.227       18.840       10.198      741.292      354.930      104.005        0.391        0.060       81.371       10.477        0.017      341.562       16.361      857.043
07/06/2013  05:35:00      -66.824      -42.821        2.172       28.732       24.432       14.138      825.509      596.933      199.870        0.396        0.081       79.367       14.167        0.032      341.537       16.317      857.041
07/06/2013  05:36:00      -72.488      -41.733        3.575       24.785       22.228       19.571      614.282      494.102      383.014        0.425        0.075       83.643       17.904        0.046      341.446       16.163      857.042
07/06/2013  05:37:00     -100.226      -49.009       -5.978       14.596       18.824       11.037      213.048      354.345      121.817        0.659        0.034      111.567        8.577        0.006      341.503       16.260      857.053
07/06/2013  05:38:00     -101.422      -40.379       -9.552       17.232       18.572       13.201      296.959      344.930      174.266        0.641        0.041      109.164       10.347        0.009      341.455       16.178      857.058
07/06/2013  05:39:00      -91.560      -40.560       -4.931       23.166       18.239       17.847      536.668      332.669      318.519        0.562        0.059      100.142       13.390        0.018      341.443       16.159      857.067
07/06/2013  05:40:00      -77.317      -34.075       -3.815       21.803       20.074       11.677      475.379      402.981      136.347        0.408        0.051       84.493        9.784        0.013      341.428       16.134      857.074
07/06/2013  05:41:00      -39.850      -60.236        5.016       29.160       25.075       19.887      850.290      628.770      395.487        0.356        0.094       72.225       20.137        0.078      341.408       16.099      857.103
07/06/2013  05:42:00      -74.500      -41.876        0.752       29.171       30.850       19.491      850.959      951.702      379.884        0.474        0.109       85.463       15.370        0.032      341.420       16.120      857.117
07/06/2013  05:43:00      -87.596      -51.006       -2.223       24.189       19.998       17.073      585.116      399.912      291.502        0.578        0.064      101.364       12.111        0.014      341.361       16.019      857.130
07/06/2013  05:44:00      -72.795      -44.714        3.214       42.820       27.832       21.012     1833.580      774.617      441.495        0.518        0.152       85.431       18.416        0.046      341.421       16.121      857.139
07/06/2013  05:45:00      -98.925      -63.178       -6.729       26.045       24.221       15.539      678.344      586.644      241.449        0.766        0.075      117.378       11.346        0.009      341.446       16.162      857.152
07/06/2013  05:46:00      -62.172      -46.741        0.237       48.896       34.264       23.414     2390.848     1173.993      548.203        0.508        0.206       77.783       26.902        0.120      341.443       16.158      857.166
07/06/2013  05:47:00      -53.057      -32.981        7.764       41.511       22.805       20.040     1723.180      520.073      401.590        0.330        0.132       62.472       19.864        0.101      341.387       16.063      857.179
07/06/2013  05:48:00      -61.427      -55.945        3.458       33.149       27.177       19.670     1098.879      738.563      386.914        0.457        0.111       83.085       20.536        0.061      341.405       16.093      857.193
07/06/2013  05:49:00      -77.219      -60.091       -9.760       28.444       25.644       13.250      809.085      657.621      175.562        0.566        0.082       97.845       11.592        0.014      341.425       16.128      857.197
07/06/2013  05:50:00      -96.374      -22.214       -6.113       17.553       19.806       12.379      308.100      392.295      153.239        0.534        0.043       98.901        6.065        0.004      341.423       16.123      857.195
07/06/2013  05:51:00     -104.145      -32.923       -3.387       32.174       30.171       13.954     1035.135      910.265      194.705        0.704        0.107      109.225       11.501        0.011      341.421       16.122      857.197
07/06/2013  05:52:00      -96.196      -46.364       -5.179       25.407       22.803       14.351      645.526      519.958      205.953        0.640        0.069      106.786       12.693        0.014      341.385       16.061      857.200
07/06/2013  05:53:00     -102.279      -41.558      -10.589       16.447       20.247       13.183      270.497      409.948      173.780        0.658        0.043      110.399        8.435        0.006      341.380       16.052      857.202
07/06/2013  05:54:00      -71.909      -39.816        3.183       44.436       23.316       20.236     1974.562      543.658      409.514        0.485        0.146       82.196       24.649        0.090      341.437       16.149      857.201
07/06/2013  05:55:00      -58.615      -52.964        1.554       31.178       20.680       20.784      972.060      427.675      431.980        0.404        0.092       79.000       18.796        0.057      341.438       16.151      857.199
07/06/2013  05:56:00      -33.544      -35.084       -3.203       25.141       17.051       15.237      632.090      290.753      232.171        0.176        0.058       48.539       12.138        0.063      341.478       16.217      857.198
07/06/2013  05:57:00      -20.204      -42.455       -0.233       21.187       22.025       12.956      448.891      485.091      167.854        0.166        0.055       47.017       13.524        0.083      341.496       16.247      857.192
07/06/2013  05:58:00      -26.763      -37.532        4.874       31.363       28.924       20.890      983.614      836.600      436.405        0.220        0.113       46.097       20.301        0.194      341.513       16.277      857.190
07/06/2013  05:59:00      -63.269      -44.941        2.857       46.022       31.251       24.209     2118.029      976.602      586.072        0.486        0.184       77.606       27.456        0.125      341.427       16.132      857.187
07/06/2013  06:00:00     -118.926      -75.997        0.048       32.994       25.219       19.234     1088.600      636.008      369.962        1.101        0.105      141.134       19.123        0.018      341.384       16.058      857.182
07/06/2013  06:01:00     -106.745      -67.582       -4.038       39.020       27.747       21.477     1522.562      769.880      461.250        0.937        0.138      126.340       20.306        0.026      341.405       16.094      857.169
07/06/2013  06:02:00     -129.245      -54.117      -12.634       17.945       16.919       15.738      322.007      286.251      247.679        1.032        0.043      140.118        9.674        0.005      341.432       16.139      857.175
07/06/2013  06:03:00     -108.601      -36.933      -10.691       29.222       19.507       19.470      853.919      380.511      379.087        0.744        0.081      114.710       18.518        0.026      341.352       16.005      857.183
07/06/2013  06:04:00     -118.156      -37.197      -15.750       27.729       16.830       10.026      768.911      283.260      100.530        0.837        0.058      123.873        7.102        0.003      341.403       16.090      857.186
07/06/2013  06:05:00      -92.884      -18.872       -6.014       22.110       23.833       17.122      488.860      568.034      293.179        0.518        0.068       94.782       13.571        0.021      341.381       16.054      857.191
07/06/2013  06:06:00     -107.821      -15.827       -9.936       11.492       18.512        9.842      132.069      342.709       96.865        0.627        0.029      108.976        5.144        0.002      341.353       16.008      857.191
07/06/2013  06:07:00      -90.514      -27.121       -5.958       21.693       15.196       12.784      470.585      230.908      163.435        0.491        0.043       94.490       11.012        0.014      341.419       16.118      857.198
07/06/2013  06:08:00      -74.842      -46.946       -0.590       30.297       21.150       12.859      917.911      447.343      165.360        0.467        0.077       88.347        9.830        0.012      341.486       16.231      857.204
07/06/2013  06:09:00      -75.761      -55.722       -7.775       26.748       28.132       15.512      715.439      791.391      240.635        0.533        0.087       94.046       10.956        0.014      341.529       16.304      857.213
07/06/2013  06:10:00      -78.666      -65.792       -3.328       28.064       25.080       15.460      787.599      629.026      239.016        0.609        0.083      102.552       10.489        0.010      341.563       16.362      857.216
07/06/2013  06:11:00      -50.746      -52.075       -3.039       40.507       25.155       20.121     1640.825      632.778      404.872        0.399        0.134       72.711       17.923        0.061      341.574       16.379      857.223
07/06/2013  06:12:00      -74.735      -55.271       -0.152       32.517       22.444       16.387     1057.369      503.726      268.549        0.523        0.091       92.953       13.114        0.020      341.626       16.469      857.220
07/06/2013  06:13:00      -66.337      -55.842        1.428       29.027       20.336       18.403      842.589      413.558      338.661        0.456        0.080       86.711       16.174        0.035      341.673       16.549      857.219
07/06/2013  06:14:00      -53.860      -45.488        5.285       47.314       26.585       20.743     2238.635      706.778      430.270        0.419        0.169       70.499       19.311        0.075      341.675       16.552      857.223
07/06/2013  06:15:00     -106.841      -72.370       -3.591       34.225       33.075       19.128     1171.329     1093.953      365.863        0.965        0.132      129.044       18.357        0.020      341.622       16.462      857.222
07/06/2013  06:16:00     -121.647      -59.170       -6.150       34.281       36.708       23.493     1175.217     1347.460      551.943        1.071        0.154      135.274       13.885        0.011      341.631       16.476      857.218
07/06/2013  06:17:00     -143.243      -81.593       -3.674       49.063       42.049       27.772     2407.170     1768.123      771.307        1.607        0.247      164.852       27.430        0.028      341.461       16.189      857.201
07/06/2013  06:18:00     -125.595      -71.052      -11.303       23.881       26.147       16.128      570.323      683.655      260.097        1.123        0.076      144.300       11.247        0.006      341.563       16.361      857.191
07/06/2013  06:19:00      -59.312      -50.040        1.498       31.414       21.621       16.749      986.814      467.474      280.534        0.388        0.087       77.601       13.777        0.032      341.632       16.479      857.197
07/06/2013  06:20:00      -32.851      -27.704        8.203       38.334       19.325       16.155     1469.501      373.459      260.991        0.201        0.105       42.973       17.630        0.168      341.747       16.675      857.217
07/06/2013  06:21:00      -70.407      -68.513        3.867       49.923       29.038       27.290     2492.304      843.221      744.768        0.687        0.204       98.240       30.924        0.099      341.627       16.472      857.220
07/06/2013  06:22:00     -121.045      -68.690        0.493       33.807       24.767       19.571     1142.943      613.400      383.036        1.075        0.107      139.177       17.097        0.015      341.665       16.537      857.223
07/06/2013  06:23:00     -110.899      -51.234       -3.184       28.912       22.918       14.279      835.926      525.243      203.883        0.825        0.078      122.162       13.966        0.013      341.661       16.529      857.243
07/06/2013  06:24:00      -57.632      -48.530       -4.125       34.964       31.908       17.658     1222.491     1018.139      311.817        0.412        0.128       75.343       17.435        0.054      341.751       16.680      857.247
07/06/2013  06:25:00      -91.088      -41.489       -5.823       21.222       16.191       13.716      450.368      262.158      188.142        0.548        0.045      100.092        5.372        0.003      341.699       16.595      857.246
07/06/2013  06:26:00      -65.461      -40.938       -1.346       18.506       21.989       16.925      342.464      483.504      286.452        0.354        0.056       77.208       13.645        0.031      341.708       16.609      857.261
07/06/2013  06:27:00      -55.707      -36.307       -5.698       15.597       14.170        9.704      243.254      200.778       94.160        0.250        0.027       66.494        6.304        0.009      341.752       16.682      857.277
07/06/2013  06:28:00      -29.673      -24.958        4.558       29.856       14.765       15.501      891.403      218.002      240.273        0.144        0.067       38.773       19.032        0.241      341.834       16.821      857.279
07/06/2013  06:29:00      -55.485      -78.099      -10.971       19.532       19.024       12.027      381.494      361.911      144.645        0.509        0.044       95.802        7.944        0.007      341.714       16.620      857.289
07/06/2013  06:30:00      -35.072      -65.665        5.964       43.470       61.908       27.170     1889.682     3832.568      738.193        0.602        0.323       74.444       29.385        0.156      341.751       16.681      857.303
07/06/2013  06:31:00     -100.473      -72.266       -8.482       55.518       37.845       23.349     3082.275     1432.222      545.178        1.022        0.253      123.762       14.049        0.013      341.618       16.455      857.300
07/06/2013  06:32:00     -129.649     -103.404       -4.878       36.094       29.238       26.970     1302.752      854.872      727.376        1.520        0.144      165.835       21.764        0.017      341.615       16.451      857.297
07/06/2013  06:33:00     -134.014     -106.300       -6.777       38.382       36.085       27.090     1473.193     1302.140      733.846        1.641        0.175      171.054       20.681        0.015      341.650       16.510      857.306
07/06/2013  06:34:00      -87.775      -76.310       -8.477       33.875       52.222       25.557     1147.492     2727.155      653.168        0.906        0.226      116.309       25.012        0.046      341.774       16.720      857.303
07/06/2013  06:35:00      -85.580      -60.714       -2.512       38.896       40.196       24.877     1512.908     1615.752      618.872        0.738        0.187      104.929       19.733        0.035      341.661       16.527      857.307
07/06/2013  06:36:00      -69.749      -61.566       -5.287       35.228       29.422       17.547     1241.041      865.675      307.906        0.555        0.121       93.034       10.183        0.012      341.716       16.623      857.305
07/06/2013  06:37:00      -21.369      -43.468        0.093       21.126       18.144       14.229      446.317      329.192      202.472        0.166        0.049       48.436        9.906        0.042      341.847       16.842      857.285
07/06/2013  06:38:00      -24.379      -85.931        1.865       25.121       45.047       16.677      631.068     2029.229      278.129        0.546        0.147       89.322        7.357        0.007      341.833       16.821      857.277
07/06/2013  06:39:00      -57.682      -86.241      -10.860       32.396       36.055       24.859     1049.524     1299.935      617.993        0.692        0.148      103.753       16.560        0.025      341.818       16.796      857.266
07/06/2013  06:40:00      -37.710      -44.989       -1.848       31.863       29.290       23.542     1015.254      857.929      554.223        0.294        0.121       58.703       20.223        0.119      341.921       16.971      857.284
07/06/2013  06:41:00      -54.120      -28.955       -0.500       19.652        8.007        8.994      386.199       64.119       80.893        0.215        0.027       61.379        4.481        0.005      341.941       17.004      857.282
07/06/2013  06:42:00      -29.375      -26.330        4.416       15.087       13.639        9.803      227.607      186.033       96.100        0.104        0.025       39.448        8.899        0.051      342.149       17.358      857.285
07/06/2013  06:43:00      -17.919      -23.994        2.843       40.280       20.027       12.989     1622.451      401.072      168.714        0.155        0.110       29.946       18.455        0.380      342.023       17.143      857.281
07/06/2013  06:44:00        6.299      -12.205       11.622       27.174       15.429       22.823      738.413      238.048      520.894        0.091        0.075       13.734       18.886        1.891      342.214       17.466      857.282
07/06/2013  06:45:00      -20.832      -26.820       -6.726       18.285       14.008       11.095      334.328      196.219      123.097        0.093        0.033       33.960        7.310        0.046      342.058       17.203      857.273
07/06/2013  06:46:00      -24.559      -28.845       -5.659       13.372       14.848       11.267      178.815      220.472      126.943        0.100        0.026       37.884        3.951        0.011      342.050       17.188      857.276
07/06/2013  06:47:00      -40.782      -26.071       -4.997       17.120       15.398        8.384      293.092      237.093       70.298        0.148        0.030       48.403        5.715        0.014      342.186       17.419      857.287
07/06/2013  06:48:00       -7.546      -64.766        6.420       17.550       43.654       12.886      308.001     1905.710      166.046        0.334        0.119       65.204       10.746        0.027      342.154       17.365      857.294
07/06/2013  06:49:00      -26.118      -30.443        1.000       19.182       21.919       17.242      367.943      480.439      297.281        0.138        0.057       40.111       15.172        0.143      342.133       17.331      857.284
07/06/2013  06:50:00      -44.305      -25.689       -6.431        9.000       10.232       10.588       81.004      104.691      112.100        0.148        0.015       51.214        6.167        0.014      342.147       17.354      857.287
07/06/2013  06:51:00      -48.891      -22.452       -2.390       10.213       11.538        6.647      104.301      133.124       44.185        0.159        0.014       53.799        4.317        0.006      342.196       17.437      857.278
07/06/2013  06:52:00      -39.027      -22.321       -1.628       23.905       12.353       11.645      571.426      152.592      135.614        0.144        0.043       44.960       11.308        0.063      342.311       17.632      857.281
07/06/2013  06:53:00      -29.860      -62.090        2.142       25.531       33.010       17.812      651.849     1089.673      317.267        0.340        0.103       68.897        5.196        0.006      342.292       17.599      857.293
07/06/2013  06:54:00      -36.484      -65.094        6.590       24.772       45.129       26.031      613.676     2036.612      677.597        0.447        0.166       74.621       21.787        0.085      342.331       17.667      857.299
07/06/2013  06:55:00      -39.580      -50.674        3.907       27.267       31.174       21.933      743.505      971.810      481.062        0.317        0.110       64.299       15.147        0.055      342.221       17.477      857.310
07/06/2013  06:56:00      -38.854      -67.236        4.327       25.336       46.781       17.231      641.927     2188.507      296.900        0.459        0.156       77.656       15.565        0.040      342.204       17.451      857.321
07/06/2013  06:57:00      -37.833      -94.024       -4.242       33.567       26.495       19.766     1126.718      701.970      390.701        0.625        0.111      101.350       16.974        0.028      342.108       17.288      857.333
07/06/2013  06:58:00      -51.844      -57.581        2.898       38.025       35.640       25.221     1445.877     1270.175      636.122        0.468        0.168       77.481       25.000        0.104      342.209       17.457      857.346
07/06/2013  06:59:00      -83.904      -89.511       -8.253       26.533       36.666       19.189      704.012     1344.377      368.204        0.877        0.121      122.687       18.106        0.022      342.043       17.178      857.357
07/06/2013  07:00:00      -82.726      -78.595       -4.194       32.323       43.479       23.342     1044.757     1890.455      544.844        0.826        0.174      114.109       15.296        0.018      342.056       17.197      857.351
07/06/2013  07:01:00      -62.333      -51.775        5.908       40.544       33.556       22.130     1643.783     1125.973      489.727        0.493        0.163       81.031       19.678        0.059      342.119       17.305      857.356
07/06/2013  07:02:00      -41.258      -26.448       -1.814       20.436       24.005       20.900      417.617      576.235      436.798        0.192        0.072       49.007       15.514        0.100      342.257       17.541      857.355
07/06/2013  07:03:00      -20.908      -23.192        8.698       31.530       23.218       18.019      994.123      539.073      324.698        0.145        0.093       31.225       10.660        0.117      342.390       17.766      857.356
07/06/2013  07:04:00      -62.471      -42.638        2.230       37.279       34.249       19.948     1389.688     1172.983      397.936        0.434        0.148       75.635       15.315        0.041      342.165       17.383      857.359
07/06/2013  07:05:00      -94.464      -58.858       -0.545       58.636       31.645       24.216     3438.175     1001.406      586.400        0.871        0.251      111.300       29.888        0.072      342.157       17.371      857.353
07/06/2013  07:06:00      -54.247      -58.250        3.482       50.881       36.758       20.196     2588.905     1351.169      407.863        0.535        0.217       79.598       22.063        0.077      342.086       17.249      857.352
07/06/2013  07:07:00      -69.448      -71.307       -7.705       26.120       32.449       15.028      682.274     1052.951      225.845        0.596        0.098       99.537       12.047        0.015      342.096       17.267      857.346
07/06/2013  07:08:00      -75.470      -49.364        0.725       27.751       32.018       18.951      770.092     1025.172      359.132        0.514        0.108       90.180       14.345        0.025      342.148       17.356      857.351
07/06/2013  07:09:00      -65.283      -26.235        0.426       37.011       22.809       20.052     1369.824      520.252      402.080        0.362        0.115       70.357       19.611        0.078      342.239       17.508      857.359
07/06/2013  07:10:00      -15.522      -31.651        5.985       19.199       18.461       22.334      368.586      340.812      498.811        0.124        0.060       35.252        7.400        0.044      342.208       17.457      857.368
07/06/2013  07:11:00        7.697      -16.098       20.749       20.902       21.480       16.768      436.896      461.378      281.177        0.096        0.059       17.844        7.199        0.163      342.604       18.128      857.378
07/06/2013  07:12:00        8.675        1.715       -1.167       20.498       20.916       19.949      420.164      437.484      397.954        0.067        0.063        8.843        8.275        0.876      342.567       18.066      857.394
07/06/2013  07:13:00        6.561       -4.187       16.106       13.056       11.768       18.821      170.468      138.481      354.211        0.049        0.033        7.783        8.715        1.254      342.922       18.672      857.402
07/06/2013  07:14:00       -9.790        8.836        7.705       18.802       21.529       17.145      353.509      463.488      293.958        0.067        0.056       13.188        6.615        0.252      342.621       18.160      857.400
07/06/2013  07:15:00      -35.401       15.466      -15.284       14.756       26.443       12.433      217.728      699.208      154.567        0.140        0.054       38.632       11.311        0.086      342.331       17.665      857.396
07/06/2013  07:16:00      -15.331      -19.080        6.864       21.636       13.994       18.222      468.126      195.831      332.043        0.082        0.050       24.476       17.469        0.509      342.666       18.235      857.399
07/06/2013  07:17:00      -53.607      -28.394        0.281       25.833       13.277       13.348      667.324      176.267      178.168        0.235        0.051       60.662       14.360        0.056      342.575       18.081      857.395
07/06/2013  07:18:00      -25.800      -30.881       14.715       35.534       28.288       18.247     1262.694      800.193      332.967        0.212        0.120       40.240       20.066        0.249      342.856       18.559      857.399
07/06/2013  07:19:00      -37.813      -57.933        0.946       28.787       26.674       16.306      828.681      711.506      265.883        0.330        0.090       69.182       16.453        0.057      342.626       18.168      857.399
07/06/2013  07:20:00       -6.656      -33.988        8.521       17.329       24.535       13.663      300.286      601.984      186.682        0.118        0.054       34.633        4.754        0.019      342.770       18.412      857.404
07/06/2013  07:21:00       -5.936      -29.382        7.814       11.086       19.978       13.335      122.903      399.114      177.823        0.083        0.035       29.976       10.035        0.112      342.955       18.728      857.396
07/06/2013  07:22:00      -28.107      -31.747        4.989       21.563       29.770       17.389      464.975      886.230      302.374        0.174        0.083       42.401       15.426        0.132      342.814       18.487      857.398
07/06/2013  07:23:00      -14.814      -58.747        2.100       22.046       23.964       24.850      486.017      574.265      617.502        0.268        0.084       60.586       13.118        0.047      342.564       18.062      857.399
07/06/2013  07:24:00       -9.323      -32.269      -15.925       24.918       21.748       19.136      620.910      472.993      366.198        0.142        0.073       33.589       14.479        0.186      342.608       18.135      857.417
07/06/2013  07:25:00      -43.513       10.964        7.827       32.612       27.365       24.358     1063.548      748.820      593.330        0.224        0.120       44.873       20.320        0.205      342.923       18.672      857.430
07/06/2013  07:26:00      -28.459       -9.228        8.733       26.193       22.319       15.521      686.080      498.152      240.896        0.120        0.071       29.917       17.743        0.352      343.082       18.944      857.447
07/06/2013  07:27:00      -10.909       -4.160        0.853       28.569       16.623       24.533      816.177      276.312      601.845        0.092        0.085       11.675       17.099        2.145      343.210       19.164      857.458
07/06/2013  07:28:00      -19.590       -1.508       12.506       19.558       18.119       22.792      382.523      328.305      519.464        0.089        0.062       19.647       18.330        0.870      343.198       19.142      857.467
07/06/2013  07:29:00      -30.363       -1.049       -0.769       21.661       12.129       17.859      469.209      147.112      318.932        0.093        0.047       30.381       14.871        0.240      342.915       18.660      857.463
07/06/2013  07:30:00      -11.350       -1.426       20.443       17.154       17.498       16.366      294.259      306.182      267.850        0.071        0.043       11.439        8.387        0.538      343.609       19.843      857.463
07/06/2013  07:31:00       -3.558       -7.897       20.802       21.957       17.990       14.432      482.112      323.622      208.276        0.076        0.051        8.661       10.585        1.494      343.373       19.440      857.470
07/06/2013  07:32:00        3.628       -1.129        0.468       23.895       19.200       24.881      570.954      368.655      619.048        0.079        0.078        3.799       12.444       10.728      343.041       18.874      857.487
07/06/2013  07:33:00       24.496      -28.252        2.262       29.563       30.316       25.120      873.977      919.054      631.028        0.191        0.121       37.393       17.461        0.218      342.768       18.408      857.501
07/06/2013  07:34:00       26.505      -27.094       10.884       22.519       25.059       26.497      507.089      627.938      702.109        0.170        0.092       37.903       16.975        0.201      342.874       18.590      857.514
07/06/2013  07:35:00       24.090       -1.241       15.625       25.296       37.394       26.695      639.878     1398.341      712.614        0.179        0.138       24.122       23.781        0.972      343.053       18.894      857.519
07/06/2013  07:36:00       18.219        6.806       17.184       18.700       24.080       19.313      349.673      579.833      373.009        0.099        0.065       19.449       11.626        0.357      343.017       18.833      857.518
07/06/2013  07:37:00       48.667      -41.796        2.359       26.147       19.857       14.667      683.671      394.297      215.108        0.271        0.065       64.151        5.871        0.008      342.722       18.331      857.522
07/06/2013  07:38:00       -0.046       -2.209       19.925       13.891       25.345       23.830      192.955      642.388      567.875        0.090        0.070        2.209       15.850       51.467      343.929       20.388      857.509
07/06/2013  07:39:00        0.297        0.018       22.455       17.895       22.192       26.174      320.226      492.503      685.104        0.100        0.075        0.297       16.621     3131.318      343.697       19.993      857.512
07/06/2013  07:40:00       -7.866        7.484       19.696       12.417       13.567       21.098      154.192      184.067      445.109        0.064        0.039       10.857        9.699        0.798      343.838       20.232      857.526
07/06/2013  07:41:00       13.421       14.216       26.967       22.460       16.229       22.239      504.458      263.386      494.592        0.119        0.063       19.550       17.034        0.759      343.625       19.870      857.538
07/06/2013  07:42:00       19.681       16.775       39.868       27.747       23.437       25.053      769.908      549.284      627.650        0.210        0.097       25.860       12.576        0.237      343.547       19.737      857.554
07/06/2013  07:43:00       22.023       38.163       47.638       40.076       28.798       24.655     1606.118      829.315      607.892        0.363        0.152       44.062       24.220        0.302      343.138       19.040      857.573
07/06/2013  07:44:00       15.377      -20.605       18.882       36.154       53.072       38.675     1307.141     2816.600     1495.744        0.332        0.281       25.710       37.540        2.132      343.805       20.175      857.572
07/06/2013  07:45:00        0.370      -39.973       21.667       34.929       42.632       41.317     1220.003     1817.524     1707.077        0.341        0.237       39.974       28.990        0.526      343.924       20.377      857.570
07/06/2013  07:46:00       -7.235      -15.631       33.135       39.021       36.602       29.778     1522.637     1339.725      886.752        0.257        0.187       17.225       31.714        3.390      343.664       19.935      857.568
07/06/2013  07:47:00      -32.460        9.610       -0.033       18.904       13.634       21.520      357.351      185.879      463.102        0.108        0.050       33.853       16.006        0.224      343.472       19.609      857.551
07/06/2013  07:48:00        9.418       24.537       24.938       23.992       21.238       17.734      575.598      451.063      314.504        0.133        0.067       26.282        7.724        0.086      343.804       20.174      857.529
07/06/2013  07:49:00        5.484       33.820        9.036       18.270       24.399       21.930      333.786      595.298      480.939        0.133        0.071       34.262       14.812        0.187      343.686       19.972      857.516
07/06/2013  07:50:00       -1.495        3.600       13.239       16.781       16.632       20.626      281.616      276.631      425.428        0.059        0.049        3.898        9.896        6.446      344.111       20.697      857.513
07/06/2013  07:51:00       14.353      -12.970       19.253       25.789       23.828       29.691      665.056      567.774      881.538        0.143        0.106       19.345       22.444        1.346      343.983       20.482      857.527
07/06/2013  07:52:00       44.716      -51.865        6.613       24.361       25.182       21.045      593.466      634.147      442.896        0.320        0.084       68.480       10.535        0.024      343.268       19.259      857.554
07/06/2013  07:53:00       33.556       15.265       39.115       34.431       38.053       32.974     1185.478     1448.055     1087.274        0.330        0.186       36.865       33.242        0.813      343.389       19.466      857.568
07/06/2013  07:54:00       17.736      -37.526       14.940       42.468       33.590       32.955     1803.529     1128.313     1086.015        0.298        0.201       41.506       25.701        0.383      343.927       20.385      857.582
07/06/2013  07:55:00       -6.797      -29.831       38.119       21.256       37.583       27.552      451.828     1412.499      759.138        0.251        0.131       30.595       11.595        0.144      344.098       20.675      857.593
07/06/2013  07:56:00      -22.456       -6.854        7.162       23.792       28.752       25.083      566.055      826.656      629.145        0.131        0.101       23.479       15.420        0.431      343.733       20.052      857.589
07/06/2013  07:57:00      -34.392       14.898        1.574       23.313       17.927       14.818      543.507      321.383      219.576        0.125        0.054       37.480        8.254        0.049      343.528       19.703      857.586
07/06/2013  07:58:00       -8.511        3.742       21.405       18.971       12.342       20.033      359.896      152.330      401.312        0.073        0.046        9.297       12.544        1.820      344.222       20.888      857.584
07/06/2013  07:59:00      -39.037      -24.667        8.058       22.689       14.483       13.635      514.796      209.767      185.901        0.155        0.046       46.177       11.599        0.063      343.739       20.062      857.584
07/06/2013  08:00:00      -21.049      -23.010       -7.195       17.292        9.268        9.829      299.016       85.902       96.607        0.075        0.024       31.186        8.438        0.073      343.631       19.879      857.592
07/06/2013  08:01:00        0.047        2.597       23.075       23.620       38.146       34.544      557.898     1455.098     1193.266        0.187        0.160        2.598       28.274      118.451      344.041       20.579      857.604
07/06/2013  08:02:00       29.023      -12.851       28.192       40.190       34.301       30.245     1615.233     1176.590      914.763        0.275        0.185       31.741       23.506        0.548      343.766       20.109      857.613
07/06/2013  08:03:00        7.589      -13.628       42.915       20.945       68.633       35.430      438.682     4710.518     1255.262        0.424        0.320       15.599       36.131        5.365      344.138       20.743      857.618
07/06/2013  08:04:00      -10.274        8.290       36.555       21.501       35.464       25.194      462.278     1257.722      634.718        0.193        0.118       13.202       18.616        1.988      344.507       21.375      857.632
07/06/2013  08:05:00        1.233       46.845       64.137       33.317       37.266       25.784     1110.043     1388.742      664.813        0.474        0.158       46.861       21.232        0.205      344.261       20.955      857.641
07/06/2013  08:06:00       -4.454       20.932       49.410       17.722       27.681       15.841      314.065      766.223      250.948        0.212        0.067       21.400        9.490        0.197      344.406       21.203      857.646
07/06/2013  08:07:00      -16.379        0.604       21.881       16.548       20.725       19.355      273.849      429.515      374.597        0.091        0.054       16.390       12.707        0.601      344.539       21.430      857.644
07/06/2013  08:08:00      -22.172       22.305       23.020       18.669       18.104       20.796      348.533      327.751      432.472        0.131        0.055       31.450       12.638        0.161      344.462       21.300      857.652
07/06/2013  08:09:00        6.479        6.283       34.848       27.423       20.135       22.587      752.017      405.435      510.187        0.148        0.083        9.025       14.028        2.416      344.613       21.557      857.653
07/06/2013  08:10:00       41.644        0.819       19.804       43.151       25.745       32.368     1862.027      662.786     1047.696        0.285        0.179       41.652       28.095        0.455      344.020       20.545      857.657
07/06/2013  08:11:00       -8.858        9.335       38.713       18.961       19.121       12.154      359.506      365.626      147.721        0.127        0.044       12.869        8.520        0.438      344.693       21.694      857.660
07/06/2013  08:12:00        5.380       25.833       44.164       27.579       28.929       25.812      760.625      836.887      666.237        0.245        0.113       26.387       20.405        0.598      344.484       21.335      857.663
07/06/2013  08:13:00       23.945       -5.415       20.996       27.946       29.216       26.281      780.975      853.569      690.705        0.168        0.116       24.550       23.528        0.918      344.174       20.807      857.667
07/06/2013  08:14:00       34.136       -0.069       22.127       38.909       34.501       30.105     1513.877     1190.330      906.295        0.263        0.181       34.136       27.937        0.670      344.198       20.848      857.677
07/06/2013  08:15:00       -9.681       -3.151       16.866       16.228       12.903       23.651      263.340      166.494      559.362        0.069        0.049       10.181       15.093        2.198      344.472       21.315      857.683
07/06/2013  08:16:00      -33.658      -10.605       -7.352       13.896       16.955       10.669      193.105      287.478      113.827        0.095        0.030       35.289        5.840        0.027      343.993       20.496      857.696
07/06/2013  08:17:00      -36.805      -36.212        6.976       24.475       34.392       18.558      599.045     1182.840      344.400        0.242        0.106       51.632       15.727        0.093      344.318       21.051      857.691
07/06/2013  08:18:00       -8.666      -15.818       10.114       28.154       17.627       15.331      792.637      310.710      235.031        0.088        0.067       18.036       10.441        0.335      344.237       20.914      857.689
07/06/2013  08:19:00      -27.531      -32.706       -2.122       26.855       19.627        9.283      721.170      385.203       86.179        0.151        0.060       42.751        6.320        0.022      343.990       20.491      857.679
07/06/2013  08:20:00      -44.426      -24.576       -1.888       21.075       16.516       12.229      444.162      272.770      149.539        0.172        0.043       50.770        8.216        0.026      344.146       20.757      857.683
07/06/2013  08:21:00       -6.716      -24.550        4.683       28.579       15.626       17.151      816.765      244.179      294.167        0.101        0.068       25.453       12.561        0.244      344.557       21.461      857.676
07/06/2013  08:22:00       -4.997      -38.417       -7.765       23.211       24.670       23.890      538.745      608.602      570.728        0.164        0.086       38.741        8.554        0.049      343.938       20.403      857.673
07/06/2013  08:23:00      -21.708      -34.450        5.907       25.788       24.607       17.344      665.031      605.486      300.810        0.163        0.079       40.719       11.274        0.077      344.258       20.949      857.681
07/06/2013  08:24:00      -67.394      -47.735       -7.618       27.504       18.250       14.061      756.492      333.050      197.706        0.408        0.064       82.587       11.058        0.018      344.230       20.902      857.690
07/06/2013  08:25:00      -38.854      -40.793        0.718       42.401       34.087       21.485     1797.886     1161.891      461.611        0.330        0.171       56.335       25.832        0.210      344.608       21.548      857.687
07/06/2013  08:26:00      -58.077      -64.757        3.798       26.067       34.414       17.248      679.499     1184.304      297.490        0.487        0.108       86.986       15.921        0.033      344.365       21.133      857.691
07/06/2013  08:27:00      -75.950      -51.792       -0.262       19.875       26.063       16.675      395.032      679.300      278.052        0.490        0.068       91.928       11.169        0.015      344.262       20.956      857.684
07/06/2013  08:28:00      -61.501      -20.736        3.974       27.474       19.797       11.795      754.823      391.927      139.112        0.276        0.064       64.903       11.122        0.029      344.348       21.104      857.671
07/06/2013  08:29:00      -33.017      -17.513        0.779       17.033       31.752       12.911      290.127     1008.218      166.705        0.143        0.073       37.374        9.291        0.062      344.571       21.486      857.666
07/06/2013  08:30:00      -27.529       -6.905       -2.482       13.930        7.135        7.176      194.057       50.914       51.498        0.055        0.015       28.382        5.111        0.032      344.396       21.188      857.661
07/06/2013  08:31:00       -4.484        2.497       24.794       16.644       20.350       17.803      277.022      414.126      316.942        0.082        0.050        5.133        7.975        2.414      345.390       22.888      857.669
07/06/2013  08:32:00       -4.242       -3.620        4.825       20.497       19.406       25.127      420.119      376.612      631.348        0.074        0.071        5.577       13.771        6.097      344.956       22.145      857.665
07/06/2013  08:33:00        2.740       -6.755       36.004       12.625       16.994       18.278      159.401      288.810      334.084        0.107        0.039        7.289       10.000        1.882      345.679       23.385      857.678
07/06/2013  08:34:00      -19.408      -26.877       10.104       12.822       11.058       11.861      164.400      122.279      140.686        0.081        0.021       33.152        7.802        0.055      344.587       21.511      857.682
07/06/2013  08:35:00      -24.460       22.512       19.530       20.300       19.511       22.222      412.108      380.688      493.803        0.139        0.064       33.243        7.065        0.045      345.355       22.828      857.681
07/06/2013  08:36:00       13.614        1.078        8.755       29.706       25.915       30.072      882.475      671.564      904.296        0.136        0.123       13.657       17.503        1.643      344.778       21.840      857.680
07/06/2013  08:37:00       25.188        3.080        0.895       36.721       35.784       26.635     1348.418     1280.464      709.406        0.199        0.167       25.376       21.693        0.731      344.312       21.042      857.679
07/06/2013  08:38:00        4.370       20.855       39.383       25.284       31.481       34.338      639.277      991.078     1179.110        0.241        0.140       21.308       24.079        1.277      345.271       22.684      857.666
07/06/2013  08:39:00      -25.284       -3.105       19.440       27.800       30.404       23.587      772.819      924.399      556.328        0.164        0.113       25.474        5.203        0.042      344.783       21.847      857.661
07/06/2013  08:40:00        6.911       23.875       22.411       27.005       21.906       23.882      729.285      479.894      570.338        0.145        0.089       24.855       16.882        0.461      345.335       22.793      857.660
07/06/2013  08:41:00       -8.602       16.127       47.229       16.183       33.637       16.839      261.894     1131.431      283.535        0.212        0.084       18.277       17.954        0.965      345.726       23.463      857.663
07/06/2013  08:42:00       -4.899       11.941       44.903       20.279       19.899       21.907      411.244      395.953      479.898        0.173        0.064       12.907       15.442        1.431      345.608       23.261      857.667
07/06/2013  08:43:00       17.708       15.975       39.967       26.256       20.638       23.050      689.375      425.927      531.321        0.191        0.082       23.849       17.504        0.539      345.657       23.346      857.671
07/06/2013  08:44:00       30.945       23.793       27.599       20.779       23.000       17.827      431.747      529.018      317.815        0.178        0.064       39.035       15.225        0.152      344.893       22.036      857.673
07/06/2013  08:45:00       25.862       13.130       20.136       30.439       25.037       20.694      926.560      626.851      428.240        0.161        0.099       29.004       15.368        0.281      345.208       22.574      857.667
07/06/2013  08:46:00       -4.974       44.225       11.299       28.756       34.267       27.063      826.934     1174.233      732.429        0.242        0.137       44.503       20.225        0.207      345.615       23.274      857.658
07/06/2013  08:47:00       47.788       33.590       21.747       27.984       30.457       29.427      783.113      927.649      865.930        0.323        0.129       58.412       18.760        0.103      345.538       23.141      857.649
07/06/2013  08:48:00       84.836       37.425       12.158       38.309       45.173       28.428     1467.572     2040.563      808.158        0.653        0.216       92.724        5.155        0.003      344.809       21.891      857.637
07/06/2013  08:49:00      136.551       59.173       20.037       74.474       48.002       44.520     5546.364     2304.184     1982.035        1.619        0.492      148.820       32.116        0.047      344.923       22.085      857.630
07/06/2013  08:50:00       86.144       74.135       14.172       42.392       30.838       31.193     1797.110      951.006      973.017        0.842        0.186      113.652       27.236        0.057      345.099       22.388      857.639
07/06/2013  08:51:00       11.963       -1.436       42.117       25.263       42.847       22.980      638.240     1835.874      528.088        0.246        0.150       12.049       24.491        4.131      345.394       22.895      857.657
07/06/2013  08:52:00       16.322      -17.729       28.303       21.334       26.611       23.271      455.141      708.145      541.543        0.154        0.085       24.098       16.570        0.473      345.228       22.610      857.659
07/06/2013  08:53:00       14.824      -33.428       28.947       19.990       46.630       20.552      399.617     2174.353      422.398        0.259        0.150       36.568       22.495        0.378      344.895       22.039      857.655
07/06/2013  08:54:00       11.415       17.589       43.987       22.790       27.160       24.919      519.401      737.691      620.974        0.213        0.094       20.968       17.028        0.659      345.479       23.040      857.655
07/06/2013  08:55:00        6.745        8.445       27.751       26.664       18.902       14.767      710.987      357.295      218.075        0.109        0.064       10.808        6.195        0.329      345.965       23.873      857.660
07/06/2013  08:56:00       13.716       39.500       30.365       37.542       27.384       28.304     1409.422      749.905      801.103        0.281        0.148       41.813       16.097        0.148      345.392       22.892      857.660
07/06/2013  08:57:00       10.987      -16.126       -7.094       19.036       48.554       23.432      362.357     2357.469      549.065        0.185        0.163       19.513       16.991        0.758      345.192       22.547      857.654
07/06/2013  08:58:00      -10.077      -48.924       15.303       22.373       30.611       27.220      500.549      937.013      740.913        0.245        0.109       49.951       14.018        0.079      345.239       22.628      857.644
07/06/2013  08:59:00       13.217        1.324       13.032       32.064       34.198       30.475     1028.129     1169.525      928.720        0.174        0.156       13.284       13.356        1.011      345.607       23.259      857.636
07/06/2013  09:00:00       -9.387       41.096       55.552       23.573       30.220       25.270      555.692      913.260      638.594        0.348        0.105       42.154       12.589        0.089      345.708       23.432      857.623
07/06/2013  09:01:00       30.543       -1.044       25.527       25.323       26.479       30.242      641.277      701.140      914.558        0.192        0.113       30.561       22.145        0.525      345.321       22.767      857.614
07/06/2013  09:02:00      -11.204        6.522       20.449       23.934       21.322       28.818      572.820      454.646      830.460        0.122        0.093       12.964       20.416        2.480      345.611       23.265      857.605
07/06/2013  09:03:00       10.798       -4.007       20.322       20.045       21.055       19.223      401.800      443.333      369.507        0.088        0.061       11.518       15.638        1.844      345.685       23.394      857.606
07/06/2013  09:04:00       23.969        9.588       23.240       26.404       28.089       24.510      697.169      788.982      600.757        0.165        0.104       25.815       19.977        0.599      345.447       22.986      857.605
07/06/2013  09:05:00       -2.183      -27.895        1.620       31.747       42.002       22.869     1007.898     1764.164      522.973        0.204        0.165       27.981       19.438        0.483      344.835       21.936      857.606
07/06/2013  09:06:00       21.062        1.840       34.194       30.514       33.669       25.204      931.097     1133.623      635.244        0.216        0.135       21.143       21.923        1.075      345.691       23.403      857.607
07/06/2013  09:07:00       13.794      -18.944       37.378       23.638       56.503       26.775      558.740     3192.540      716.900        0.321        0.223       23.434       26.765        1.304      346.106       24.115      857.602
07/06/2013  09:08:00       -1.448       25.460       48.591       32.335       32.899       23.286     1045.521     1082.354      542.244        0.284        0.134       25.501       18.552        0.529      346.244       24.353      857.604
07/06/2013  09:09:00       15.769       23.376       28.737       30.463       32.535       28.592      928.001     1058.531      817.529        0.221        0.140       28.197       21.567        0.585      345.801       23.594      857.607
07/06/2013  09:10:00       41.577       33.478       13.694       27.567       20.545       31.230      759.964      422.103      975.314        0.260        0.108       53.380       14.045        0.069      345.374       22.860      857.613
07/06/2013  09:11:00       29.559       14.373       10.731       18.034       19.396       25.054      325.239      376.208      627.714        0.126        0.066       32.868       16.802        0.261      345.686       23.394      857.621
07/06/2013  09:12:00        5.894       16.378        5.100       27.272       17.624       22.709      743.752      310.613      515.699        0.095        0.079       17.406        9.730        0.312      345.903       23.766      857.619
07/06/2013  09:13:00       49.675       44.167       29.186       42.692       28.687       21.988     1822.647      822.942      483.453        0.420        0.156       66.471       17.597        0.070      346.050       24.020      857.609
07/06/2013  09:14:00       55.330       62.160       23.558       38.643       30.718       25.054     1493.288      943.619      627.726        0.527        0.153       83.218       16.033        0.037      345.890       23.744      857.603
07/06/2013  09:15:00        5.342       27.314       68.310       33.164       46.427       39.045     1099.836     2155.498     1524.482        0.511        0.239       27.832       35.009        1.582      346.518       24.825      857.594
07/06/2013  09:16:00       88.385       81.646       36.669       38.156       28.000       44.164     1455.880      783.998     1950.478        1.001        0.210      120.325       15.241        0.016      345.895       23.752      857.595
07/06/2013  09:17:00       54.139       25.681      -26.238       23.877       39.641       18.600      570.093     1571.411      345.945        0.338        0.124       59.921       17.974        0.090      345.739       23.484      857.599
07/06/2013  09:18:00        7.380       -4.092       36.767       59.668       72.153       46.118     3560.275     5206.081     2126.828        0.616        0.545        8.438       47.522       31.715      346.470       24.741      857.594
07/06/2013  09:19:00       72.337       32.803       21.109       80.993       50.647       32.662     6559.903     2565.136     1066.775        0.847        0.510       79.427       24.153        0.092      346.152       24.195      857.590
07/06/2013  09:20:00       -7.815       27.725       17.173       32.214       30.354       25.733     1037.763      921.384      662.168        0.187        0.131       28.805       16.089        0.312      346.930       25.531      857.587
07/06/2013  09:21:00      -23.240       -3.925       14.919       23.973       16.847       18.041      574.690      283.816      325.472        0.098        0.059       23.569       16.311        0.479      346.425       24.664      857.588
07/06/2013  09:22:00       51.613       32.811       26.654       35.248       24.414       23.527     1242.449      596.065      553.508        0.342        0.120       61.159        9.798        0.026      346.238       24.342      857.580
07/06/2013  09:23:00       29.194       28.427       22.751       51.267       40.482       22.806     2628.355     1638.758      520.092        0.348        0.239       40.748        9.750        0.057      346.358       24.549      857.558
07/06/2013  09:24:00        5.267      -55.379        7.153       38.738       55.511       32.204     1500.650     3081.422     1037.072        0.438        0.281       55.629       35.092        0.398      346.519       24.824      857.553
07/06/2013  09:25:00       22.677       33.014       31.569       34.929       27.759       27.253     1220.048      770.564      742.734        0.267        0.137       40.053       13.537        0.114      346.551       24.879      857.540
07/06/2013  09:26:00       46.886       35.713       23.506       50.226       27.303       18.606     2522.697      745.468      346.202        0.382        0.181       58.938       20.035        0.116      346.376       24.579      857.526
07/06/2013  09:27:00       75.987       69.772        8.392       37.342       33.107       35.294     1394.402     1096.103     1245.632        0.722        0.187      103.161       26.084        0.064      346.307       24.459      857.511
07/06/2013  09:28:00       -0.491       19.877       22.099       18.038       23.313       25.156      325.371      543.500      632.838        0.119        0.075       19.884       16.315        0.673      347.076       25.783      857.497
07/06/2013  09:29:00       43.753      -60.693       -2.095       43.342       43.599       29.514     1878.537     1900.879      871.086        0.513        0.233       74.820       24.100        0.104      346.408       24.635      857.472
07/06/2013  09:30:00       79.890     -108.345      -10.934       45.780       52.606       26.493     2095.785     2767.409      701.854        1.190        0.278      134.614       25.753        0.037      346.317       24.478      857.458
07/06/2013  09:31:00       17.507      -41.248       37.159       22.358       44.560       30.578      499.882     1985.602      935.016        0.340        0.171       44.809       28.988        0.418      346.827       25.356      857.444
07/06/2013  09:32:00       -3.248       -7.145       38.211       18.330       32.673       25.116      335.977     1067.545      630.793        0.178        0.102        7.848       14.800        3.556      347.555       26.611      857.447
07/06/2013  09:33:00        2.274        3.220       44.770       32.170       44.158       25.291     1034.913     1949.964      639.652        0.282        0.181        3.943       21.110       28.669      347.202       26.001      857.436
07/06/2013  09:34:00       10.931      -24.015       36.323       30.548       47.888       35.218      933.160     2293.246     1240.321        0.324        0.223       26.386       18.022        0.466      346.743       25.213      857.424
07/06/2013  09:35:00       56.834      -78.681       16.912       37.155       52.054       36.589     1380.496     2709.628     1338.770        0.757        0.271       97.061       37.287        0.148      346.448       24.704      857.423
07/06/2013  09:36:00       20.802       -1.213       25.253       32.386       61.619       33.990     1048.864     3796.931     1155.296        0.354        0.300       20.838       27.169        1.700      346.701       25.138      857.412
07/06/2013  09:37:00       11.692      -12.330       44.828       45.024       66.027       48.094     2027.172     4359.522     2313.052        0.550        0.435       16.992       46.928        7.628      347.260       26.101      857.395
07/06/2013  09:38:00        2.577       16.891       50.927       30.447       50.270       28.869      927.034     2527.111      833.438        0.359        0.214       17.087       27.861        2.659      347.056       25.749      857.388
07/06/2013  09:39:00       61.193       57.949        2.277       50.245       34.876       44.527     2524.546     1216.337     1982.654        0.641        0.286       84.277       24.229        0.083      346.694       25.127      857.386
07/06/2013  09:40:00       70.177       57.133       25.597       34.734       34.155       42.577     1206.443     1166.563     1812.813        0.651        0.209       90.493       21.798        0.058      346.826       25.355      857.379
07/06/2013  09:41:00       41.026      -20.748       25.610       51.338       44.084       40.871     2635.598     1943.435     1670.469        0.451        0.312       45.974       29.885        0.423      347.154       25.921      857.369
07/06/2013  09:42:00       15.601       28.284       68.772       40.941       63.754       43.713     1676.206     4064.562     1910.784        0.671        0.383       32.302       35.772        1.226      347.425       26.386      857.359
07/06/2013  09:43:00      107.683     -139.451      -18.695       73.296       91.174       54.150     5372.250     8312.761     2932.192        2.400        0.831      176.188       59.499        0.114      346.813       25.327      857.354
07/06/2013  09:44:00       93.393      -73.963       30.445       83.210       93.695       59.415     6923.969     8778.773     3530.084        1.717        0.962      119.133       64.527        0.293      347.180       25.962      857.344
07/06/2013  09:45:00       79.041      -31.033       38.949       72.347       98.211       59.509     5234.114     9645.387     3541.295        1.357        0.921       84.915       60.950        0.515      347.108       25.837      857.335
07/06/2013  09:46:00       58.099       41.486       80.326       82.258       71.933       50.554     6766.379     5174.291     2555.675        1.302        0.725       71.391       62.141        0.758      346.968       25.598      857.353
07/06/2013  09:47:00       47.477      -52.215       27.609       53.790       86.250       38.997     2893.330     7439.008     1520.738        0.880        0.593       70.572       46.638        0.437      347.005       25.661      857.355
07/06/2013  09:48:00       50.082      -35.227       63.536       54.509      109.666       52.783     2971.272    12026.541     2786.034        1.278        0.889       61.230       64.757        1.119      347.293       26.156      857.341
07/06/2013  09:49:00       84.772      101.762       80.752       71.472       52.106       63.103     5108.285     2715.078     3982.002        1.793        0.590      132.446       59.294        0.200      346.636       25.024      857.341
07/06/2013  09:50:00      104.007       62.183       49.113       58.104       65.066       53.416     3376.061     4233.521     2853.264        1.378        0.523      121.178       42.515        0.123      346.661       25.070      857.336
07/06/2013  09:51:00      113.495       82.945       51.728       62.638       42.724       43.368     3923.472     1825.333     1880.789        1.503        0.381      140.574       36.940        0.069      346.854       25.401      857.302
07/06/2013  09:52:00      109.465       81.211       54.536       88.410       47.127       49.194     7816.385     2220.962     2420.061        1.700        0.623      136.300       42.790        0.099      346.649       25.047      857.291
07/06/2013  09:53:00       44.756       89.813      116.589       55.798       70.244       56.457     3113.449     4934.208     3187.396        1.745        0.562      100.347       56.529        0.317      346.780       25.274      857.268
07/06/2013  09:54:00      103.321       83.901       60.569       65.485       47.426       41.197     4288.308     2249.267     1697.183        1.481        0.412      133.097       30.928        0.054      346.790       25.291      857.246
07/06/2013  09:55:00       56.586      101.971       83.888       56.300       43.336       48.848     3169.714     1878.010     2386.083        1.403        0.372      116.619       40.789        0.122      346.885       25.454      857.244
07/06/2013  09:56:00        7.795       84.044      101.107       43.118       43.677       30.956     1859.205     1907.670      958.280        1.104        0.236       84.404       30.683        0.132      347.149       25.909      857.231
07/06/2013  09:57:00       84.474       79.926       74.768       52.299       53.080       45.609     2735.182     2817.515     2080.203        1.337        0.382      116.293       31.194        0.072      346.881       25.446      857.240
07/06/2013  09:58:00       73.233      -15.525       -3.092       58.645       39.892       34.369     3439.271     1591.369     1181.237        0.591        0.311       74.860       30.499        0.166      346.853       25.400      857.232
07/06/2013  09:59:00      107.447       47.825       72.785       63.898       68.802       56.332     4082.949     4733.649     3173.267        1.556        0.599      117.610       48.214        0.168      346.761       25.241      857.231
07/06/2013  10:00:00       44.615        8.819       38.160       37.396       23.097       23.160     1398.495      533.463      536.372        0.300        0.123       45.478       18.107        0.159      347.117       25.855      857.235
07/06/2013  10:01:00        9.849     -107.199        5.965       51.072       75.428       37.347     2608.330     5689.310     1394.828        1.066        0.485      107.650       38.340        0.127      347.284       26.141      857.224
07/06/2013  10:02:00       84.787      -98.448       17.695       74.661      142.713       79.577     5574.299    20366.932     6332.506        2.473        1.614      129.926       95.219        0.537      347.361       26.274      857.203
07/06/2013  10:03:00       58.383       46.852       80.862       51.635       81.948       60.696     2666.167     6715.529     3684.012        1.260        0.653       74.858       65.076        0.756      347.041       25.723      857.232
07/06/2013  10:04:00       70.696      -47.293       41.469       52.015       72.043       50.159     2705.510     5190.130     2515.972        0.968        0.521       85.056       47.960        0.318      347.330       26.221      857.218
07/06/2013  10:05:00       82.678      -25.955       36.699       54.624       93.712       46.999     2983.830     8781.971     2208.939        1.141        0.699       86.657       53.421        0.380      346.876       25.439      857.221
07/06/2013  10:06:00      107.020       77.224       39.636       55.468       64.784       57.720     3076.644     4196.933     3331.580        1.479        0.530      131.973       29.278        0.049      347.037       25.716      857.202
07/06/2013  10:07:00       94.349       75.476       10.376       68.515       41.338       38.571     4694.265     1708.820     1487.704        1.130        0.395      120.824       27.150        0.050      347.332       26.225      857.198
07/06/2013  10:08:00      143.400      106.284        2.980       44.174       47.336       49.355     1951.303     2240.680     2435.911        1.925        0.331      178.493       26.316        0.022      347.242       26.070      857.184
07/06/2013  10:09:00       73.012       51.295       26.418       50.604       42.602       36.227     2560.751     1814.913     1312.424        0.717        0.284       89.230       23.602        0.070      347.446       26.420      857.186
07/06/2013  10:10:00       12.576       50.283       20.961       32.876       44.955       32.000     1080.847     2020.954     1024.002        0.363        0.206       51.832       28.900        0.311      347.722       26.898      857.177
07/06/2013  10:11:00       25.892      -78.855       -0.382       34.336       72.296       30.835     1178.939     5226.777      950.788        0.712        0.368       82.997       28.929        0.121      347.664       26.799      857.192
07/06/2013  10:12:00       72.450      -49.211       22.479       60.554      106.947       38.431     3666.778    11437.683     1476.941        1.238        0.829       87.583       42.470        0.235      347.973       27.330      857.174
07/06/2013  10:13:00        9.225       24.280       49.308       28.193       42.690       31.115      794.838     1822.473      968.170        0.334        0.179       25.973       22.014        0.718      348.107       27.562      857.189
07/06/2013  10:14:00      113.325       61.158       42.634       56.018       47.823       54.104     3138.039     2287.067     2927.279        1.337        0.418      128.775       27.953        0.047      347.541       26.584      857.189
07/06/2013  10:15:00      102.781       53.617        0.813       36.923       47.751       28.800     1363.305     2280.176      829.467        0.896        0.224      115.925       24.055        0.043      347.019       25.684      857.195
07/06/2013  10:16:00       55.304       24.049        7.261       36.072       38.687       36.589     1301.205     1496.671     1338.750        0.391        0.207       60.306       22.538        0.140      347.553       26.608      857.187
07/06/2013  10:17:00      169.687       84.957       42.556      117.567       69.566       48.936    13822.009     4839.489     2394.771        2.943        1.053      189.766       25.012        0.017      347.598       26.682      857.167
07/06/2013  10:18:00      134.892       41.182       57.962       98.789       79.709       60.687     9759.319     6353.581     3682.857        2.152        0.990      141.039       43.540        0.095      347.513       26.535      857.163
07/06/2013  10:19:00      132.607      114.381       99.292       88.569       70.622       72.003     7844.437     4987.459     5184.383        2.927        0.901      175.121       50.084        0.082      347.576       26.643      857.158
07/06/2013  10:20:00       83.420       75.442       74.719       89.056       62.610       59.914     7931.036     3919.978     3589.651        1.683        0.772      112.474       55.357        0.242      347.731       26.911      857.169
07/06/2013  10:21:00      136.499       92.108       22.308       74.513       50.092       49.708     5552.251     2509.210     2470.856        1.907        0.527      164.669       22.419        0.019      347.798       27.027      857.173
07/06/2013  10:22:00       88.088       65.681       22.356       82.761       62.640       49.342     6849.384     3923.784     2434.592        1.289        0.660      109.879       41.695        0.144      348.179       27.685      857.167
07/06/2013  10:23:00       28.794       87.891       69.987       67.313       58.975       36.899     4531.081     3478.031     1361.527        1.141        0.469       92.488       33.804        0.134      348.020       27.411      857.160
07/06/2013  10:24:00      161.199       65.683       37.567       82.540       47.229       54.606     6812.784     2230.600     2981.776        2.187        0.601      174.067       31.316        0.032      347.719       26.890      857.155
07/06/2013  10:25:00      126.124       88.909       12.370       75.085       67.133       53.682     5637.799     4506.866     2881.710        1.849        0.651      154.312       29.131        0.036      347.606       26.696      857.143
07/06/2013  10:26:00      140.813       93.386        3.137       46.326       37.422       32.619     2146.114     1400.384     1064.000        1.658        0.231      168.965       23.083        0.019      347.326       26.213      857.141
07/06/2013  10:27:00       87.328       65.831       27.976       31.201       35.094       25.418      973.509     1231.586      646.060        0.780        0.143      109.362       10.006        0.008      347.212       26.016      857.128
07/06/2013  10:28:00        9.356       44.637       18.483       29.284       27.309       23.382      857.573      745.777      546.729        0.229        0.108       45.607       12.369        0.074      348.042       27.450      857.124
07/06/2013  10:29:00      -21.584       29.158       29.585       22.181       23.010       22.179      492.000      529.439      491.891        0.185        0.076       36.277        9.783        0.073      348.222       27.761      857.119
07/06/2013  10:30:00      -28.959      -38.708        0.247       29.685       48.318       29.465      881.190     2334.596      868.211        0.321        0.204       48.342       15.311        0.100      347.883       27.174      857.111
07/06/2013  10:31:00      -14.105       21.176       52.258       16.333       23.358       24.523      266.781      545.606      601.357        0.240        0.071       25.444       17.236        0.459      348.746       28.668      857.106
07/06/2013  10:32:00      -69.026      -17.563       13.295       36.567       31.125       18.304     1337.144      968.765      335.032        0.394        0.132       71.225       19.876        0.078      347.744       26.936      857.110
07/06/2013  10:33:00      -43.938       18.825       10.772       26.957       27.609       21.428      726.662      762.235      459.160        0.217        0.097       47.801       17.274        0.131      348.098       27.547      857.104
07/06/2013  10:34:00       -9.365       13.851       21.601       28.551       24.177       22.237      815.162      584.549      494.473        0.132        0.095       16.720       17.993        1.158      348.503       28.247      857.106
07/06/2013  10:35:00       15.957       12.124       27.427       40.362       32.856       25.876     1629.077     1079.503      669.564        0.227        0.169       20.041       17.005        0.720      348.709       28.603      857.093
07/06/2013  10:36:00       24.313       39.520       15.265       43.119       48.787       33.721     1859.288     2380.140     1137.089        0.388        0.269       46.400       29.299        0.399      348.312       27.916      857.073
07/06/2013  10:37:00       51.680      -18.422       36.245       67.067       76.680       43.702     4497.935     5879.790     1909.851        0.830        0.614       54.865       45.140        0.677      348.089       27.532      857.066
07/06/2013  10:38:00       74.228      -15.827       47.556       61.131       44.530       37.986     3737.047     1982.914     1442.944        0.759        0.358       75.897       31.589        0.173      347.815       27.058      857.058
07/06/2013  10:39:00      133.999       73.582       42.534       91.666       86.634       53.999     8402.681     7505.533     2915.937        2.200        0.941      152.872       52.241        0.117      347.739       26.925      857.060
07/06/2013  10:40:00      184.451      143.973       70.604       76.551       57.372       65.898     5860.019     3291.531     4342.513        3.661        0.675      233.988       37.163        0.025      347.795       27.020      857.061
07/06/2013  10:41:00      142.493       79.631       37.729       78.602       45.568       48.466     6178.322     2076.477     2348.909        1.933        0.530      163.234       25.457        0.024      347.774       26.985      857.071
07/06/2013  10:42:00       83.440       97.274       87.952       68.600       52.023       47.590     4705.989     2706.345     2264.834        1.692        0.484      128.158       44.062        0.118      347.797       27.025      857.083
07/06/2013  10:43:00       23.771       79.440       87.940       73.283       55.148       46.066     5370.384     3041.262     2122.121        1.257        0.527       82.921       43.434        0.274      348.152       27.640      857.070
07/06/2013  10:44:00      110.431       84.075       59.169       70.073       53.217       51.116     4910.290     2832.054     2612.882        1.656        0.518      138.793       36.091        0.068      348.068       27.492      857.079
07/06/2013  10:45:00      107.910       72.520       46.497       41.868       35.489       42.664     1752.897     1259.492     1820.193        1.195        0.242      130.014       27.006        0.043      347.658       26.786      857.093
07/06/2013  10:46:00      109.485       73.740       19.477       15.127       12.214       16.808      228.825      149.188      282.514        0.923        0.033      132.002        5.957        0.002      347.392       26.332      857.086
07/06/2013  10:47:00       64.004       69.703       39.692       54.895       26.526       40.067     3013.413      703.605     1605.366        0.793        0.266       94.630       40.980        0.188      347.589       26.668      857.084
07/06/2013  10:48:00       19.744       36.026       64.777       29.228       50.717       25.092      854.265     2572.174      629.614        0.497        0.203       41.081       21.631        0.277      348.084       27.523      857.074
07/06/2013  10:49:00       30.643        3.571       46.227       38.607       50.481       34.104     1490.464     2548.338     1163.117        0.414        0.260       30.851       34.179        1.227      348.283       27.867      857.078
07/06/2013  10:50:00        7.331      -33.164       13.317       33.172       53.366       36.557     1100.371     2847.922     1336.421        0.331        0.264       33.965       25.545        0.566      348.018       27.409      857.078
07/06/2013  10:51:00       24.614      -87.031      -11.233       37.731       45.975       19.252     1423.614     2113.722      370.656        0.611        0.195       90.444        9.364        0.011      347.688       26.839      857.069
07/06/2013  10:52:00       66.640     -152.217      -17.566       48.794       38.252       30.241     2380.887     1463.211      914.502        1.634        0.238      166.165       26.006        0.024      347.916       27.231      857.061
07/06/2013  10:53:00       13.183      -93.298        8.286       53.898       90.811       44.545     2904.972     8246.549     1984.242        1.104        0.657       94.225       51.771        0.302      348.028       27.424      857.048
07/06/2013  10:54:00      -10.226       70.449       83.719       41.003       46.680       43.917     1681.213     2179.001     1928.678        0.893        0.289       71.187       29.545        0.172      348.253       27.813      857.058
07/06/2013  10:55:00       55.715       64.349       51.478       38.802       47.021       45.253     1505.577     2210.941     2047.824        0.783        0.288       85.117       29.973        0.124      348.189       27.705      857.068
07/06/2013  10:56:00      -17.625       21.639       24.212       23.461       37.027       24.597      550.440     1371.001      605.012        0.195        0.126       27.909       17.532        0.395      348.350       27.982      857.063
07/06/2013  10:57:00      -11.169      -40.086       14.482       24.803       31.525       27.384      615.192      993.834      749.881        0.215        0.118       41.613       20.708        0.248      348.253       27.816      857.065
07/06/2013  10:58:00       74.685       54.189       41.144       58.782       40.406       36.974     3455.348     1632.628     1367.068        0.833        0.323       92.273       33.836        0.134      348.275       27.853      857.056
07/06/2013  10:59:00       22.666       69.743        2.224       35.047       67.033       38.804     1228.282     4493.477     1505.715        0.630        0.361       73.334       38.420        0.274      348.405       28.077      857.045
07/06/2013  11:00:00       19.675       52.569       59.703       46.084       42.192       51.186     2123.734     1780.201     2620.053        0.662        0.326       56.130       36.340        0.419      348.497       28.238      857.041
07/06/2013  11:01:00        5.927       29.708       63.283       23.874       72.917       43.324      569.961     5316.830     1877.007        0.634        0.388       30.294       49.510        2.671      348.139       27.617      857.034
07/06/2013  11:02:00        0.621      -21.512       29.766       28.758       28.966       23.363      827.018      839.008      545.822        0.178        0.111       21.521       17.464        0.659      348.621       28.451      857.033
07/06/2013  11:03:00       58.792       43.564       32.846       34.840       40.685       34.139     1213.801     1655.230     1165.482        0.523        0.202       73.173       22.267        0.093      348.176       27.681      857.027
07/06/2013  11:04:00       12.243       46.381        3.581       29.659       51.609       29.648      879.637     2663.492      879.018        0.337        0.221       47.970       15.285        0.102      348.091       27.535      857.026
07/06/2013  11:05:00       -6.196       16.524       31.000       24.246       20.266       15.204      587.879      410.709      231.167        0.125        0.061       17.647       12.003        0.463      349.089       29.261      857.020
07/06/2013  11:06:00      -32.119       35.028        1.941       25.136       28.175       28.660      631.803      793.845      821.368        0.225        0.112       47.524       13.987        0.087      348.325       27.939      857.011
07/06/2013  11:07:00      -47.363        9.747       14.808       51.939       31.576       23.025     2697.631      997.044      530.137        0.339        0.211       48.355       27.594        0.326      348.372       28.022      857.005
07/06/2013  11:08:00      -24.861      -44.111        0.191       39.088       24.834       22.150     1527.864      616.732      490.601        0.260        0.132       50.634       16.127        0.101      347.871       27.153      856.986
07/06/2013  11:09:00       17.292       -0.271       33.893       28.308       28.590       34.446      801.340      817.398     1186.537        0.213        0.140       17.295       26.121        2.281      348.404       28.075      856.973
07/06/2013  11:10:00       10.012        3.250       25.258       21.408       33.729       28.616      458.302     1137.643      818.895        0.158        0.121       10.527       20.392        3.753      348.670       28.535      856.971
07/06/2013  11:11:00        6.416       26.410       26.304       23.234       25.437       21.081      539.807      647.062      444.388        0.153        0.082       27.178       14.527        0.286      348.481       28.210      856.956
07/06/2013  11:12:00       10.580       26.939       20.540       26.770       24.869       17.585      716.654      618.473      309.238        0.145        0.082       28.942       11.355        0.154      348.811       28.780      856.951
07/06/2013  11:13:00       56.247      105.746      -17.609       43.276       54.801       38.819     1872.843     3003.133     1506.912        1.052        0.319      119.775       33.330        0.077      348.365       28.007      856.941
07/06/2013  11:14:00       29.985       29.048        5.025       41.770       32.712       36.626     1744.719     1070.107     1341.479        0.296        0.208       41.748       37.907        0.824      348.819       28.794      856.941
07/06/2013  11:15:00      -50.787        8.976        9.964       28.200       22.291       24.487      795.224      496.905      599.589        0.233        0.095       51.574       23.366        0.205      348.498       28.240      856.937
07/06/2013  11:16:00      -40.079      -19.266      -19.630       36.865       33.512       20.610     1359.062     1123.033      424.767        0.263        0.145       44.469       10.033        0.051      348.097       27.544      856.930
07/06/2013  11:17:00      -39.541       25.594       22.191       49.995       51.957       33.291     2499.483     2699.513     1108.312        0.451        0.315       47.102       27.565        0.342      349.122       29.319      856.910
07/06/2013  11:18:00      -38.589       35.270       13.807       44.977       31.511       33.597     2022.940      992.963     1128.758        0.353        0.207       52.279       27.433        0.275      348.761       28.694      856.920
07/06/2013  11:19:00        3.766       24.025       26.367       21.502       28.914       21.480      462.342      835.995      461.411        0.152        0.088       24.318       18.098        0.554      349.519       30.008      856.922
07/06/2013  11:20:00      -14.552       71.946        4.273       35.278       43.803       35.105     1244.557     1918.722     1232.346        0.490        0.220       73.403       21.422        0.085      348.906       28.945      856.914
07/06/2013  11:21:00      -24.636       75.000        1.224       38.518       63.075       32.420     1483.660     3978.414     1051.060        0.637        0.326       78.943       33.206        0.177      348.877       28.896      856.920
07/06/2013  11:22:00        4.444       45.954       22.169       43.391       48.603       37.579     1882.760     2362.245     1412.213        0.414        0.283       46.169       29.334        0.404      349.079       29.245      856.919
07/06/2013  11:23:00       -0.398       80.466        9.230       27.308       75.407       31.455      745.709     5686.284      989.418        0.699        0.371       80.467       37.622        0.219      349.227       29.502      856.910
07/06/2013  11:24:00        2.161       68.721        6.376       28.129       41.858       28.838      791.241     1752.119      831.638        0.407        0.169       68.755       27.585        0.161      348.844       28.838      856.904
07/06/2013  11:25:00       10.916       11.971      -16.051       22.491       49.836       27.264      505.860     2483.578      743.327        0.213        0.187       16.201       23.767        2.152      348.467       28.184      856.902
07/06/2013  11:26:00       29.917       39.221        7.970       49.758       38.305       42.114     2475.831     1467.259     1773.574        0.411        0.286       49.329       29.611        0.360      348.869       28.880      856.895
07/06/2013  11:27:00       49.522       19.729       21.279       51.782       43.247       44.272     2681.369     1870.290     1960.019        0.490        0.326       53.308       35.317        0.439      348.649       28.498      856.879
07/06/2013  11:28:00        8.557        9.990       35.026       15.535       38.139       20.580      241.349     1454.616      423.517        0.176        0.106       13.153       19.541        2.207      348.813       28.784      856.880
07/06/2013  11:29:00       35.654      -31.877       18.328       42.878       45.972       38.712     1838.520     2113.433     1498.638        0.404        0.273       47.826       37.679        0.621      348.884       28.908      856.876
07/06/2013  11:30:00       87.132      -74.986       16.832       81.199       90.817       45.657     6593.256     8247.681     2084.563        1.521        0.846      114.956       55.400        0.232      348.540       28.309      856.877
07/06/2013  11:31:00       -0.017      -29.125       42.749       32.231       74.692       33.960     1038.824     5578.908     1153.259        0.522        0.389       29.125       37.051        1.618      349.073       29.233      856.876
07/06/2013  11:32:00       53.222      -86.582       47.083       79.587      136.544       85.116     6334.035    18644.264     7244.758        2.238        1.611      101.632       88.587        0.760      348.868       28.876      856.874
07/06/2013  11:33:00       28.630     -115.164       19.345       68.329      129.426       84.779     4668.920    16751.108     7187.396        2.153        1.430      118.669       92.595        0.609      348.634       28.471      856.884
07/06/2013  11:34:00       79.530     -101.854      -20.272       55.155       47.140       33.462     3042.030     2222.214     1119.733        1.175        0.319      129.226       26.966        0.044      348.473       28.193      856.900
07/06/2013  11:35:00      -26.872      -87.909        1.507       61.159       48.762       38.813     3740.397     2377.686     1506.416        0.804        0.381       91.925       33.289        0.131      348.722       28.626      856.899
07/06/2013  11:36:00      -68.002     -100.371       -6.762       65.620       58.831       41.583     4305.999     3461.099     1729.177        1.212        0.475      121.238       41.613        0.118      348.472       28.194      856.878
07/06/2013  11:37:00       -9.863      -87.035      -10.806       57.274       44.717       39.922     3280.302     1999.584     1593.778        0.733        0.344       87.592       28.205        0.104      348.353       27.987      856.872
07/06/2013  11:38:00      -42.320      -60.044       20.369       76.842       54.150       36.231     5904.623     2932.269     1312.697        0.798        0.507       73.459       45.551        0.384      348.864       28.871      856.860
07/06/2013  11:39:00      -10.493      -30.725       33.772       35.641       66.868       19.397     1270.282     4471.391      376.262        0.416        0.306       32.467       15.870        0.239      349.048       29.192      856.846
07/06/2013  11:40:00        5.958     -106.804        2.849       32.095       26.172       26.804     1030.091      684.998      718.428        0.694        0.122      106.970       17.466        0.027      348.375       28.027      856.840
07/06/2013  11:41:00       10.125      -63.697       24.702       33.410       56.441       22.585     1116.202     3185.622      510.071        0.479        0.241       64.497       25.796        0.160      348.735       28.649      856.836
07/06/2013  11:42:00      -18.431      -16.712       12.353       29.895       25.661       21.439      893.712      658.510      459.637        0.139        0.101       24.879       20.509        0.680      349.105       29.288      856.842
07/06/2013  11:43:00      -69.842      -13.388      -15.706       21.943       34.407       18.703      481.501     1183.838      349.800        0.366        0.101       71.113        7.138        0.010      348.608       28.429      856.826
07/06/2013  11:44:00      -18.196        8.630       35.376       31.411       41.600       21.567      986.640     1730.575      465.118        0.242        0.159       20.138        9.077        0.203      349.612       30.168      856.819
07/06/2013  11:45:00       53.023     -143.564      -13.787       51.975       65.680       43.592     2701.397     4313.805     1900.225        1.626        0.446      153.042       42.095        0.076      348.584       28.386      856.806
07/06/2013  11:46:00       19.374        4.210       52.478       51.147       49.971       44.601     2616.013     2497.075     1989.217        0.512        0.355       19.826       39.517        3.973      349.238       29.519      856.803
07/06/2013  11:47:00       -8.010      -17.416       29.019       26.815       38.611       33.573      719.021     1490.840     1127.170        0.227        0.167       19.170       15.401        0.645      349.585       30.122      856.803
07/06/2013  11:48:00      -26.289        4.751       16.912       29.520       20.580       23.588      871.430      423.550      556.383        0.143        0.093       26.715       18.945        0.503      348.951       29.022      856.816
07/06/2013  11:49:00      -20.515      -51.677       -9.267       63.076       50.754       28.107     3978.566     2575.978      790.015        0.526        0.367       55.600       29.409        0.280      348.822       28.798      856.816
07/06/2013  11:50:00      -26.069        1.649       24.051       47.898       21.118       24.914     2294.201      445.985      620.713        0.231        0.168       26.121       29.065        1.238      349.823       30.536      856.817
07/06/2013  11:51:00      -81.816       -7.764        9.693       59.791       54.192       32.380     3574.953     2936.825     1048.485        0.720        0.378       82.184       33.238        0.164      349.019       29.141      856.818
07/06/2013  11:52:00       -1.728      -36.173        6.954       24.605       40.574       24.002      605.395     1646.259      576.096        0.209        0.141       36.214       10.864        0.090      349.178       29.416      856.823
07/06/2013  11:53:00        1.362       -0.796       36.120       34.972       28.141       24.791     1223.036      791.921      614.585        0.197        0.131        1.577       15.913      101.802      349.681       30.290      856.823
07/06/2013  11:54:00       -8.864      -55.168        1.550       32.534       58.561       32.305     1058.482     3429.407     1043.605        0.433        0.277       55.876       14.683        0.069      349.015       29.134      856.823
07/06/2013  11:55:00       19.982       10.330       29.468       31.331       53.771       26.431      981.614     2891.274      698.590        0.297        0.229       22.494       28.111        1.562      349.279       29.591      856.829
07/06/2013  11:56:00       17.847       35.291       21.242       21.803       16.062       15.476      475.369      257.993      239.512        0.149        0.049       39.547        9.596        0.059      348.934       28.992      856.820
07/06/2013  11:57:00       54.629      -12.411       11.530       31.443       47.658       39.179      988.653     2271.307     1534.958        0.403        0.240       56.021       35.696        0.406      348.543       28.317      856.827
07/06/2013  11:58:00        0.905       14.259       46.135       27.644       24.614       21.193      764.211      605.832      449.156        0.208        0.091       14.288       14.240        0.993      349.572       30.099      856.816
07/06/2013  11:59:00       10.701       12.241       34.392       28.772       20.973       17.578      827.834      439.859      308.980        0.151        0.079       16.259       14.755        0.824      349.429       29.851      856.815
07/06/2013  12:00:00        1.734        3.949       37.765       23.478       15.718       12.633      551.215      247.060      159.599        0.120        0.048        4.313       10.514        5.944      350.016       30.871      856.794
07/06/2013  12:01:00       39.755       26.149       22.659       25.061       21.883       27.587      628.052      478.883      761.041        0.232        0.093       47.584       16.152        0.115      348.809       28.775      856.775
07/06/2013  12:02:00       -3.009       68.448        9.582       60.816       68.958       37.275     3698.536     4755.233     1389.460        0.731        0.492       68.514       40.416        0.348      348.945       29.011      856.766
07/06/2013  12:03:00      -60.975      196.360       -3.552       58.366       75.962       47.330     3406.550     5770.257     2240.093        2.685        0.571      205.610       43.024        0.044      349.310       29.642      856.762
07/06/2013  12:04:00      -35.165       72.146       14.253       44.702       80.136       39.083     1998.273     6421.808     1527.483        0.829        0.497       80.260       45.822        0.326      349.783       30.465      856.749
07/06/2013  12:05:00      -18.268       55.058       20.406       43.079       63.649       39.294     1855.760     4051.193     1543.997        0.561        0.373       58.010       28.735        0.245      350.015       30.867      856.717
07/06/2013  12:06:00     -124.793        8.261        0.944       59.530       54.580       34.470     3543.863     2979.004     1188.150        1.168        0.386      125.066       29.303        0.055      349.292       29.612      856.704
07/06/2013  12:07:00     -107.135       -4.736       -5.300       29.218       27.256       17.938      853.709      742.886      321.780        0.672        0.096      107.240       14.287        0.018      348.945       29.012      856.692
07/06/2013  12:08:00      -17.374       31.779       22.072       33.070       33.514       26.411     1093.656     1123.166      697.557        0.236        0.146       36.219       21.203        0.343      349.769       30.441      856.688
07/06/2013  12:09:00       14.577       84.486       18.585       59.117       62.162       48.045     3494.786     3864.076     2308.294        0.868        0.483       85.734       38.354        0.200      349.755       30.416      856.666
07/06/2013  12:10:00      -19.876       93.026        6.827       32.217       74.856       43.638     1037.906     5603.375     1904.259        0.882        0.427       95.126       42.578        0.200      349.715       30.348      856.655
07/06/2013  12:11:00       49.342      101.500       15.864       67.586       82.054       54.786     4567.920     6732.929     3001.512        1.364        0.715      112.858       42.964        0.145      349.678       30.283      856.638
07/06/2013  12:12:00       98.600       89.983       35.315      111.221       78.515       56.496    12370.076     6164.608     3191.820        2.039        1.086      133.488       26.903        0.041      349.388       29.778      856.620
07/06/2013  12:13:00      169.236      142.276       17.375       78.761       58.298       52.766     6203.361     3398.698     2784.211        3.078        0.619      221.096       33.883        0.023      349.203       29.456      856.622
07/06/2013  12:14:00      125.594      103.388       39.827       83.837       51.886       52.936     7028.680     2692.126     2802.180        2.028        0.626      162.674       34.894        0.046      349.410       29.817      856.626
07/06/2013  12:15:00       26.557       22.908       30.424       30.010       40.391       30.229      900.601     1631.426      913.822        0.280        0.172       35.071       23.341        0.443      349.234       29.513      856.625
07/06/2013  12:16:00       40.446      -23.947       25.441       53.638       90.476       44.690     2877.053     8185.945     1997.221        0.796        0.653       47.004       45.014        0.917      349.435       29.861      856.603
07/06/2013  12:17:00       54.261     -144.802        5.768       94.474      103.740       57.786     8925.390    10761.921     3339.265        2.348        1.151      154.635       58.823        0.145      349.569       30.091      856.588
07/06/2013  12:18:00       23.036      -99.871       25.707       62.692       95.417       61.864     3930.317     9104.411     3827.144        1.401        0.843      102.493       59.314        0.335      349.662       30.253      856.586
07/06/2013  12:19:00       72.026     -152.068       -9.161       50.840       71.422       39.942     2584.711     5101.087     1595.367        1.884        0.464      168.263       38.012        0.051      349.108       29.293      856.586
07/06/2013  12:20:00       19.691      -90.512        1.473       44.148       56.855       35.282     1949.026     3232.531     1244.837        0.750        0.321       92.629       29.088        0.099      349.395       29.791      856.574
07/06/2013  12:21:00      -29.754       43.660       26.160       73.344       59.093       41.904     5379.364     3492.039     1755.912        0.705        0.531       52.835       32.460        0.377      349.495       29.965      856.574
07/06/2013  12:22:00       72.294       95.017       61.835       66.486       48.150       39.609     4420.416     2318.396     1568.868        1.319        0.415      119.393       24.383        0.042      349.102       29.283      856.538
07/06/2013  12:23:00       93.502       83.332       19.152       47.948       42.352       34.039     2299.043     1793.701     1158.652        1.065        0.263      125.247       18.241        0.021      349.291       29.611      856.511
07/06/2013  12:24:00       20.013       35.651       78.960       45.188       50.024       48.469     2041.994     2502.441     2349.230        0.740        0.345       40.884       24.562        0.361      349.648       30.231      856.491
07/06/2013  12:25:00        5.976      113.491      138.233       53.285       61.622       45.491     2839.315     3797.268     2069.420        2.036        0.435      113.648       40.240        0.125      349.424       29.841      856.476
07/06/2013  12:26:00        8.373        0.298       65.133       51.674       69.532       45.387     2670.222     4834.638     2060.023        0.694        0.478        8.379       46.768       31.157      349.687       30.297      856.465
07/06/2013  12:27:00       -6.095        6.569       69.449       46.892       59.477       46.805     2198.869     3537.503     2190.728        0.641        0.396        8.962       39.775       19.700      349.788       30.473      856.452
07/06/2013  12:28:00       35.072       -1.276       26.920       54.735       55.089       48.633     2995.951     3034.754     2365.150        0.517        0.420       35.095       38.558        1.207      349.671       30.272      856.461
07/06/2013  12:29:00       43.323       27.516       50.261       79.661       46.744       34.508     6345.875     2184.991     1190.791        0.744        0.486       51.323       17.956        0.122      349.742       30.394      856.435
07/06/2013  12:30:00       84.663        6.299       51.990       71.646       43.363       42.667     5133.174     1880.327     1820.442        0.937        0.442       84.897       36.742        0.187      349.545       30.052      856.449
07/06/2013  12:31:00       78.266       97.059        1.285       72.704       56.004       44.379     5285.910     3136.470     1969.520        1.297        0.520      124.684       23.830        0.037      349.397       29.794      856.422
07/06/2013  12:32:00       68.403       72.234       20.848       91.532       60.750       49.892     8378.100     3690.566     2489.188        1.244        0.728       99.483       26.884        0.073      350.217       31.217      856.387
07/06/2013  12:33:00       74.711       49.089       32.940       94.921       64.527       50.392     9009.992     4163.782     2539.401        1.239        0.786       89.395       34.792        0.151      350.190       31.171      856.378
07/06/2013  12:34:00       26.435       25.455       12.655       47.024       29.973       25.278     2211.213      898.385      638.975        0.263        0.187       36.699       20.524        0.313      349.935       30.729      856.341
07/06/2013  12:35:00        1.484     -109.252       -8.866       52.399       71.351       33.838     2745.655     5090.901     1145.006        1.050        0.449      109.262       20.521        0.035      349.768       30.439      856.331
07/06/2013  12:36:00       32.387      -59.431       21.514       51.565       83.287       56.344     2658.982     6936.683     3174.700        0.890        0.639       67.683       42.338        0.391      350.126       31.060      856.332
07/06/2013  12:37:00       81.064      -42.479       41.672      105.740      140.785       80.231    11180.953    19820.371     6437.006        2.377        1.872       91.520       84.104        0.845      349.877       30.626      856.322
07/06/2013  12:38:00       77.506       12.369       59.231       74.616       47.951       49.463     5567.521     2299.254     2446.563        0.999        0.516       78.487       35.069        0.200      349.592       30.134      856.353
07/06/2013  12:39:00       95.247      -32.639       -4.842       91.594       52.711       31.388     8389.397     2778.460      985.207        1.115        0.608      100.684       20.226        0.040      349.151       29.368      856.349
07/06/2013  12:40:00       69.825      -46.606       19.102       86.818       82.332       40.870     7537.285     6778.553     1670.377        1.170        0.799       83.950       39.725        0.224      349.545       30.052      856.323
07/06/2013  12:41:00       75.203      -98.326       11.420       76.359       99.626       59.966     5830.681     9925.426     3595.890        1.740        0.968      123.788       75.129        0.368      349.682       30.289      856.352
07/06/2013  12:42:00     -140.833      -22.921        4.249      147.322       58.758       51.633    21703.838     3452.450     2665.937        2.409        1.391      142.686       71.472        0.251      349.787       30.470      856.365
07/06/2013  12:43:00     -290.223       -0.012      -27.623       93.068       59.873       37.782     8661.677     3584.761     1427.460        4.933        0.684      290.223       45.071        0.024      349.584       30.115      856.327
07/06/2013  12:44:00     -145.233      104.276      -18.935       91.967       63.102       45.961     8457.977     3981.835     2112.403        2.344        0.728      178.790       51.082        0.082      349.488       29.951      856.316
07/06/2013  12:45:00       -9.465       99.172        7.695       41.450       50.477       41.048     1718.125     2547.967     1684.934        0.797        0.298       99.623       30.488        0.094      350.145       31.094      856.283
07/06/2013  12:46:00      -25.813       79.067        5.696       36.052       60.559       39.276     1299.730     3667.393     1542.605        0.673        0.325       83.174       37.101        0.199      350.203       31.195      856.255
07/06/2013  12:47:00       -8.641       33.657        7.743       30.903       58.033       32.302      955.009     3367.839     1043.418        0.332        0.268       34.748       33.254        0.916      350.212       31.211      856.243
07/06/2013  12:48:00      -34.869      -35.348       11.880       52.320       42.585       29.997     2737.363     1813.477      899.825        0.403        0.273       49.652       26.914        0.294      350.364       31.474      856.244
07/06/2013  12:49:00      -67.751     -265.163       13.881      104.863      118.337       52.813    10996.146    14003.649     2789.252        5.144        1.389      273.682       51.274        0.035      349.773       30.443      856.215
07/06/2013  12:50:00     -181.239     -129.660       -5.039      105.700       81.397       41.102    11172.483     6625.461     1689.347        3.458        0.974      222.843       42.742        0.037      349.790       30.475      856.187
07/06/2013  12:51:00      -62.127      -80.214        0.052       49.246       66.988       34.324     2425.148     4487.329     1178.109        0.919        0.405      101.459       34.449        0.115      349.698       30.317      856.182
07/06/2013  12:52:00      -61.131      -70.145        4.337       40.293       71.733       20.933     1623.531     5145.589      438.211        0.794        0.360       93.045       10.652        0.013      349.934       30.726      856.172
07/06/2013  12:53:00      -36.204      -71.110       10.310       49.102       97.969       40.123     2410.992     9598.001     1609.895        1.004        0.681       79.796       38.096        0.228      349.903       30.675      856.166
07/06/2013  12:54:00       11.898       25.251       33.351       39.029       46.979       26.184     1523.300     2207.050      685.596        0.315        0.221       27.914       19.717        0.499      350.005       30.850      856.144
07/06/2013  12:55:00        4.089      -31.883        7.016       49.102       80.206       46.890     2410.994     6433.051     2198.672        0.606        0.552       32.144       47.654        2.198      349.886       30.643      856.115
07/06/2013  12:56:00      -86.923      -70.426        7.335       92.722       70.344       52.329     8597.374     4948.318     2738.333        1.442        0.814      111.872       43.455        0.151      350.123       31.055      856.121
07/06/2013  12:57:00      -61.255      -31.035       15.168       46.910       67.982       36.029     2200.528     4621.608     1298.086        0.653        0.406       68.668       28.464        0.172      350.058       30.942      856.114
07/06/2013  12:58:00      -86.546       -3.751       37.156      127.709       94.461       46.592    16309.506     8922.888     2170.802        1.814        1.370       86.628       54.862        0.401      350.313       31.385      856.118
07/06/2013  12:59:00     -233.250     -236.933      -10.107      180.861      108.438       69.918    32710.647    11758.759     4888.570        7.999        2.468      332.480       67.941        0.042      349.854       30.585      856.129
07/06/2013  13:00:00     -287.740     -156.367      -17.052      159.931       92.894       67.345    25578.052     8629.250     4535.323        7.313        1.937      327.483       83.787        0.065      349.759       30.419      856.128
07/06/2013  13:01:00     -117.808     -103.532       -2.023       61.788       67.801       38.612     3817.736     4596.956     1490.852        1.725        0.495      156.836       30.903        0.039      350.032       30.895      856.119
07/06/2013  13:02:00     -130.672      -73.317       13.172       94.276       95.767       52.570     8887.915     9171.409     2763.589        2.172        1.041      149.835       58.406        0.152      350.256       31.283      856.103
07/06/2013  13:03:00     -276.951     -188.736      -10.211      134.223      103.672       61.920    18015.715    10747.906     3834.051        7.251        1.630      335.146       71.132        0.045      349.831       30.545      856.094
07/06/2013  13:04:00     -257.743      -28.023       -2.547       93.579      129.557       53.368     8757.045    16785.141     2848.160        4.780        1.420      259.262       51.206        0.039      350.071       30.961      856.067
07/06/2013  13:05:00     -165.976     -162.297       -2.670       84.520       70.381       44.677     7143.656     4953.487     1996.018        3.399        0.705      232.139       46.564        0.040      350.159       31.114      856.076
07/06/2013  13:06:00     -133.035      -85.976       -8.699       87.699       94.264       42.075     7691.087     8885.788     1770.332        2.175        0.917      158.399       38.859        0.060      350.074       30.968      856.067
07/06/2013  13:07:00      -79.829      -42.287        7.290       67.219       64.174       35.917     4518.429     4118.241     1290.057        0.907        0.496       90.337       42.236        0.219      350.488       31.689      856.066
07/06/2013  13:08:00      -13.085      -25.305       20.811       45.837       51.624       28.374     2101.005     2664.999      805.084        0.341        0.279       28.488       15.817        0.308      350.808       32.247      856.065
07/06/2013  13:09:00      -59.076       15.446       -0.996       59.215       44.722       42.664     3506.402     2000.058     1820.213        0.553        0.366       61.062       17.384        0.081      350.313       31.387      856.049
07/06/2013  13:10:00      -25.053       -9.055       29.838       33.580       32.352       30.229     1127.635     1046.673      913.802        0.234        0.154       26.639       20.541        0.595      350.793       32.221      856.028
07/06/2013  13:11:00      -57.168      -48.652       -1.603       92.382       66.333       28.655     8534.385     4400.119      821.110        0.969        0.688       75.068       18.425        0.060      350.477       31.671      856.042
07/06/2013  13:12:00     -345.248       13.938      -15.628      202.126      122.747       60.902    40854.958    15066.838     3709.026        8.962        2.982      345.529       73.779        0.046      350.287       31.337      856.031
07/06/2013  13:13:00     -202.530     -128.169        5.360      173.099      101.313       72.801    29963.352    10264.256     5299.997        5.149        2.276      239.678       82.984        0.120      350.615       31.907      856.025
07/06/2013  13:14:00     -102.862     -201.591       -1.871      166.365      169.791       55.369    27677.311    28828.852     3065.775        5.539        2.979      226.317       48.123        0.045      350.389       31.514      856.014
07/06/2013  13:15:00      -85.873     -143.270        7.816      173.137      107.237       75.685    29976.322    11499.743     5728.210        3.757        2.360      167.034       54.155        0.105      350.354       31.454      855.991
07/06/2013  13:16:00     -298.781     -275.748       -7.054      183.714      142.912       89.396    33750.773    20423.915     7991.701       11.375        3.108      406.580       98.140        0.058      350.453       31.627      855.953
07/06/2013  13:17:00     -208.617     -255.934        1.091      166.899      143.014       80.753    27855.274    20453.071     6521.072        8.192        2.741      330.187       75.727        0.053      350.465       31.647      855.963
07/06/2013  13:18:00     -546.598     -310.613       -6.407      232.307      222.986      113.753    53966.550    49722.601    12939.769       25.594        5.831      628.689      129.011        0.042      350.152       31.101      855.953
07/06/2013  13:19:00     -492.325     -437.191       11.355      331.498      235.400      138.036   109890.831    55412.951    19054.018       30.897        9.218      658.423      170.223        0.067      350.033       30.895      855.918
07/06/2013  13:20:00     -448.448     -279.916        0.297      277.827      165.310      105.918    77188.039    27327.456    11218.683       19.757        5.787      528.638      118.463        0.050      350.259       31.288      855.965
07/06/2013  13:21:00     -329.260     -230.243      -12.921      223.180      191.971       93.392    49809.297    36852.873     8721.999       12.847        4.769      401.776      100.811        0.063      350.160       31.117      855.981
07/06/2013  13:22:00     -456.228     -179.507      -15.004      214.240      181.660       92.363    45898.741    33000.428     8530.876       16.399        4.372      490.272       97.984        0.040      350.170       31.133      855.985
07/06/2013  13:23:00     -202.883     -125.273       13.825      187.556      176.162       92.954    35177.409    31033.127     8640.411        6.593        3.743      238.443       88.735        0.138      350.245       31.264      855.989
07/06/2013  13:24:00     -354.224     -235.456       -0.977      232.117      155.957       87.903    53878.202    24322.644     7726.967       13.340        4.296      425.340       94.150        0.049      350.139       31.078      855.963
07/06/2013  13:25:00     -419.430     -279.507       -7.766      192.596      160.267       93.901    37093.221    25685.454     8817.443       16.284        3.580      504.029       82.616        0.027      350.062       30.945      855.907
07/06/2013  13:26:00     -414.424     -294.625      -11.203      272.434      187.569       93.690    74220.089    35182.144     8777.808       18.840        5.909      508.479      106.566        0.044      350.170       31.131      855.922
07/06/2013  13:27:00     -534.664     -360.790      -30.770      267.672      183.320      105.336    71648.384    33606.044    11095.764       26.664        5.818      645.008      108.308        0.028      349.933       30.722      855.875
07/06/2013  13:28:00     -560.343     -411.676        9.887      280.864      220.796      132.186    78884.402    48751.081    17473.215       31.430        7.255      695.314      145.105        0.044      349.942       30.738      855.885
07/06/2013  13:29:00     -425.970     -341.052      -16.063      252.061      229.100      109.416    63534.519    52487.016    11971.835       21.298        6.400      545.680      117.710        0.047      350.016       30.865      855.932
07/06/2013  13:30:00     -452.924     -314.305       -2.220      252.230      177.996      101.774    63620.146    31682.398    10357.885       20.478        5.283      551.297      110.823        0.040      350.024       30.879      855.941
07/06/2013  13:31:00     -511.989     -192.041      -35.604      230.092      212.566       97.528    52942.398    45184.150     9511.766       20.394        5.382      546.820      109.695        0.040      350.313       31.382      855.938
07/06/2013  13:32:00     -437.805     -234.376      -15.539      203.288      184.895       82.222    41325.872    34186.122     6760.430       16.454        4.114      496.594       80.163        0.026      350.147       31.093      855.911
07/06/2013  13:33:00     -392.851     -164.282        3.759      230.916      190.125       90.214    53322.094    36147.477     8138.634       13.945        4.880      425.817      114.378        0.072      350.361       31.464      855.901
07/06/2013  13:34:00     -555.647     -330.574       -7.897      263.097      214.020      107.342    69220.110    45804.575    11522.360       27.229        6.327      646.547      115.236        0.032      349.967       30.781      855.877
07/06/2013  13:35:00     -560.492     -385.394      -32.679      233.940      238.087      123.588    54727.903    56685.617    15274.085       29.519        6.334      680.206      128.182        0.036      349.927       30.710      855.877
07/06/2013  13:36:00     -537.535     -261.095       -5.204      320.149      278.327      113.607   102495.297    77465.829    12906.437       27.497        9.643      597.591      135.720        0.052      350.042       30.910      855.894
07/06/2013  13:37:00     -498.137     -324.145      -22.053      300.378      192.141      125.159    90226.907    36917.980    15664.690       24.822        7.140      594.315      161.081        0.073      350.000       30.838      855.925
07/06/2013  13:38:00     -333.032     -301.851        2.951      206.347      210.396      104.269    42579.134    44266.358    10872.107       14.986        4.886      449.471      110.532        0.060      350.039       30.905      855.940
07/06/2013  13:39:00     -570.734     -317.340      -35.996      260.159      153.589       96.581    67682.699    23589.536     9327.954       26.415        5.030      653.026      110.657        0.029      350.011       30.857      855.916
07/06/2013  13:40:00     -368.707     -122.717       -0.547      194.325      181.451       87.113    37762.061    32924.329     7588.717       11.462        3.914      388.593       86.494        0.050      350.230       31.237      855.941
07/06/2013  13:41:00     -485.977     -266.421      -28.787      246.774      176.703      101.144    60897.293    31223.863    10230.040       20.515        5.118      554.215       98.022        0.031      350.240       31.254      855.898
07/06/2013  13:42:00     -562.412     -380.234      -14.824      208.405      195.302      108.108    43432.508    38143.060    11687.433       27.716        4.663      678.885      109.821        0.026      350.220       31.220      855.931
07/06/2013  13:43:00     -359.118     -324.904       -0.207      245.887      221.192      102.954    60460.381    48925.862    10599.617       17.723        5.999      484.281      123.766        0.065      350.094       31.003      855.899
07/06/2013  13:44:00     -366.606     -312.067      -10.680      219.498      187.124       99.418    48179.301    35015.432     9883.936       16.247        4.654      481.442      115.295        0.057      350.306       31.370      855.911
07/06/2013  13:45:00     -520.263     -299.920      -16.218      225.197      237.256      109.512    50713.626    56290.372    11992.887       23.992        5.950      600.521      113.345        0.036      350.155       31.107      855.873
07/06/2013  13:46:00     -413.563     -303.831       -6.178      247.342      194.592      116.500    61178.000    37866.219    13572.207       18.798        5.631      513.174      118.234        0.053      350.327       31.407      855.855
07/06/2013  13:47:00     -628.669     -305.133      -11.238      321.945      271.178      120.334   103648.396    73537.731    14480.307       34.002        9.583      698.807      130.672        0.035      350.150       31.098      855.904
07/06/2013  13:48:00     -412.681     -153.544       -4.457      259.589      206.630       90.883    67386.567    42695.973     8259.718       15.610        5.917      440.320      100.875        0.052      349.899       30.663      855.957
07/06/2013  13:49:00     -259.763     -283.670       -2.883      226.097      198.784      104.652    51119.961    39514.981    10952.089       12.475        5.079      384.637      101.881        0.070      350.048       30.920      855.909
07/06/2013  13:50:00     -410.853     -116.084       -5.871      215.891      178.521      106.903    46608.925    31869.881    11428.213       13.609        4.495      426.938      100.893        0.056      350.198       31.182      855.894
07/06/2013  13:51:00     -422.300      -73.925       -5.980      221.911      189.531       90.963    49244.450    35922.166     8274.228       13.862        4.672      428.721      103.919        0.059      350.143       31.086      855.886
07/06/2013  13:52:00     -340.855     -231.796      -18.772      194.844      177.121       89.549    37964.029    31371.885     8019.005       12.379        3.868      412.203       80.769        0.038      350.132       31.067      855.867
07/06/2013  13:53:00     -277.209     -294.155        2.796      213.765      173.434       73.812    45695.581    30079.504     5448.263       12.229        4.061      404.193       77.268        0.037      350.274       31.313      855.856
07/06/2013  13:54:00     -388.408     -347.882      -11.178      205.714      170.192      107.083    42318.237    28965.363    11466.816       17.736        4.138      521.423      120.831        0.054      350.192       31.170      855.823
07/06/2013  13:55:00     -425.287     -193.905       -4.600      261.696      196.391      116.017    68484.824    38569.565    13459.833       16.948        6.026      467.406      119.410        0.065      350.283       31.329      855.792
07/06/2013  13:56:00     -233.953     -278.049       39.227      220.112      213.549       99.776    48449.144    45603.281     9955.270       11.878        5.200      363.381      125.927        0.120      350.440       31.603      855.849
07/06/2013  13:57:00     -225.289     -244.814        7.867      189.319      176.491       87.278    35841.816    31149.130     7617.427        9.266        3.730      332.700       89.404        0.072      350.534       31.767      855.831
07/06/2013  13:58:00     -291.945     -257.553       -7.476      219.532      216.973      104.887    48194.494    47077.412    11001.233       12.893        5.314      389.314      115.278        0.088      350.423       31.573      855.806
07/06/2013  13:59:00     -346.379     -346.475        5.148      343.180      286.664      127.147   117772.427    82176.247    16166.466       22.804       10.806      489.922      180.113        0.135      350.424       31.576      855.798
07/06/2013  14:00:00     -406.698     -225.122        8.813      254.673      183.189      103.453    64858.540    33558.346    10702.559       16.262        5.456      464.847      120.939        0.068      350.178       31.149      855.826
07/06/2013  14:01:00     -289.185     -189.245      -10.178      159.268      110.179       75.512    25366.161    12139.320     5702.123        8.137        2.160      345.603       69.882        0.041      350.308       31.372      855.807
07/06/2013  14:02:00     -193.456     -194.132       22.897      193.593      193.300       78.202    37478.429    37364.826     6115.627        7.828        4.048      274.066       90.651        0.109      350.492       31.694      855.780
07/06/2013  14:03:00     -465.676     -294.816      -11.039      225.104      213.140      106.373    50671.903    45428.770    11315.221       20.563        5.371      551.154      120.239        0.048      350.418       31.566      855.770
07/06/2013  14:04:00     -525.465     -316.417      -19.008      222.278      207.118       99.601    49407.684    42897.679     9920.416       23.939        5.111      613.378      108.350        0.031      350.287       31.337      855.801
07/06/2013  14:05:00     -473.656     -273.801       18.536      256.886      181.093      118.866    65990.668    32794.628    14129.240       20.626        5.646      547.098      139.154        0.065      350.184       31.158      855.809
07/06/2013  14:06:00     -441.490     -342.694      -21.965      210.047      167.661      103.365    44119.914    28110.046    10684.366       19.786        4.146      558.886      101.163        0.033      350.152       31.102      855.816
07/06/2013  14:07:00     -330.823     -183.925       -2.609      224.978      184.418       84.508    50615.162    34009.984     7141.600       11.750        4.588      378.513       96.641        0.065      350.311       31.378      855.808
07/06/2013  14:08:00     -389.230      -97.517      -16.022      246.922      170.474       98.225    60970.590    29061.476     9648.170       13.045        4.984      401.260      120.806        0.091      350.219       31.220      855.757
07/06/2013  14:09:00     -291.815      -64.023       11.427      161.336      152.139       80.795    26029.160    23146.132     6527.816        7.253        2.785      298.755       81.006        0.074      350.472       31.659      855.750
07/06/2013  14:10:00     -367.131     -143.614        2.621      150.574      146.458       73.508    22672.438    21449.971     5403.383       10.246        2.476      394.221       72.344        0.034      350.350       31.448      855.740
07/06/2013  14:11:00     -341.895     -225.743       14.307      180.435      142.447       78.459    32556.636    20291.186     6155.834       11.352        2.950      409.698       60.822        0.022      350.320       31.393      855.751
07/06/2013  14:12:00     -374.072      -77.255      -15.753      190.054      166.216       75.522    36120.639    27627.707     5703.498       10.779        3.473      381.966       75.270        0.039      350.340       31.429      855.717
07/06/2013  14:13:00     -511.110     -231.055      -11.625      275.141      282.255      114.923    75702.745    79667.616    13207.296       24.163        8.429      560.909      138.279        0.061      350.324       31.400      855.706
07/06/2013  14:14:00     -476.127     -208.773       21.549      300.914      254.131      136.468    90549.290    64582.451    18623.574       22.222        8.688      519.888      143.329        0.076      350.266       31.301      855.749
07/06/2013  14:15:00     -178.454     -222.466       17.619      184.419      152.836       91.863    34010.511    23358.904     8438.851        7.371        3.290      285.196       81.365        0.081      350.330       31.411      855.812
07/06/2013  14:16:00     -409.213     -198.006       -6.368      220.986      189.101      102.646    48834.782    35759.233    10536.229       15.090        4.757      454.601      118.210        0.068      350.195       31.177      855.816
07/06/2013  14:17:00     -507.717     -179.310       -9.259      275.709      202.447      106.969    76015.291    40984.665    11442.355       20.920        6.422      538.450      121.607        0.051      350.256       31.282      855.764
07/06/2013  14:18:00     -452.496     -244.728      -14.303      254.428      180.527       85.002    64733.637    32590.177     7225.257       18.468        5.227      514.436      104.543        0.041      350.350       31.447      855.785
07/06/2013  14:19:00     -540.613     -281.964      -19.840      259.712      218.971      113.274    67450.552    47948.338    12830.963       25.017        6.411      609.726      118.905        0.038      350.108       31.025      855.788
07/06/2013  14:20:00     -574.986     -409.500       -5.793      255.483      180.967      129.062    65271.640    32749.162    16656.910       30.648        5.734      705.903      143.717        0.041      349.942       30.736      855.786
07/06/2013  14:21:00     -457.499     -311.732      -33.175      211.581      243.198      104.813    44766.612    59145.391    10985.699       21.122        5.745      553.609       99.066        0.032      350.084       30.984      855.763
07/06/2013  14:22:00     -394.567     -303.328       19.240      278.906      206.823      112.393    77788.802    42775.911    12632.142       19.060        6.660      497.686      134.645        0.073      350.217       31.214      855.735
07/06/2013  14:23:00     -447.481     -406.401       -3.893      279.581      210.776      115.215    78165.283    44426.496    13274.411       25.061        6.793      604.484      120.376        0.040      350.298       31.356      855.772
07/06/2013  14:24:00     -372.229     -219.565        0.427      225.640      160.349       96.802    50913.289    25711.664     9370.703       13.636        4.300      432.161       99.041        0.053      350.302       31.362      855.785
07/06/2013  14:25:00     -297.531     -233.380       -7.274      120.911      133.880       65.847    14619.362    17923.963     4335.811        8.995        1.844      378.142       64.519        0.029      350.210       31.203      855.782
07/06/2013  14:26:00     -367.279      -87.616        1.005      235.060      176.527       99.867    55253.249    31161.948     9973.422       11.946        4.819      377.585      121.989        0.104      350.416       31.560      855.778
07/06/2013  14:27:00     -577.383     -392.667      -14.461      234.722      229.490      114.642    55094.557    52665.853    13142.695       30.431        6.045      698.254      127.736        0.033      350.001       30.840      855.759
07/06/2013  14:28:00     -455.544     -357.940       -8.275      314.129      210.094      127.727    98676.913    44139.470    16314.309       24.739        7.957      579.345      148.545        0.066      350.113       31.033      855.769
07/06/2013  14:29:00     -387.234      -98.626      -12.274      280.236      154.593      114.617    78532.024    23899.086    13137.042       13.767        5.778      399.597      135.299        0.115      350.309       31.375      855.780
07/06/2013  14:30:00     -404.365     -152.812       -5.567      167.337      158.239       87.753    28001.777    25039.482     7700.645       12.381        3.037      432.276       77.564        0.032      350.321       31.396      855.796
07/06/2013  14:31:00     -347.791     -139.521      -11.155      241.459      191.555       96.907    58302.575    36693.372     9390.952       12.245        5.219      374.733      113.893        0.092      350.229       31.237      855.795
07/06/2013  14:32:00     -450.078     -266.386        4.932      287.221      221.968      113.259    82495.779    49270.013    12827.597       20.905        7.230      523.003      143.937        0.076      350.336       31.423      855.798
07/06/2013  14:33:00     -289.980     -282.668        9.923      268.065      167.751      105.251    71858.763    28140.412    11077.854       13.756        5.554      404.956      129.978        0.103      350.175       31.142      855.812
07/06/2013  14:34:00     -257.002     -228.274        7.281      184.618      201.858       76.665    34083.756    40746.840     5877.523        9.944        4.035      343.743       88.424        0.066      350.338       31.427      855.826
07/06/2013  14:35:00     -141.008     -216.150      -17.362      140.825      152.646       85.742    19831.742    23300.918     7351.703        5.868        2.524      258.078       74.269        0.083      350.375       31.490      855.861
07/06/2013  14:36:00     -228.318     -392.182        0.707      203.668      183.014      104.319    41480.551    33494.229    10882.556       14.588        4.293      453.801       97.066        0.046      350.207       31.197      855.898
07/06/2013  14:37:00     -299.905     -385.427      -34.660      201.703      241.012      109.320    40684.190    58086.582    11950.916       17.519        5.536      488.362      127.599        0.068      350.125       31.056      855.854
07/06/2013  14:38:00     -125.930     -238.069      -32.133      153.817      107.874       79.366    23659.707    11636.867     6299.037        5.757        2.080      269.324       34.803        0.017      350.221       31.221      855.844
07/06/2013  14:39:00     -292.235     -330.840      -29.848      189.689      218.573      110.985    35981.803    47774.352    12317.583       14.589        4.804      441.425      108.313        0.060      350.047       30.919      855.841
07/06/2013  14:40:00     -263.102     -280.281       -2.926      143.483      153.061       80.322    20587.379    23427.603     6451.646        9.912        2.523      384.422       75.711        0.039      350.047       30.919      855.797
07/06/2013  14:41:00     -140.146     -224.433        6.150      200.644      128.565       98.552    40258.069    16529.007     9712.431        6.826        3.325      264.596       83.992        0.101      350.280       31.325      855.842
07/06/2013  14:42:00      -78.930     -263.532        9.727      198.576      143.138       77.756    39432.379    20488.544     6045.940        7.086        3.298      275.099       57.735        0.044      350.203       31.190      855.802
07/06/2013  14:43:00      -87.817     -168.344      -10.617      140.318      157.840       74.678    19689.183    24913.339     5576.873        4.316        2.509      189.872       70.239        0.137      350.330       31.411      855.753
07/06/2013  14:44:00       50.528     -188.277       13.624      169.932      143.295       81.929    28876.806    20533.446     6712.419        4.714        2.806      194.939       77.408        0.158      350.452       31.623      855.737
07/06/2013  14:45:00     -130.304     -143.618        5.838      149.326      157.789       69.003    22298.319    24897.427     4761.448        4.479        2.598      193.920       76.059        0.154      350.453       31.627      855.731
07/06/2013  14:46:00     -158.500     -167.240        1.036      170.205      110.366       73.559    28969.825    12180.666     5410.918        4.982        2.328      230.415       45.301        0.039      350.484       31.679      855.725
07/06/2013  14:47:00     -189.295     -205.152       -8.460      177.407      182.640       78.059    31473.213    33357.298     6093.170        7.444        3.546      279.142       91.958        0.109      350.654       31.976      855.745
07/06/2013  14:48:00     -139.948     -175.637       14.860      186.605      161.898       71.854    34821.387    26210.920     5163.025        5.841        3.310      224.574       60.091        0.072      350.486       31.682      855.740
07/06/2013  14:49:00       45.684     -284.326       14.412      211.551      200.022      115.041    44753.901    40008.989    13234.344        9.055        4.900      287.973      116.389        0.163      350.362       31.466      855.703
07/06/2013  14:50:00      -34.335     -220.085        3.126      135.599      139.838       89.465    18387.004    19554.726     8004.040        4.778        2.297      222.748       65.792        0.087      350.424       31.574      855.684
07/06/2013  14:51:00     -149.442     -207.918      -12.323      139.142      154.551       79.209    19360.422    23885.893     6274.097        5.761        2.476      256.052       67.202        0.069      350.471       31.657      855.704
07/06/2013  14:52:00      -95.814     -253.491        0.613      158.984      118.333       78.688    25275.990    14002.615     6191.792        5.945        2.274      270.994       80.518        0.088      350.434       31.592      855.711
07/06/2013  14:53:00     -130.323     -266.890      -21.988      120.056      130.899       75.478    14413.368    17134.482     5696.958        6.296        1.862      297.009       55.270        0.035      350.371       31.482      855.706
07/06/2013  14:54:00       -6.081      -74.370       14.745      151.192       95.981       55.951    22858.941     9212.271     3130.538        2.049        1.760       74.618       54.856        0.540      350.716       32.085      855.630
07/06/2013  14:55:00     -183.127     -215.914       -6.532      272.375      176.126       88.127    74188.071    31020.484     7766.424        9.656        5.649      283.115       84.838        0.090      350.458       31.634      855.632
07/06/2013  14:56:00     -402.917     -270.408        9.781      196.135      171.838       85.125    38468.829    29528.272     7246.313       15.539        3.762      485.245       91.179        0.035      350.276       31.318      855.712
07/06/2013  14:57:00     -171.593     -258.597        6.633      167.648      165.419       79.552    28105.812    27363.400     6328.589        7.907        3.090      310.349       72.395        0.054      350.499       31.705      855.752
07/06/2013  14:58:00     -170.264     -304.333       -2.346      112.862      142.227       72.705    12737.798    20228.415     5285.966        7.993        1.913      348.724       51.267        0.022      350.265       31.299      855.763
07/06/2013  14:59:00      -75.966     -124.407       -6.005      144.633      112.878       54.287    20918.749    12741.438     2947.090        2.894        1.830      145.766       53.859        0.137      350.436       31.597      855.695
07/06/2013  15:00:00     -136.235     -264.102      -13.922       93.875      109.148       58.782     8812.582    11913.254     3455.284        5.634        1.209      297.170       50.860        0.029      350.249       31.270      855.659
07/06/2013  15:01:00      -40.646     -136.913       12.186      127.367      130.292       67.523    16222.477    16975.924     4559.404        2.914        1.888      142.819       50.812        0.127      350.506       31.719      855.640
07/06/2013  15:02:00        3.836     -197.627      -14.360      183.128      147.411       91.590    33535.719    21729.879     8388.817        5.145        3.183      197.665       67.608        0.117      350.449       31.620      855.616
07/06/2013  15:03:00      -65.761     -159.316       10.023      158.315      133.861       68.959    25063.704    17918.648     4755.412        3.876        2.387      172.354       49.045        0.081      350.601       31.883      855.636
07/06/2013  15:04:00      -64.586     -111.029      -28.574       80.534      113.218       53.821     6485.763    12818.217     2896.659        1.975        1.110      128.448       49.882        0.151      350.720       32.093      855.623
07/06/2013  15:05:00       56.016     -112.192       13.548      106.146      154.255       71.029    11267.041    23794.620     5045.186        2.800        2.005      125.399       83.241        0.441      350.403       31.541      855.613
07/06/2013  15:06:00      -84.002     -159.344        8.284       92.992      112.938       58.020     8647.491    12754.930     3366.262        2.864        1.238      180.130       61.209        0.115      350.808       32.244      855.652
07/06/2013  15:07:00     -239.463     -173.426       -8.172      148.284      149.565       57.894    21988.213    22369.595     3351.719        6.759        2.385      295.667       56.847        0.037      350.728       32.104      855.632
07/06/2013  15:08:00     -416.673     -107.077      -12.659      206.616      168.160       88.438    42690.016    28277.912     7821.202       13.200        3.939      430.211      107.069        0.062      350.374       31.487      855.641
07/06/2013  15:09:00     -274.112     -104.988      -31.551      118.653      152.684       71.529    14078.468    23312.442     5116.399        6.482        2.125      293.530       45.060        0.024      350.200       31.186      855.667
07/06/2013  15:10:00     -335.368     -138.711       -8.311      164.226      132.057       64.241    26970.159    17439.014     4126.891        9.015        2.427      362.922       38.238        0.011      350.337       31.422      855.539
07/06/2013  15:11:00      -99.003      -86.566       17.374      112.489       79.007       42.893    12653.744     6242.164     1839.834        1.916        1.037      131.511       48.792        0.138      350.653       31.975      855.525
07/06/2013  15:12:00     -237.531     -252.368       -4.635      204.388      133.118       84.783    41774.444    17720.505     7188.173        9.339        3.334      346.570       84.812        0.060      350.815       32.258      855.522
07/06/2013  15:13:00     -282.994     -226.775       -2.121      246.120      202.196       84.111    60575.217    40883.233     7074.587       12.000        5.427      362.646       97.792        0.073      350.707       32.070      855.570
07/06/2013  15:14:00     -380.356     -432.788       -9.272      289.679      211.990      111.499    83914.008    44939.923    12432.092       23.665        7.064      576.173      103.328        0.032      350.058       30.938      855.585
07/06/2013  15:15:00      -70.775     -247.471        3.932      125.602      105.617       62.588    15775.985    11154.877     3917.224        4.855        1.542      257.393       62.885        0.060      350.161       31.118      855.605
07/06/2013  15:16:00      -85.613     -186.071        6.789      105.707      168.664       47.641    11173.925    28447.471     2269.687        4.194        2.095      204.822       51.085        0.062      350.431       31.589      855.578
07/06/2013  15:17:00     -254.071     -165.670       -2.611      205.731      114.222       59.209    42325.309    13046.722     3505.706        7.543        2.944      303.313       46.228        0.023      350.409       31.549      855.550
07/06/2013  15:18:00     -373.715     -180.973       -7.482      199.546      147.631       69.843    39818.511    21794.934     4878.042       11.947        3.325      415.227       69.963        0.028      350.221       31.223      855.557
07/06/2013  15:19:00     -356.328      -46.577        8.752      262.709      160.892      109.176    69016.106    25886.089    11919.363       11.800        5.341      359.359      131.220        0.133      350.339       31.429      855.505
07/06/2013  15:20:00     -393.189     -268.630       -6.181      228.786      179.273      109.982    52342.997    32138.754    12096.001       16.167        4.829      476.193      117.860        0.061      350.223       31.225      855.496
07/06/2013  15:21:00     -171.536      -67.791       13.654      162.842      129.035       79.071    26517.568    16649.931     6252.253        4.180        2.471      184.446       93.246        0.256      350.428       31.583      855.504
07/06/2013  15:22:00     -132.306     -172.328       19.033      139.675      123.859       81.705    19509.116    15340.986     6675.680        4.454        2.076      217.259       83.885        0.149      350.549       31.793      855.499
07/06/2013  15:23:00     -206.012     -210.183        6.525      205.190      138.853       95.674    42103.063    19280.274     9153.583        7.858        3.527      294.309       97.409        0.110      350.507       31.718      855.494
07/06/2013  15:24:00     -393.762     -275.589        0.649      245.577      185.453      116.952    60307.992    34392.998    13677.823       16.967        5.419      480.623      125.274        0.068      350.356       31.458      855.481
07/06/2013  15:25:00     -533.481     -310.578      -10.144      255.094      226.991      119.815    65072.952    51525.121    14355.732       25.603        6.548      617.301      115.877        0.035      350.197       31.180      855.479
07/06/2013  15:26:00     -331.629     -278.466       -1.149      212.120      125.237       87.079    44994.727    15684.278     7582.827       12.788        3.413      433.037       94.607        0.048      350.150       31.100      855.576
07/06/2013  15:27:00     -303.919     -213.210       -6.667      167.792      138.175       76.130    28154.254    19092.194     5795.820        9.545        2.652      371.248       82.213        0.049      350.183       31.155      855.535
07/06/2013  15:28:00     -305.553     -212.043       -0.850      130.178      166.154       75.492    16946.335    27607.132     5699.090        9.428        2.513      371.921       64.518        0.030      350.263       31.295      855.484
07/06/2013  15:29:00     -253.920     -151.641       -5.687      163.660      129.408       70.300    26784.693    16746.467     4942.103        6.798        2.424      295.754       80.358        0.074      350.439       31.602      855.473
07/06/2013  15:30:00      -80.076      -96.220       16.112       98.875       66.840       50.961     9776.208     4467.650     2597.007        1.638        0.842      125.182       52.024        0.173      350.513       31.732      855.468
07/06/2013  15:31:00     -156.867     -112.065        9.951      143.546      103.736       64.610    20605.461    10761.170     4174.432        3.640        1.777      192.784       72.452        0.141      350.563       31.818      855.463
07/06/2013  15:32:00     -285.883      -79.172       -3.663      169.514       95.797       68.286    28734.948     9177.051     4662.979        6.528        2.129      296.643       83.225        0.079      350.408       31.546      855.415
07/06/2013  15:33:00     -161.287     -104.724       -6.136      123.428      111.120       55.680    15234.382    12347.596     3100.217        3.384        1.534      192.304       37.677        0.038      350.238       31.252      855.364
07/06/2013  15:34:00     -284.351     -114.830      -14.850      167.435      122.151       59.149    28034.515    14920.974     3498.558        7.035        2.323      306.662       64.269        0.044      350.219       31.218      855.363
07/06/2013  15:35:00     -313.803     -154.996       -5.584      192.627      142.642       89.645    37105.215    20346.747     8036.165        9.399        3.274      349.995       90.895        0.067      350.487       31.683      855.438
07/06/2013  15:36:00     -495.394     -383.713      -10.941      227.176      214.360      112.416    51608.986    45950.424    12637.342       25.146        5.510      626.618      106.534        0.029      350.334       31.417      855.424
07/06/2013  15:37:00     -320.114     -244.924       -1.538      194.533      134.428       94.688    37843.165    18070.848     8965.851       11.366        3.244      403.064      108.411        0.072      350.460       31.638      855.463
07/06/2013  15:38:00     -409.127     -179.163      -10.155      155.151      135.611       75.120    24071.916    18390.251     5643.011       12.384        2.405      446.637       82.508        0.034      350.315       31.386      855.485
07/06/2013  15:39:00     -305.308     -272.977        2.770      192.517      148.324       91.060    37062.742    22000.102     8291.909       11.753        3.368      409.548       99.576        0.059      350.199       31.184      855.476
07/06/2013  15:40:00     -231.439     -156.246       20.360      208.352      153.251       81.327    43410.572    23485.974     6614.106        7.594        3.676      279.243       93.071        0.111      350.475       31.665      855.461
07/06/2013  15:41:00     -156.759     -100.249       35.642      176.419      179.618       94.146    31123.704    32262.705     8863.443        5.406        3.612      186.073      103.210        0.308      350.667       31.998      855.456
07/06/2013  15:42:00     -214.187     -182.980       -9.813      176.079      192.118       82.409    31003.846    36909.512     6791.213        7.706        3.735      281.705       92.131        0.107      350.393       31.520      855.484
07/06/2013  15:43:00     -261.747     -181.395       -4.257      292.762      223.450       89.837    85709.417    49929.736     8070.640       12.254        7.185      318.459       88.112        0.077      350.329       31.409      855.408
07/06/2013  15:44:00     -366.341     -305.503       -1.887      186.911      156.140      101.196    34935.600    24379.702    10240.687       14.853        3.478      477.009       91.198        0.037      350.251       31.273      855.416
07/06/2013  15:45:00     -312.082     -164.732        5.553      193.309      175.806       90.284    37368.478    30907.782     8151.171       10.048        3.821      352.891       89.685        0.065      350.365       31.472      855.419
07/06/2013  15:46:00     -337.171     -217.667        3.733      197.048      166.162       88.840    38827.844    27609.879     7892.563       11.769        3.717      401.327       84.725        0.045      350.205       31.194      855.351
07/06/2013  15:47:00     -240.530      -70.627        3.499      201.245      109.706       77.604    40499.381    12035.379     6022.457        6.069        2.928      250.685       93.847        0.140      350.562       31.816      855.327
07/06/2013  15:48:00     -214.096     -139.575        0.817      146.083      135.029       79.054    21340.281    18232.736     6249.487        5.556        2.291      255.574       72.218        0.080      350.744       32.130      855.370
07/06/2013  15:49:00     -439.151      -22.082      -13.230      183.525      153.763       84.446    33681.567    23643.006     7131.097       12.897        3.223      439.706       88.240        0.040      350.583       31.851      855.397
07/06/2013  15:50:00     -355.962      -23.778      -20.345      199.914      151.763       71.835    39965.797    23031.861     5160.282        9.791        3.408      356.755       75.158        0.044      350.663       31.992      855.380
07/06/2013  15:51:00     -355.548     -303.811       -6.713      262.776      177.069      113.139    69051.005    31353.271    12800.502       16.596        5.660      467.671      123.085        0.069      350.466       31.648      855.376
07/06/2013  15:52:00     -266.930     -102.826       13.730      166.853      149.122       76.924    27839.930    22237.223     5917.358        6.899        2.800      286.051       96.471        0.114      350.416       31.560      855.374
07/06/2013  15:53:00     -237.006      -27.660       -1.085      146.164      130.390       77.301    21363.864    17001.625     5975.473        5.063        2.217      238.615       76.235        0.102      350.502       31.711      855.372
07/06/2013  15:54:00     -406.493     -342.802       -4.812      199.398      163.647       97.977    39759.687    26780.423     9599.589       17.944        3.807      531.742       95.046        0.032      350.296       31.353      855.334
07/06/2013  15:55:00     -322.851     -295.087      -14.913      158.010      142.620       82.910    24967.281    20340.363     6874.118       12.185        2.609      437.388       90.289        0.043      350.454       31.626      855.314
07/06/2013  15:56:00     -342.856     -157.578       -9.004      193.360      136.970       71.742    37388.112    18760.730     5146.850       10.187        3.065      377.334       68.182        0.033      350.639       31.951      855.337
07/06/2013  15:57:00     -348.472      -56.674        6.299      238.460      125.697       87.043    56863.410    15799.633     7576.479       10.245        4.012      353.051      104.273        0.087      350.611       31.900      855.355
07/06/2013  15:58:00     -494.089     -147.777      -20.113      244.094      169.069       95.153    59581.742    28584.334     9054.045       18.177        4.861      515.716      110.663        0.046      350.494       31.696      855.368
07/06/2013  15:59:00     -274.622     -164.121       20.509      239.626      222.164      117.151    57420.696    49356.785    13724.331       11.161        6.025      319.927      153.981        0.232      350.570       31.830      855.360
07/06/2013  16:00:00     -432.630     -149.791       -9.945      242.355      197.485       92.363    58735.955    39000.165     8530.899       15.797        5.313      457.828      102.598        0.050      350.349       31.445      855.361
07/06/2013  16:01:00     -270.332      -27.712        4.879      251.297      140.678       95.214    63150.335    19790.165     9065.627        8.292        4.600      271.749      115.155        0.180      350.714       32.080      855.383
07/06/2013  16:02:00     -437.001     -138.751       14.454      305.686      146.309       96.853    93443.987    21406.202     9380.580       16.731        6.212      458.499      134.009        0.085      350.536       31.770      855.349
07/06/2013  16:03:00     -298.222     -154.744       16.291      238.570      208.342      111.764    56915.783    43406.471    12491.269       11.296        5.641      335.979      136.294        0.165      350.567       31.824      855.361
07/06/2013  16:04:00     -531.185     -361.320       -8.728      277.296      212.130      130.326    76892.941    44999.188    16984.804       27.580        6.944      642.425      147.382        0.053      350.293       31.347      855.334
07/06/2013  16:05:00     -390.177     -230.885       -2.916      243.210      215.201       89.724    59150.955    46311.564     8050.439       15.951        5.676      453.372      118.806        0.069      350.279       31.324      855.319
07/06/2013  16:06:00     -147.107     -113.100       23.049      127.442      105.472       70.801    16241.374    11124.283     5012.725        3.366        1.619      185.559       65.572        0.125      350.547       31.790      855.285
07/06/2013  16:07:00     -364.517      -78.073       -7.918      203.754      193.099       79.351    41515.716    37287.185     6296.580       11.205        4.255      372.784       90.980        0.060      350.572       31.833      855.289
07/06/2013  16:08:00     -244.038     -150.620        7.996      183.893      106.573       62.447    33816.698    11357.700     3899.634        6.568        2.454      286.777       70.432        0.060      350.173       31.139      855.307
07/06/2013  16:09:00     -198.610        2.284       -2.209      123.740       79.429       47.007    15311.478     6308.929     2209.638        3.164        1.192      198.623       55.207        0.077      350.309       31.375      855.278
07/06/2013  16:10:00     -491.514      -28.861      -25.957      250.973      174.015       88.418    62987.212    30281.375     7817.745       17.207        5.054      492.360      111.043        0.051      350.419       31.566      855.249
07/06/2013  16:11:00     -457.323     -149.956        9.532      253.112      249.365       97.057    64065.464    62182.873     9420.051       18.367        6.783      481.281      108.452        0.051      350.500       31.706      855.274
07/06/2013  16:12:00     -419.831     -314.548      -23.531      205.381      132.194       86.519    42181.510    17475.202     7485.456       17.143        3.357      524.593       78.521        0.022      350.346       31.440      855.297
07/06/2013  16:13:00     -240.834     -198.505       11.285      228.070      167.377      103.399    52016.019    28015.215    10691.291        9.411        4.536      312.098      120.454        0.149      350.276       31.318      855.320
07/06/2013  16:14:00     -372.127        2.725      -10.472      237.181      166.598       89.441    56254.995    27754.831     7999.708       11.528        4.600      372.136      119.195        0.103      350.368       31.477      855.285
07/06/2013  16:15:00     -371.801      -69.351      -23.748      180.425      120.569       85.016    32553.232    14536.980     7227.728        9.895        2.716      378.214       84.551        0.050      350.541       31.778      855.215
07/06/2013  16:16:00     -391.740      -44.056      -17.225      135.661      164.041       82.456    18403.796    26909.514     6799.028       10.389        2.606      394.209       71.186        0.033      350.526       31.752      855.223
07/06/2013  16:17:00     -316.437      -95.437        2.416      286.476      192.349       94.858    82068.494    36998.170     8998.046       11.863        6.403      330.516      122.342        0.137      350.480       31.673      855.183
07/06/2013  16:18:00     -373.156     -199.637      -21.286      188.718      151.539       76.734    35614.553    22963.919     5888.105       12.200        3.223      423.202       79.824        0.036      350.421       31.569      855.179
07/06/2013  16:19:00     -386.203       -7.705      -14.296      171.753      165.655       86.054    29499.061    27441.520     7405.269       10.687        3.217      386.280       81.804        0.045      350.530       31.759      855.208
07/06/2013  16:20:00     -221.821     -141.413        5.066      167.086      146.936       75.103    27917.690    21590.144     5640.418        6.218        2.757      263.063       69.821        0.070      350.553       31.798      855.216
07/06/2013  16:21:00     -393.455     -259.625        0.842      331.373      226.106      132.296   109808.171    51123.800    17502.248       20.029        8.922      471.394      151.276        0.103      350.297       31.354      855.147
07/06/2013  16:22:00     -445.962     -273.484       -4.770      206.249      210.054      103.142    42538.789    44122.867    10638.263       18.548        4.865      523.141      101.514        0.038      350.245       31.263      855.179
07/06/2013  16:23:00     -358.207     -113.608       -1.957      203.740      187.783       92.957    41510.151    35262.484     8640.997       11.330        4.271      375.791       96.610        0.066      350.472       31.657      855.194
07/06/2013  16:24:00     -394.762     -244.640        2.688      281.767      245.639      117.105    79392.525    60338.522    13713.513       18.454        7.672      464.420      139.019        0.090      350.181       31.152      855.174
07/06/2013  16:25:00     -296.817     -158.946       -5.711      188.070      147.549       75.984    35370.254    21770.787     5773.637        8.814        3.146      336.696       86.895        0.067      350.320       31.393      855.182
07/06/2013  16:26:00     -282.979     -199.690       -1.984      230.770      164.504      102.797    53254.667    27061.455    10567.315       10.540        4.544      346.342      123.157        0.126      350.370       31.482      855.181
07/06/2013  16:27:00     -387.974     -126.678       -9.464      274.443      178.083      100.691    75318.854    31713.591    10138.643       14.189        5.859      408.131      121.746        0.089      350.339       31.426      855.203
07/06/2013  16:28:00     -368.513     -168.585       -5.205      205.460      198.499       97.991    42213.927    39401.709     9602.229       12.772        4.561      405.244      106.186        0.069      350.159       31.115      855.193
07/06/2013  16:29:00     -473.656     -250.298      -17.041      266.928      201.362      123.669    71250.339    40546.594    15293.994       20.716        6.355      535.723      127.759        0.057      350.161       31.117      855.185
07/06/2013  16:30:00     -380.076     -106.229       -3.059      237.999      185.054       85.785    56643.750    34245.129     7359.106       12.698        4.912      394.642      104.056        0.070      350.227       31.232      855.226
07/06/2013  16:31:00      -88.745     -181.780       27.907      155.097      141.388       79.734    24054.946    19990.611     6357.500        4.604        2.520      202.286       55.804        0.076      350.399       31.532      855.226
07/06/2013  16:32:00     -286.883      -45.963        7.686      238.214      198.239       96.345    56745.807    39298.540     9282.449        9.488        5.266      290.541      107.345        0.137      350.375       31.492      855.180
07/06/2013  16:33:00     -383.013      -80.565      -14.080      199.015      156.535       78.710    39606.952    24503.077     6195.285       11.183        3.515      391.395       85.942        0.048      350.254       31.279      855.184
07/06/2013  16:34:00     -230.346      -31.393       11.798      181.528      147.354       94.202    32952.383    21713.260     8874.044        5.885        3.177      232.475       94.913        0.167      350.446       31.613      855.170
07/06/2013  16:35:00     -313.008     -135.996        4.109      193.624      180.716       90.534    37490.198    32658.215     8196.440        9.740        3.917      341.276       96.844        0.081      350.517       31.736      855.180
07/06/2013  16:36:00     -434.178      -79.170       -6.360      234.720      209.310      106.608    55093.693    43810.529    11365.268       15.252        5.513      441.337      117.953        0.071      350.306       31.370      855.176
07/06/2013  16:37:00     -386.550     -239.081       -7.392      274.747      220.105      118.328    75486.183    48446.239    14001.632       17.226        6.897      454.512      132.080        0.084      350.178       31.148      855.157
07/06/2013  16:38:00     -312.466     -134.624      -10.973      171.513      169.375       82.574    29416.808    28687.899     6818.425        9.039        3.246      340.234       68.570        0.041      350.253       31.277      855.178
07/06/2013  16:39:00     -442.819     -221.730      -37.351      231.124      196.812       98.673    53418.184    38735.085     9736.442       17.425        5.094      495.230      105.049        0.045      350.231       31.240      855.177
07/06/2013  16:40:00     -442.897     -274.138      -21.470      194.487      162.119       89.186    37825.311    26282.454     7954.063       17.190        3.603      520.874       93.420        0.032      350.202       31.190      855.161
07/06/2013  16:41:00     -293.557     -229.204       14.131      193.617      160.351      103.401    37487.362    25712.326    10691.752       10.639        3.695      372.439      103.551        0.077      350.211       31.204      855.163
07/06/2013  16:42:00     -330.050     -151.415        1.233      193.391      152.360       86.718    37400.242    23213.602     7520.072        9.998        3.407      363.125      104.592        0.083      350.221       31.221      855.159
07/06/2013  16:43:00     -428.145       20.833      -18.697      260.680      151.489       91.806    67953.920    22948.806     8428.363       14.169        4.967      428.651       99.383        0.054      350.236       31.248      855.136
07/06/2013  16:44:00     -299.257     -248.228       -0.705      238.859      230.633      100.819    57053.768    53191.467    10164.549       13.577        6.020      388.808      124.101        0.102      350.178       31.147      855.115
07/06/2013  16:45:00     -410.548      -94.149       -5.539      207.328      178.029       93.865    42984.906    31694.305     8810.586       13.045        4.174      421.205      102.265        0.059      350.144       31.087      855.135
07/06/2013  16:46:00     -493.787      -58.977      -25.566      199.080      153.929       86.506    39632.813    23694.125     7483.352       15.937        3.541      497.297       86.824        0.030      350.341       31.429      855.194
07/06/2013  16:47:00     -544.652     -119.403      -22.746      234.060      174.623       90.680    54784.225    30493.345     8222.863       20.244        4.675      557.587       89.996        0.026      350.295       31.351      855.230
07/06/2013  16:48:00     -193.158     -109.035        8.464       97.557      115.431       63.947     9517.314    13324.284     4089.225        3.810        1.347      221.807       47.414        0.046      350.510       31.726      855.233
07/06/2013  16:49:00     -135.683     -117.071       28.070      194.787      146.529       84.647    37942.122    21470.762     7165.047        4.973        3.329      179.208       94.645        0.279      350.567       31.825      855.214
07/06/2013  16:50:00     -323.852     -302.585        2.039      197.919      200.194      113.366    39171.839    40077.787    12851.933       14.425        4.605      443.213      127.109        0.082      350.160       31.116      855.272
07/06/2013  16:51:00     -466.132     -243.866      -10.244      264.160      190.639      107.013    69780.374    36343.411    11451.865       19.719        5.879      526.070      125.232        0.057      350.137       31.076      855.360
07/06/2013  16:52:00     -475.045     -253.459      -29.443      259.309      178.821      118.690    67241.066    31977.029    14087.334       20.202        5.665      538.433      119.183        0.049      349.878       30.626      855.351
07/06/2013  16:53:00     -299.978     -176.614      -12.423      166.739      137.529       67.617    27801.911    18914.223     4572.037        8.630        2.564      348.108       70.278        0.041      350.096       31.003      855.352
07/06/2013  16:54:00     -509.256     -139.264      -20.950      234.759      163.797       97.303    55112.018    26829.474     9467.783       18.527        4.570      527.955      112.021        0.045      349.991       30.822      855.342
07/06/2013  16:55:00     -401.872       16.946       -6.483      274.279      222.218      106.978    75228.784    49380.946    11444.288       14.891        6.803      402.229      119.501        0.088      350.087       30.989      855.282
07/06/2013  16:56:00     -537.563      -41.179      -10.701      245.029      153.115       97.924    60039.329    23444.183     9589.188       19.191        4.654      539.138      114.462        0.045      350.105       31.022      855.225
07/06/2013  16:57:00     -310.344     -219.046       13.626      256.734      247.384       89.527    65912.405    61198.671     8015.140       13.978        6.756      379.861       86.671        0.052      350.175       31.142      855.253
07/06/2013  16:58:00     -404.545      -32.717      -11.074      187.340      206.203       81.667    35096.189    42519.679     6669.519       12.455        4.214      405.866       89.006        0.048      350.151       31.100      855.222
07/06/2013  16:59:00     -215.409     -163.442       12.992      231.879      149.849       98.055    53767.712    22454.603     9614.722        7.954        4.292      270.397      107.240        0.157      350.240       31.255      855.224
07/06/2013  17:00:00     -394.566     -231.719      -10.676      195.944      181.055       89.306    38393.988    32780.801     7975.630       14.430        3.958      457.576       80.596        0.031      350.157       31.110      855.286
07/06/2013  17:01:00     -370.040     -155.540       -6.876      201.013      133.540       88.219    40406.101    17832.900     7782.531       11.358        3.301      401.400       88.432        0.049      350.262       31.294      855.271
07/06/2013  17:02:00     -291.957     -179.079       13.372      192.884      169.141       87.827    37204.054    28608.820     7713.668        9.549        3.676      342.503       95.747        0.078      350.049       30.922      855.331
07/06/2013  17:03:00     -411.343     -218.200       -0.731      185.862      167.167       90.087    34544.781    27944.824     8115.692       14.370        3.530      465.633       95.464        0.042      349.892       30.648      855.320
07/06/2013  17:04:00     -364.299     -193.034       -7.202      191.475      151.286       87.030    36662.739    22887.489     7574.276       11.856        3.356      412.281       94.050        0.052      349.958       30.765      855.302
07/06/2013  17:05:00     -374.455     -125.684      -14.696      160.935      200.850       72.436    25900.051    40340.652     5247.010       11.384        3.574      394.985       71.918        0.033      349.965       30.777      855.261
07/06/2013  17:06:00     -102.128     -100.026       -2.192      110.054      101.764       58.684    12111.929    10355.999     3443.840        2.317        1.296      142.953       53.945        0.142      350.181       31.154      855.202
07/06/2013  17:07:00     -592.827     -157.851      -18.082      272.846      248.948      104.276    74444.779    61975.034    10873.456       26.196        7.365      613.482      116.081        0.036      350.243       31.260      855.151
07/06/2013  17:08:00     -548.461     -342.985      -10.041      257.310      238.203      126.650    66208.376    56740.782    16040.172       27.874        6.949      646.876      141.532        0.048      350.041       30.910      855.246
07/06/2013  17:09:00     -372.110     -241.780       14.937      212.403      141.564       86.012    45115.128    20040.420     7398.059       13.484        3.628      443.761       92.394        0.043      350.062       30.944      855.279
07/06/2013  17:10:00     -338.050     -174.200        2.423      214.484      149.775       93.071    46003.442    22432.521     8662.302       11.085        3.855      380.294       92.107        0.059      350.142       31.083      855.273
07/06/2013  17:11:00     -377.396     -141.669      -12.869      164.047      158.530       87.547    26911.385    25131.739     7664.478       11.117        2.985      403.110       88.316        0.048      350.034       30.896      855.173
07/06/2013  17:12:00     -463.907       14.603      -17.636      167.352      140.681       85.624    28006.527    19791.156     7331.528       13.542        2.756      464.136       80.579        0.030      350.088       30.991      855.230
07/06/2013  17:13:00     -476.041      -99.270       -4.856      242.326      180.715       96.830    58721.752    32657.784     9376.050       16.860        5.038      486.281      117.503        0.058      350.129       31.062      855.169
07/06/2013  17:14:00     -513.371     -235.457      -13.169      224.716      161.874       93.873    50497.452    26203.038     8812.200       20.232        4.276      564.791      104.010        0.034      350.152       31.102      855.201
07/06/2013  17:15:00     -267.836     -165.998        1.214      148.006      150.603       75.726    21905.850    22681.385     5734.489        7.480        2.516      315.105       75.316        0.057      350.214       31.211      855.218
07/06/2013  17:16:00     -299.639     -202.165       -5.322      237.555      168.064       83.617    56432.500    28245.669     6991.880       11.116        4.584      361.462      108.220        0.090      350.145       31.089      855.178
07/06/2013  17:17:00     -305.935     -195.822        1.427      221.799      222.979      125.358    49194.915    49719.519    15714.533       12.326        5.731      363.239      120.512        0.110      349.970       30.786      855.115
07/06/2013  17:18:00     -319.787      -88.656       13.879      230.247      182.794       98.924    53013.540    33413.518     9786.019       10.325        4.811      331.848      113.942        0.118      350.072       30.964      855.160
07/06/2013  17:19:00     -461.163     -131.428      -12.966      209.394      174.106       97.458    43845.975    30313.008     9498.066       15.687        4.183      479.525      100.781        0.044      349.896       30.658      855.157
07/06/2013  17:20:00     -286.734      -16.951       12.270      168.445      129.690       75.254    28373.884    16819.486     5663.183        6.675        2.543      287.235       80.228        0.078      350.096       31.004      855.169
07/06/2013  17:21:00     -325.911      -59.192       -8.216      137.348      143.471       65.651    18864.351    20583.868     4310.003        7.676        2.188      331.242       66.288        0.040      350.181       31.151      855.187
07/06/2013  17:22:00     -228.165     -116.984       -0.718      217.812      190.168       92.617    47442.033    36163.691     8577.908        7.895        4.609      256.407       85.353        0.111      350.102       31.015      855.195
07/06/2013  17:23:00     -512.500     -297.444      -19.524      294.150      233.280      116.189    86524.111    54419.383    13499.820       25.295        7.722      592.562      139.598        0.055      349.934       30.722      855.166
07/06/2013  17:24:00     -218.561     -176.100       14.036      171.780      164.018       95.693    29508.431    26901.948     9157.089        7.226        3.278      280.678       99.319        0.125      350.066       30.952      855.192
07/06/2013  17:25:00     -475.920     -166.913        0.063      267.956      223.022      128.365    71800.596    49738.868    16477.531       19.616        6.901      504.341      126.724        0.063      349.898       30.660      855.160
07/06/2013  17:26:00     -567.186     -286.283      -29.626      272.836      239.474      122.714    74439.567    57347.732    15058.830       27.566        7.342      635.341      129.180        0.041      349.848       30.573      855.126
07/06/2013  17:27:00     -427.306     -126.049      -21.898      248.810      243.069      100.023    61906.424    59082.438    10004.679       16.495        6.550      445.509      115.842        0.068      349.995       30.830      855.140
07/06/2013  17:28:00     -524.815     -292.971      -15.595      195.207      162.370       90.525    38105.842    26364.166     8194.834       21.707        3.633      601.052       90.144        0.022      349.846       30.572      855.145
07/06/2013  17:29:00     -468.232     -221.053      -28.277      279.528      159.149       89.394    78136.035    25328.536     7991.263       19.016        5.573      517.789      105.920        0.042      349.891       30.650      855.123
07/06/2013  17:30:00     -441.666     -126.777        0.121      253.707      178.888      106.632    64367.151    32001.002    11370.331       15.942        5.387      459.502      124.897        0.074      349.902       30.668      855.125
07/06/2013  17:31:00     -532.167     -202.155      -29.095      283.308      216.843      103.404    80263.699    47020.894    10692.311       23.142        6.899      569.270      130.626        0.053      349.899       30.663      855.121
07/06/2013  17:32:00     -373.270     -134.443       -8.213      182.727      163.604       87.979    33389.148    26766.307     7740.243       11.267        3.395      396.743       98.248        0.061      349.937       30.728      855.162
07/06/2013  17:33:00     -326.331      -86.265       -2.357      208.041      154.172       83.982    43281.217    23768.990     7052.969        9.401        3.705      337.540       97.375        0.083      350.019       30.871      855.176
07/06/2013  17:34:00     -513.595     -197.149      -25.916      273.897      212.615      105.440    75019.634    45205.147    11117.502       21.730        6.567      550.135      126.030        0.052      349.848       30.576      855.127
07/06/2013  17:35:00     -275.122      -56.893       10.333      201.186      146.493       78.806    40475.676    21460.128     6210.354        7.358        3.407      280.943       74.854        0.071      349.948       30.747      855.154
07/06/2013  17:36:00     -298.582     -221.764        4.114      163.671      155.868       80.813    26788.106    24294.883     6530.741        9.797        2.881      371.928       86.805        0.054      349.904       30.671      855.157
07/06/2013  17:37:00     -344.163     -139.209       -1.197      180.212      143.128       88.309    32476.390    20485.484     7798.459        9.928        3.038      371.251       94.996        0.065      349.889       30.644      855.122
07/06/2013  17:38:00     -310.851     -217.479        2.076      219.826      202.891      102.360    48323.547    41164.912    10477.541       12.193        4.998      379.375      119.329        0.099      349.936       30.727      855.102
07/06/2013  17:39:00     -369.430      -23.965      -13.432      170.291      143.828       80.917    28998.971    20686.510     6547.583        9.672        2.812      370.207       89.680        0.059      350.033       30.893      855.121
07/06/2013  17:40:00     -181.480      -59.748        7.383      162.292       95.118       57.658    26338.795     9047.501     3324.496        3.763        1.936      191.063       65.763        0.118      350.193       31.176      855.134
07/06/2013  17:41:00     -210.426      -58.934       -4.646      137.522      109.558       60.054    18912.262    12002.971     3606.493        4.114        1.726      218.523       63.591        0.085      350.176       31.146      855.132
07/06/2013  17:42:00     -222.778      -82.405        1.720      163.351      112.653       73.248    26683.421    12690.726     5365.211        5.057        2.237      237.531       71.755        0.091      350.026       30.883      855.110
07/06/2013  17:43:00     -398.915      -16.874       -6.941      202.035      185.171       83.117    40818.104    34288.300     6908.431       12.072        4.101      399.271       87.634        0.048      349.982       30.807      855.143
07/06/2013  17:44:00     -324.218     -154.130        8.607      255.168      136.312      101.867    65110.937    18580.902    10376.792       11.149        4.703      358.990      138.585        0.149      349.884       30.635      855.136
07/06/2013  17:45:00     -287.630     -151.297      -13.400      132.391      165.715       77.186    17527.295    27461.367     5957.735        7.836        2.547      324.996       69.648        0.046      349.878       30.626      855.139
07/06/2013  17:46:00     -322.981     -178.943        3.214      271.667      159.413      117.029    73803.022    25412.519    13695.674       12.461        5.646      369.239      131.294        0.126      349.884       30.636      855.139
07/06/2013  17:47:00     -439.933     -131.403       -7.695      282.634      182.007      114.586    79882.054    33126.718    13130.020       16.848        6.307      459.138      128.561        0.078      349.781       30.456      855.119
07/06/2013  17:48:00     -382.362     -197.106       12.846      272.738      218.231      130.551    74385.812    47624.613    17043.545       16.211        6.953      430.176      154.552        0.129      349.804       30.498      855.120
07/06/2013  17:49:00     -590.012     -125.874      -29.856      265.382      201.442      117.754    70427.579    40578.831    13865.961       24.484        6.244      603.290      133.617        0.049      349.634       30.203      855.144
07/06/2013  17:50:00     -587.089     -227.336      -33.206      206.409      168.946       92.534    42604.711    28542.849     8562.451       23.857        3.986      629.567       92.541        0.022      349.637       30.208      855.143
07/06/2013  17:51:00     -455.253     -205.553      -14.625      296.748      183.061      122.571    88059.315    33511.258    15023.540       19.313        6.830      499.507      141.525        0.080      349.646       30.223      855.143
07/06/2013  17:52:00     -449.750     -214.021       -1.462      246.569      196.357      113.295    60796.211    38556.226    12835.694       18.011        5.609      498.077      138.919        0.078      349.657       30.241      855.153
07/06/2013  17:53:00     -335.231     -245.982       -6.000      233.993      174.963      101.318    54752.838    30611.937    10265.265       13.426        4.782      415.797      117.483        0.080      349.624       30.185      855.175
07/06/2013  17:54:00     -376.402     -123.540       -5.759      200.404      116.891       82.803    40161.805    13663.575     6856.352       10.882        3.034      396.157       86.301        0.047      349.697       30.310      855.213
07/06/2013  17:55:00      -99.713     -107.833       10.231      131.935      118.740       72.423    17406.932    14099.266     5245.135        2.921        1.838      146.869       65.410        0.198      349.886       30.642      855.223
07/06/2013  17:56:00     -222.943     -154.072        7.990      182.855      134.456       87.869    33436.016    18078.308     7720.909        6.636        2.962      271.001       77.414        0.082      349.869       30.610      855.251
07/06/2013  17:57:00     -578.292     -202.518      -25.367      245.657      187.836       97.772    60347.281    35282.484     9559.389       24.061        5.259      612.728      111.204        0.033      349.688       30.296      855.258
07/06/2013  17:58:00     -515.674     -244.614      -28.822      241.238      212.158      104.575    58195.853    45010.931    10935.974       22.034        5.707      570.750      111.420        0.038      349.639       30.212      855.269
07/06/2013  17:59:00     -108.017     -113.166       32.581      172.500      172.659      102.207    29756.338    29811.108    10446.191        4.776        3.501      156.443      106.800        0.466      349.734       30.378      855.262
07/06/2013  18:00:00     -314.595     -128.620      -13.078      216.234      133.184       70.309    46757.351    17737.877     4943.391        9.255        3.472      339.872       87.279        0.066      349.816       30.518      855.251
07/06/2013  18:01:00     -411.253     -138.407       10.122      294.783      243.788      113.936    86896.943    59432.501    12981.315       17.382        7.966      433.919      135.991        0.098      349.682       30.286      855.279
07/06/2013  18:02:00     -359.247     -191.704       -8.657      180.708      172.522       92.823    32655.520    29763.753     8616.035       11.845        3.552      407.196       99.469        0.060      349.692       30.302      855.284
07/06/2013  18:03:00     -414.337     -234.846      -32.245      217.757      137.451       85.673    47418.149    18892.800     7339.849       15.074        3.683      476.264       95.398        0.040      349.645       30.219      855.288
07/06/2013  18:04:00     -272.847     -217.463       14.670      174.684      133.317       85.886    30514.571    17773.364     7376.467        8.880        2.783      348.906       90.973        0.068      349.676       30.275      855.278
07/06/2013  18:05:00     -316.770     -190.286        1.180      179.823      125.767       82.548    32336.366    15817.253     6814.178        9.575        2.748      369.529       98.130        0.071      349.704       30.325      855.250
07/06/2013  18:06:00     -319.087     -254.620        1.821      227.770      141.734       86.264    51879.169    20088.428     7441.519       12.301        3.970      408.225      108.736        0.071      349.719       30.351      855.278
07/06/2013  18:07:00     -390.208     -164.622       -3.036      222.119      158.158       89.812    49336.652    25013.827     8066.266       13.088        4.121      423.512      103.975        0.060      349.717       30.346      855.287
07/06/2013  18:08:00     -398.421     -205.658       -3.377      222.666      170.418       92.603    49580.111    29042.271     8575.373       14.410        4.360      448.368      115.260        0.066      349.597       30.136      855.289
07/06/2013  18:09:00     -408.741     -255.109       -1.534      219.623      164.947       85.415    48234.359    27207.387     7295.784       15.743        4.137      481.820      101.747        0.045      349.519       30.004      855.281
07/06/2013  18:10:00     -586.677     -179.442      -10.347      231.084      203.910       92.958    53399.966    41579.311     8641.264       24.004        5.181      613.506      101.738        0.027      349.568       30.086      855.261
07/06/2013  18:11:00     -411.436     -112.433      -15.543      189.179      165.257       79.749    35788.831    27309.807     6359.978       12.580        3.473      426.522       86.811        0.041      349.655       30.238      855.291
07/06/2013  18:12:00     -374.052     -263.363      -16.223      201.619      149.125       87.296    40650.086    22238.271     7620.604       14.001        3.525      457.466       92.174        0.041      349.644       30.219      855.309
07/06/2013  18:13:00     -355.453     -243.007        4.067      163.992      163.935       92.416    26893.403    26874.756     8540.757       12.385        3.115      430.580       95.428        0.049      349.521       30.007      855.304
07/06/2013  18:14:00     -390.694      -70.496      -21.305      165.203      113.954       73.671    27291.892    12985.401     5427.355       10.188        2.285      397.003       80.418        0.041      349.521       30.007      855.314
07/06/2013  18:15:00     -279.179     -144.690       -9.469      154.313      154.148       82.210    23812.560    23761.564     6758.564        7.664        2.717      314.445       92.678        0.087      349.582       30.113      855.326
07/06/2013  18:16:00     -421.369     -300.870      -14.902      200.835      144.820       80.483    40334.793    20972.897     6477.442       16.803        3.389      517.760       81.779        0.025      349.504       29.976      855.338
07/06/2013  18:17:00     -243.353     -121.787       12.302      209.571      146.021       75.058    43919.963    21322.198     5633.698        7.253        3.544      272.126       99.308        0.133      349.593       30.132      855.305
07/06/2013  18:18:00     -264.492      -93.519       -0.085      113.805       81.699       49.924    12951.473     6674.770     2492.395        5.041        1.106      280.538       50.857        0.033      349.642       30.218      855.323
07/06/2013  18:19:00     -268.101      -77.609       -5.586      119.494       93.702       55.966    14278.861     8780.018     3132.228        5.206        1.310      279.108       59.421        0.045      349.699       30.314      855.336
07/06/2013  18:20:00     -243.944      -62.414        3.845      130.459      102.288       54.993    17019.447    10462.853     3024.265        4.696        1.525      251.802       58.474        0.054      349.746       30.397      855.309
07/06/2013  18:21:00     -189.742      -54.922        0.153      108.613       79.439       50.751    11796.684     6310.499     2575.704        2.985        1.034      197.531       59.750        0.091      349.790       30.472      855.310
07/06/2013  18:22:00     -261.836      -86.053        1.906      128.547      145.429       70.769    16524.376    21149.517     5008.283        5.932        2.134      275.614       73.859        0.072      349.751       30.404      855.335
07/06/2013  18:23:00     -416.351     -304.104      -20.934      228.843      188.444       89.373    52369.068    35511.096     7987.532       18.105        4.793      515.585       81.972        0.025      349.548       30.053      855.303
07/06/2013  18:24:00     -227.320     -111.495      -10.140      136.549      112.241       50.111    18645.548    12598.085     2511.121        4.897        1.688      253.190       56.115        0.049      349.727       30.362      855.360
07/06/2013  18:25:00     -292.918     -104.582      -15.885      164.000       94.644       73.124    26895.963     8957.559     5347.102        6.909        2.060      311.028       88.690        0.081      349.675       30.273      855.383
07/06/2013  18:26:00     -282.625     -253.356       -3.552      192.739      155.254       89.835    37148.159    24103.838     8070.285       10.669        3.466      379.561       96.620        0.065      349.566       30.085      855.376
07/06/2013  18:27:00     -164.102      -58.915       -1.382      114.283       99.982       56.741    13060.685     9996.355     3219.550        2.833        1.314      174.357       64.797        0.138      349.661       30.249      855.379
07/06/2013  18:28:00     -258.294     -196.107       -9.024      154.799      107.258       73.001    23962.870    11504.349     5329.103        7.302        2.040      324.305       67.761        0.044      349.602       30.148      855.395
07/06/2013  18:29:00     -247.014     -229.452       -8.535      207.423      162.958       89.854    43024.100    26555.382     8073.818        9.568        3.883      337.141      114.665        0.116      349.575       30.102      855.396
07/06/2013  18:30:00     -347.974     -154.759       -6.441      202.337      152.007       77.353    40940.351    23105.997     5983.517       10.754        3.501      380.836       75.880        0.040      349.631       30.198      855.401
07/06/2013  18:31:00     -305.941      -44.587        1.519      189.949      136.919       79.478    36080.644    18746.916     6316.685        7.835        3.057      309.172       89.782        0.084      349.722       30.356      855.427
07/06/2013  18:32:00     -339.818     -177.843        2.323      222.042      146.510       79.100    49302.652    21465.127     6256.792       11.205        3.851      383.542       95.609        0.062      349.617       30.175      855.471
07/06/2013  18:33:00     -291.361     -101.926       -8.857      177.627      126.026       69.510    31551.222    15882.610     4831.658        7.380        2.613      308.674       83.413        0.073      349.617       30.172      855.483
07/06/2013  18:34:00     -235.216      -75.079        4.071      176.310      106.641       69.940    31085.157    11372.339     4891.608        5.416        2.367      246.908       85.680        0.120      349.631       30.195      855.469
07/06/2013  18:35:00     -349.918     -143.288      -25.342      141.566       90.645       59.177    20041.041     8216.582     3501.904        8.768        1.588      378.119       56.123        0.022      349.440       29.865      855.462
07/06/2013  18:36:00     -399.680     -110.465      -38.053      158.115      162.537       71.029    25000.219    26418.401     5045.128       11.492        2.823      414.664       67.438        0.026      349.434       29.853      855.466
07/06/2013  18:37:00     -291.987     -126.709       -5.420      170.491      130.242       76.638    29067.204    16962.973     5873.329        7.661        2.595      318.295       82.320        0.067      349.568       30.090      855.463
07/06/2013  18:38:00     -363.821     -104.261      -20.160      137.388      139.939       58.495    18875.332    19582.866     3421.628        9.275        2.094      378.465       49.902        0.017      349.462       29.904      855.515
07/06/2013  18:39:00     -190.096      -62.248       12.133      130.134       99.382       59.972    16934.728     9876.742     3596.689        3.528        1.520      200.028       64.055        0.103      349.629       30.195      855.529
07/06/2013  18:40:00     -134.888      -12.417       11.589      129.157       82.850       61.055    16681.554     6864.087     3727.733        2.287        1.364      135.458       66.440        0.241      349.609       30.160      855.520
07/06/2013  18:41:00     -213.348     -145.092        1.911      187.493      119.570       69.803    35153.668    14296.934     4872.515        6.044        2.716      258.010       86.743        0.113      349.525       30.013      855.534
07/06/2013  18:42:00     -265.123     -150.154      -14.281      105.241      106.244       61.510    11075.593    11287.753     3783.510        5.959        1.307      304.690       58.191        0.036      349.431       29.848      855.533
07/06/2013  18:43:00     -161.662      -74.171        1.452      123.693      100.809       58.990    15299.984    10162.376     3479.797        3.028        1.447      177.865       63.098        0.126      349.530       30.023      855.549
07/06/2013  18:44:00     -210.905      -88.174        0.434      141.697      103.528       57.649    20078.161    10718.138     3323.423        4.318        1.706      228.595       62.129        0.074      349.452       29.886      855.538
07/06/2013  18:45:00     -172.904     -110.999       11.413      176.390      111.675       62.998    31113.592    12471.194     3968.731        4.494        2.378      205.467       69.618        0.115      349.553       30.062      855.541
07/06/2013  18:46:00     -305.858      -74.277       -9.246      178.096      129.338       72.880    31718.339    16728.356     5311.481        7.644        2.688      314.748       88.674        0.079      349.301       29.627      855.532
07/06/2013  18:47:00     -297.996     -180.565      -11.436      165.574      134.018       75.128    27414.757    17960.826     5644.163        8.627        2.551      348.432       72.272        0.043      349.252       29.541      855.515
07/06/2013  18:48:00     -238.047     -165.861        1.276      145.389       89.914       63.852    21137.848     8084.529     4077.058        5.873        1.665      290.131       69.335        0.057      349.310       29.642      855.512
07/06/2013  18:49:00     -292.634     -106.597      -20.734      110.197       77.856       48.490    12143.319     6061.582     2351.273        5.899        1.028      311.444       49.242        0.025      349.379       29.759      855.532
07/06/2013  18:50:00     -268.775     -214.975        7.946      175.368      135.885       82.258    30754.064    18464.787     6766.401        8.724        2.799      344.171       92.912        0.073      349.372       29.748      855.539
07/06/2013  18:51:00     -329.181     -252.916      -13.235      172.725      169.942       91.107    29833.805    28880.217     8300.423       11.974        3.351      415.123       92.732        0.050      349.293       29.611      855.504
07/06/2013  18:52:00     -322.215     -116.947      -13.453      178.506      129.399       71.367    31864.347    16744.197     5093.239        8.568        2.685      342.781       71.254        0.043      349.351       29.712      855.526
07/06/2013  18:53:00     -431.777     -133.104       -1.808      187.778      137.471       90.252    35260.632    18898.338     8145.510       13.322        3.115      451.828      100.855        0.050      349.261       29.556      855.506
07/06/2013  18:54:00     -364.728      -19.853      -26.157      154.751      113.491       75.127    23948.022    12880.154     5644.130        8.828        2.124      365.268       76.812        0.044      349.367       29.739      855.516
07/06/2013  18:55:00     -328.917      -39.543      -19.766      120.635       98.032       66.612    14552.759     9610.180     4437.191        6.936        1.430      331.285       65.408        0.039      349.401       29.798      855.532
07/06/2013  18:56:00     -176.781      -63.997      -22.717      132.924       81.643       49.477    17668.818     6665.543     2447.982        3.132        1.339      188.009       38.533        0.042      349.459       29.898      855.542
07/06/2013  18:57:00     -211.646      -57.482      -15.029      100.147       85.932       38.696    10029.484     7384.300     1497.407        3.361        0.946      219.313       26.531        0.015      349.429       29.847      855.553
07/06/2013  18:58:00     -257.805      -87.077       -9.084      225.963      129.683       71.954    51059.266    16817.567     5177.351        7.358        3.653      272.113       99.599        0.134      349.351       29.712      855.549
07/06/2013  18:59:00     -412.614     -228.442       -7.927      185.402      185.534       79.841    34373.729    34422.728     6374.512       14.882        3.759      471.631       81.632        0.030      349.223       29.490      855.545
07/06/2013  19:00:00     -352.915     -152.372      -28.819      194.707      147.981       76.556    37910.975    21898.340     5860.893       10.712        3.284      384.404       91.741        0.057      349.240       29.520      855.583
07/06/2013  19:01:00     -329.987     -208.929      -16.512      125.697      122.078       65.889    15799.779    14903.127     4341.313        9.392        1.752      390.567       46.148        0.014      349.180       29.416      855.582
07/06/2013  19:02:00     -228.537      -75.008       -2.830      158.143      148.726       73.915    25009.295    22119.307     5463.391        5.522        2.630      240.532       82.175        0.117      349.279       29.587      855.584
07/06/2013  19:03:00     -493.633     -192.816      -27.433      176.685      137.631       81.243    31217.623    18942.189     6600.479       16.917        2.838      529.954       85.349        0.026      349.105       29.285      855.581
07/06/2013  19:04:00     -387.408     -154.274      -16.259      177.264      128.767       77.648    31422.485    16580.867     6029.287       11.408        2.702      416.996       79.520        0.036      349.155       29.371      855.575
07/06/2013  19:05:00     -224.602       15.639      -22.888      154.125       98.495       66.585    23754.600     9701.230     4433.611        4.454        1.894      225.146       62.245        0.076      349.225       29.494      855.565
07/06/2013  19:06:00     -215.416     -104.766      -14.695      147.958      153.803       67.737    21891.509    23655.219     4588.299        5.386        2.507      239.542       72.473        0.092      349.236       29.513      855.608
07/06/2013  19:07:00     -408.493     -287.726       -7.373      222.452      166.131      100.629    49484.773    27599.548    10126.289       16.844        4.361      499.653      116.751        0.055      349.032       29.160      855.599
07/06/2013  19:08:00     -298.331     -174.820       -3.447      136.389      132.091       73.080    18602.032    17448.138     5340.685        8.047        2.070      345.780       71.258        0.042      349.072       29.227      855.616
07/06/2013  19:09:00     -224.602     -140.788       -5.646      134.996      112.537       54.941    18223.890    12664.681     3018.486        5.210        1.695      265.080       61.799        0.054      349.120       29.310      855.628
07/06/2013  19:10:00     -237.762      -56.243        4.798      199.550      151.467       93.431    39820.116    22942.126     8729.345        6.559        3.575      244.324      100.276        0.168      349.144       29.352      855.635
07/06/2013  19:11:00     -422.876      -27.672      -38.840      165.140      144.765       72.375    27271.219    20956.933     5238.149       11.727        2.673      423.780       66.592        0.025      349.083       29.247      855.653
07/06/2013  19:12:00     -210.133      -93.389       28.703      177.362      130.802       87.404    31457.117    17109.060     7639.425        5.494        2.810      229.951      103.421        0.202      349.108       29.292      855.672
07/06/2013  19:13:00     -199.401      -87.761       -4.059      146.119       94.074       53.838    21350.645     8849.885     2898.478        4.028        1.655      217.859       62.694        0.083      349.102       29.281      855.684
07/06/2013  19:14:00     -318.651     -150.841        1.426      122.086      106.719       65.950    14905.030    11388.899     4349.391        7.746        1.532      352.550       56.081        0.025      349.051       29.192      855.689
07/06/2013  19:15:00     -243.120      -83.114       -4.736       94.012       93.186       56.631     8838.349     8683.595     3207.070        4.338        1.036      256.934       55.871        0.047      349.123       29.316      855.706
07/06/2013  19:16:00     -457.171      -95.595      -16.207      184.342      149.155       78.784    33982.031    22247.172     6206.956       14.041        3.122      467.058       74.500        0.025      349.008       29.117      855.711
07/06/2013  19:17:00     -523.762      -56.144      -19.723      226.665      148.073       99.146    51376.953    21925.715     9829.986       18.048        4.157      526.763      114.214        0.047      348.968       29.048      855.699
07/06/2013  19:18:00     -137.589      -51.979        4.073      155.620      113.126       56.769    24217.673    12797.596     3222.727        3.094        2.012      147.080       72.642        0.244      349.086       29.253      855.711
07/06/2013  19:19:00     -547.067     -137.105      -30.474      207.565      207.716       88.183    43083.122    43145.805     7776.283       20.649        4.700      563.986       83.999        0.022      348.916       28.957      855.686
07/06/2013  19:20:00     -519.979     -202.933      -35.847      229.999      172.722      100.031    52899.502    29832.787    10006.236       20.277        4.637      558.176       88.526        0.025      348.901       28.932      855.650
07/06/2013  19:21:00     -462.073      -76.870      -24.205      196.853      203.732      102.918    38751.219    41506.865    10592.185       15.541        4.543      468.423      107.751        0.053      348.885       28.903      855.673
07/06/2013  19:22:00     -444.635     -134.196      -22.887      171.191      202.101       98.407    29306.320    40844.835     9683.935       14.802        3.992      464.445       96.686        0.043      348.887       28.905      855.688
07/06/2013  19:23:00     -299.805     -107.718        3.454      217.523      139.040       94.613    47316.420    19332.024     8951.548        8.853        3.780      318.569      108.547        0.116      348.894       28.920      855.697
07/06/2013  19:24:00     -392.996       -9.925      -12.602      188.580      138.725       80.964    35562.488    19244.586     6555.224       10.802        3.068      393.121       95.895        0.060      348.858       28.857      855.738
07/06/2013  19:25:00     -372.174     -155.161      -11.776      226.725      157.477       76.224    51404.173    24798.920     5810.135       12.235        4.101      403.222      105.888        0.069      348.871       28.880      855.738
07/06/2013  19:26:00     -224.699       -7.641       11.573      155.225      126.477       65.331    24094.695    15996.344     4268.098        4.751        2.218      224.829       76.014        0.114      348.879       28.894      855.767
07/06/2013  19:27:00     -233.131     -104.590       -1.654      137.821      129.000       59.672    18994.509    16641.006     3560.771        5.224        1.960      255.517       56.986        0.050      348.860       28.861      855.774
07/06/2013  19:28:00     -307.892      -84.557      -19.822      155.897      157.039       85.443    24303.964    24661.122     7300.520        7.929        2.813      319.292       87.634        0.075      348.843       28.831      855.754
07/06/2013  19:29:00     -236.200     -110.516       -5.363      112.897      117.704       61.880    12745.826    13854.349     3829.178        4.922        1.521      260.776       52.997        0.041      348.827       28.803      855.774
07/06/2013  19:30:00     -161.458      -17.202       -5.211      111.533       92.272       39.499    12439.604     8514.211     1560.198        2.445        1.126      162.372       37.404        0.053      348.939       29.000      855.813
07/06/2013  19:31:00     -395.736      -89.238      -14.645      141.876       92.384       66.597    20128.844     8534.748     4435.214        9.894        1.655      405.673       69.991        0.030      348.803       28.761      855.818
07/06/2013  19:32:00     -270.195       -1.202       -8.170      135.570      113.996       64.774    18379.134    12995.112     4195.617        5.431        1.778      270.198       53.778        0.040      348.800       28.758      855.809
07/06/2013  19:33:00     -273.286      -37.582       -1.544      148.229      106.239       65.443    21971.917    11286.805     4282.759        5.681        1.877      275.858       75.305        0.075      348.784       28.729      855.848
07/06/2013  19:34:00     -238.099      -82.529      -11.526      110.555       87.347       40.332    12222.509     7629.416     1626.693        4.255        1.074      251.996       34.727        0.019      348.771       28.709      855.861
07/06/2013  19:35:00     -165.426        8.851      -10.410       92.384       86.708       44.245     8534.736     7518.341     1957.657        2.278        0.901      165.663       34.924        0.044      348.783       28.729      855.867
07/06/2013  19:36:00     -409.907      -74.421      -22.855      195.960      112.881       63.771    38400.185    12742.040     4066.777       11.464        2.760      416.608       70.596        0.029      348.726       28.629      855.850
07/06/2013  19:37:00     -348.988     -125.377      -18.607      194.105      149.337       81.353    37676.749    22301.590     6618.272       10.221        3.330      370.827       95.460        0.066      348.671       28.536      855.859
07/06/2013  19:38:00     -447.617      -88.501       -8.704      165.402      168.950       73.106    27357.765    28544.019     5344.536       13.475        3.062      456.282       66.445        0.021      348.655       28.507      855.833
07/06/2013  19:39:00     -245.425      -96.097        1.322      151.580      128.863       64.013    22976.446    16605.722     4097.678        5.657        2.184      263.568       46.489        0.031      348.662       28.518      855.860
07/06/2013  19:40:00     -296.170     -199.072        3.940      193.315      149.918       75.490    37370.515    22475.508     5698.707        9.644        3.277      356.856       82.857        0.054      348.641       28.483      855.913
07/06/2013  19:41:00     -284.790     -119.260       -2.713      179.343      120.007       66.352    32164.066    14401.799     4402.650        7.314        2.548      308.753       79.856        0.067      348.636       28.473      855.919
07/06/2013  19:42:00     -327.394     -163.614      -20.924      153.837       99.431       73.800    23665.815     9886.534     5446.478        8.669        1.950      366.001       78.810        0.046      348.601       28.412      855.954
07/06/2013  19:43:00     -219.323     -106.914       -1.054      127.084       81.925       51.082    16150.393     6711.699     2609.368        4.250        1.274      243.994       59.590        0.060      348.614       28.434      855.971
07/06/2013  19:44:00     -116.376      -62.399       12.272      101.570       82.199       43.092    10316.417     6756.659     1856.905        1.825        0.946      132.049       45.704        0.120      348.665       28.524      855.967
07/06/2013  19:45:00     -117.965      -31.996       -2.476       67.513       54.872       31.939     4557.947     3010.959     1020.114        1.177        0.429      122.227       34.664        0.080      348.652       28.502      856.005
07/06/2013  19:46:00     -146.791       -7.705       -8.928       69.396       49.185       30.429     4815.786     2419.169      925.914        1.492        0.408      146.993       33.632        0.052      348.700       28.585      856.015
07/06/2013  19:47:00     -196.554      -49.707      -11.014      110.863       86.690       38.368    12290.625     7515.186     1472.101        3.125        1.064      202.742       38.943        0.037      348.606       28.420      856.007
07/06/2013  19:48:00     -154.837      -60.572        0.327      128.818       97.189       49.695    16594.163     9445.669     2469.603        2.807        1.425      166.263       60.397        0.132      348.601       28.414      856.015
07/06/2013  19:49:00     -263.970     -117.622      -11.509      122.448      130.946       55.844    14993.489    17146.776     3118.558        5.945        1.763      288.990       55.709        0.037      348.555       28.333      856.056
07/06/2013  19:50:00     -253.750      -63.128      -12.981      194.945      135.641       65.161    38003.493    18398.510     4245.939        6.458        3.032      261.484       65.718        0.063      348.528       28.286      856.027
07/06/2013  19:51:00     -196.950      -84.932       -1.840      125.175       99.044       49.648    15668.819     9809.804     2464.946        3.697        1.397      214.482       57.573        0.072      348.505       28.248      856.044
07/06/2013  19:52:00     -176.622      -15.194        6.151      115.610       88.535       48.739    13365.692     7838.430     2375.491        2.752        1.179      177.275       53.760        0.092      348.499       28.238      856.056
07/06/2013  19:53:00     -110.425      -44.063        9.689      122.615       96.723       50.185    15034.525     9355.416     2518.547        2.056        1.345      118.891       47.324        0.158      348.498       28.237      856.057
07/06/2013  19:54:00     -278.373      -45.892      -18.267      120.294      103.099       46.955    14470.669    10629.387     2204.814        5.361        1.365      282.131       49.647        0.031      348.458       28.166      856.090
07/06/2013  19:55:00     -269.040      -67.640       -8.273      134.661       93.810       53.943    18133.621     8800.348     2909.877        5.343        1.492      277.412       60.280        0.047      348.420       28.100      856.098
07/06/2013  19:56:00     -203.361      -75.067      -17.661      149.430      115.249       67.455    22329.241    13282.333     4550.118        4.372        2.008      216.773       76.462        0.124      348.417       28.096      856.092
07/06/2013  19:57:00     -446.198      -91.038      -14.718      176.899      134.543       72.920    31293.219    18101.888     5317.351       13.114        2.736      455.390       74.892        0.027      348.351       27.981      856.107
07/06/2013  19:58:00     -234.900      -99.703       -4.240      119.811      110.196       59.884    14354.711    12143.070     3586.078        4.760        1.504      255.183       52.550        0.042      348.338       27.959      856.119
07/06/2013  19:59:00     -180.230      149.308      -13.710      125.341      126.329       62.222    15710.336    15959.057     3871.572        4.525        1.777      234.042       65.970        0.079      348.265       27.830      856.135
07/06/2013  20:00:00     -121.996      -89.148        9.591      119.307       92.405       53.362    14234.194     8538.713     2847.458        2.427        1.281      151.097       48.015        0.101      348.299       27.890      856.156
07/06/2013  20:01:00     -232.254      -37.803        2.178       91.351      103.592       56.862     8344.989    10731.349     3233.342        3.884        1.115      235.311       53.373        0.051      348.248       27.802      856.183
07/06/2013  20:02:00     -193.528       10.417        0.010      124.663       77.791       52.455    15540.949     6051.442     2751.574        3.095        1.217      193.808       50.744        0.069      348.245       27.798      856.211
07/06/2013  20:03:00     -223.789      -79.732      -11.622      144.840      104.638       57.752    20978.719    10949.190     3335.270        4.591        1.763      237.568       54.280        0.052      348.198       27.717      856.233
07/06/2013  20:04:00     -388.000     -130.002      -30.848      114.673      109.543       52.188    13149.925    11999.587     2723.565        9.813        1.394      409.200       51.178        0.016      348.204       27.727      856.242
07/06/2013  20:05:00     -213.692      -83.940        5.236      147.912      109.843       64.223    21877.855    12065.399     4124.542        4.540        1.903      229.587       70.845        0.095      348.191       27.704      856.275
07/06/2013  20:06:00     -138.110      -39.112       -3.509       87.344       66.875       44.616     7629.046     4472.217     1990.564        1.735        0.705      143.541       40.993        0.082      348.131       27.601      856.294
07/06/2013  20:07:00     -256.698      -22.438      -30.263      101.102       51.716       32.453    10221.709     2674.544     1053.212        4.063        0.697      257.677       33.812        0.017      348.106       27.557      856.308
07/06/2013  20:08:00     -196.167        3.027      -18.708      103.902       78.747       38.901    10795.535     6201.127     1513.325        2.867        0.925      196.190       14.689        0.006      348.101       27.550      856.322
07/06/2013  20:09:00     -306.045      -21.493      -41.891      124.051       97.065       42.948    15388.610     9421.681     1844.527        6.126        1.333      306.799       39.554        0.017      348.058       27.473      856.331
07/06/2013  20:10:00     -235.596      -58.906      -15.460       87.988      102.735       47.608     7741.916    10554.548     2266.545        3.988        1.028      242.849       48.971        0.041      348.034       27.430      856.347
07/06/2013  20:11:00     -173.791       39.827      -23.387      105.341      109.914       55.399    11096.772    12081.160     3069.006        2.929        1.312      178.296       35.251        0.039      347.995       27.366      856.358
07/06/2013  20:12:00     -337.018      -61.582      -37.780      132.531      114.705       58.093    17564.565    13157.283     3374.740        7.644        1.705      342.599       62.126        0.033      347.990       27.358      856.381
07/06/2013  20:13:00     -210.550      -41.886      -15.589      104.892      101.670       45.403    11002.426    10336.823     2061.432        3.486        1.170      214.676       50.772        0.056      347.971       27.324      856.383
07/06/2013  20:14:00     -219.882      -22.098      -19.044      105.209       86.519       42.157    11068.892     7485.454     1777.233        3.476        1.017      220.989       44.643        0.041      347.941       27.273      856.393
07/06/2013  20:15:00     -175.376       10.600      -22.747       47.202       52.363       24.833     2228.032     2741.838      616.662        1.849        0.279      175.696       12.198        0.005      347.871       27.152      856.405
07/06/2013  20:16:00     -162.727      -11.746      -13.588       94.413       80.212       44.463     8913.730     6433.913     1977.000        2.206        0.866      163.150       48.260        0.087      347.896       27.195      856.409
07/06/2013  20:17:00     -145.524       57.073      -15.352       61.532       74.709       40.572     3786.237     5581.413     1646.114        1.784        0.551      156.316       37.853        0.059      347.836       27.091      856.422
07/06/2013  20:18:00      -93.970        8.386       -5.417       61.337       49.699       30.543     3762.232     2469.984      932.873        0.805        0.358       94.343       35.071        0.138      347.789       27.013      856.432
07/06/2013  20:19:00      -42.415        6.687        4.826       55.195       57.855       36.878     3046.434     3347.209     1359.994        0.481        0.388       42.939       33.375        0.604      347.746       26.939      856.447
07/06/2013  20:20:00      -78.995       52.855      -11.687       39.766       85.935       30.005     1581.363     7384.840      900.315        0.952        0.493       95.047       17.334        0.033      347.739       26.928      856.451
07/06/2013  20:21:00      -94.736       -7.660        1.405       68.159       56.557       25.871     4645.645     3198.739      669.317        0.877        0.426       95.045       26.185        0.076      347.743       26.933      856.468
07/06/2013  20:22:00     -209.251      -19.212      -19.562       75.986       68.956       35.420     5773.876     4754.972     1254.581        2.816        0.589      210.132       39.669        0.036      347.738       26.923      856.488
07/06/2013  20:23:00     -141.391      -45.110       -5.655       75.407       67.741       33.598     5686.211     4588.833     1128.847        1.673        0.570      148.413       35.082        0.056      347.737       26.920      856.484
07/06/2013  20:24:00     -165.824      -30.035      -19.166       61.200       46.830       26.561     3745.483     2193.005      705.467        1.770        0.332      168.522        9.538        0.003      347.720       26.892      856.496
07/06/2013  20:25:00      -66.407       29.656        1.642       45.679       41.677       25.573     2086.560     1736.976      653.996        0.488        0.224       72.728       23.149        0.101      347.610       26.704      856.501
07/06/2013  20:26:00     -132.702       21.628      -21.344       68.452       72.063       30.817     4685.660     5193.091      949.706        1.468        0.541      134.453       34.324        0.065      347.659       26.788      856.504
07/06/2013  20:27:00     -195.999      -92.085       -4.936      103.049       92.541       51.571    10619.120     8563.897     2659.569        3.438        1.092      216.553       38.413        0.031      347.621       26.720      856.507
07/06/2013  20:28:00     -213.105      -50.492      -25.552       66.026       65.400       40.000     4359.388     4277.163     1599.995        2.942        0.512      219.005       28.523        0.017      347.697       26.852      856.519
07/06/2013  20:29:00     -102.128      -42.629       -6.238       42.861       50.036       27.599     1837.051     2503.562      761.717        0.869        0.255      110.668       22.724        0.042      347.651       26.774      856.534
07/06/2013  20:30:00     -218.886      -60.723      -19.394       50.897       66.202       31.004     2590.475     4382.729      961.246        2.995        0.397      227.152       28.580        0.016      347.670       26.806      856.538
07/06/2013  20:31:00     -271.174      -79.957      -16.917       73.612       76.112       33.164     5418.741     5792.983     1099.857        4.626        0.616      282.716       19.205        0.005      347.689       26.837      856.543
07/06/2013  20:32:00     -229.774      -19.184      -16.457       66.314       54.493       31.283     4397.516     2969.449      978.648        3.089        0.417      230.574       34.542        0.022      347.675       26.812      856.554
07/06/2013  20:33:00     -191.569       47.182      -15.283       46.719       39.182       19.514     2182.663     1535.204      380.782        2.163        0.205      197.294       13.279        0.005      347.611       26.702      856.568
07/06/2013  20:34:00     -143.155       11.223      -14.824       62.437       53.686       31.392     3898.435     2882.204      985.435        1.430        0.388      143.594       24.589        0.029      347.595       26.676      856.578
07/06/2013  20:35:00     -349.806       76.207      -22.997      140.668       80.823       45.799    19787.413     6532.354     2097.531        7.855        1.421      358.011       43.179        0.015      347.612       26.703      856.580
07/06/2013  20:36:00     -199.265      -26.535       -1.178      125.914       94.245       49.965    15854.460     8882.047     2496.529        3.382        1.362      201.024       57.227        0.081      347.578       26.647      856.592
07/06/2013  20:37:00     -182.134      -57.371       -5.031       76.386       69.745       43.629     5834.872     4864.311     1903.475        2.454        0.630      190.956       36.345        0.036      347.574       26.640      856.607
07/06/2013  20:38:00      -68.920      -51.078        6.282       87.299       71.066       43.808     7621.086     5050.410     1919.146        1.099        0.730       85.785       40.399        0.222      347.529       26.564      856.618
07/06/2013  20:39:00     -207.352       27.718      -13.943      124.474       72.615       44.993    15493.771     5272.950     2024.337        3.337        1.140      209.196       39.942        0.036      347.573       26.640      856.624
07/06/2013  20:40:00     -133.121       43.767      -15.067       62.783       71.011       34.785     3941.689     5042.626     1209.966        1.503        0.510      140.131       25.268        0.033      347.457       26.438      856.637
07/06/2013  20:41:00      -63.564       62.792       -9.448       33.095       37.286       22.425     1095.290     1390.249      502.868        0.553        0.149       89.349       15.154        0.029      347.396       26.335      856.653
07/06/2013  20:42:00      -76.522       35.187      -10.550       25.608       63.949       28.884      655.779     4089.530      834.270        0.639        0.279       84.224       18.844        0.050      347.434       26.398      856.667
07/06/2013  20:43:00     -114.286       41.657      -20.251       44.711       55.596       25.224     1999.113     3090.929      636.264        1.047        0.286      121.641       31.767        0.068      347.455       26.435      856.675
07/06/2013  20:44:00     -158.021      -23.365      -18.134       66.641       48.994       23.140     4441.073     2400.371      535.479        1.661        0.369      159.739       25.202        0.025      347.414       26.365      856.693
07/06/2013  20:45:00     -122.014        3.843      -10.310       63.741       33.064       28.951     4062.867     1093.238      838.157        1.050        0.300      122.074       26.592        0.047      347.431       26.395      856.715
07/06/2013  20:46:00      -67.922       14.745      -13.498       37.771       34.001       19.991     1426.666     1156.073      399.651        0.400        0.149       69.504       17.174        0.061      347.434       26.398      856.722
07/06/2013  20:47:00      -81.375       19.586        0.983       41.449       40.289       28.806     1718.001     1623.197      829.810        0.559        0.209       83.699       33.292        0.158      347.412       26.362      856.740
07/06/2013  20:48:00      -42.917       77.525      -10.226       42.039       55.606       31.967     1767.294     3092.081     1021.886        0.692        0.294       88.611       32.336        0.133      347.390       26.326      856.758
07/06/2013  20:49:00      -78.430       29.413       -8.136       43.191       73.096       27.629     1865.456     5343.089      763.340        0.753        0.399       83.763       25.777        0.095      347.404       26.350      856.776
07/06/2013  20:50:00     -132.009       69.254      -17.181       53.357       44.312       28.924     2846.971     1963.589      836.589        1.408        0.282      149.072       28.467        0.036      347.389       26.323      856.797
07/06/2013  20:51:00     -136.014       39.758       -9.055       81.572       52.176       32.285     6653.914     2722.349     1042.297        1.529        0.521      141.706       40.029        0.080      347.381       26.307      856.817
07/06/2013  20:52:00      -95.277      -27.898        8.339       69.062       57.052       41.743     4769.623     3254.958     1742.441        0.984        0.488       99.278       36.569        0.136      347.378       26.303      856.822
07/06/2013  20:53:00      -65.025      136.994       -8.911       53.942       61.578       31.623     2909.778     3791.887      999.998        1.539        0.385      151.644       30.089        0.039      347.232       26.050      856.843
07/06/2013  20:54:00      -48.939       88.985       -5.755       42.253       48.166       30.571     1785.291     2319.983      934.574        0.769        0.252      101.555       12.970        0.016      347.208       26.011      856.854
07/06/2013  20:55:00      -92.778      135.851      -14.420       61.179       49.068       34.988     3742.836     2407.631     1224.192        1.732        0.369      164.509       33.213        0.041      347.267       26.109      856.851
07/06/2013  20:56:00      -77.620      124.666      -15.524       56.543       28.876       24.803     3197.071      833.843      615.184        1.323        0.232      146.855       22.275        0.023      347.241       26.068      856.868
07/06/2013  20:57:00     -165.235      129.619      -34.591       49.271       56.705       27.864     2427.603     3215.428      776.387        2.586        0.321      210.009       30.305        0.021      347.313       26.190      856.886
07/06/2013  20:58:00     -108.835      -16.142       -3.246       43.204       48.524       23.293     1866.628     2354.533      542.572        0.844        0.238      110.026       22.671        0.042      347.288       26.149      856.913
07/06/2013  20:59:00     -162.676      -12.880      -20.874       44.677       37.193       19.225     1996.076     1383.335      369.606        1.541        0.187      163.185       16.947        0.011      347.359       26.270      856.940
07/06/2013  21:00:00     -101.167       66.093      -14.726       33.026       28.307       16.452     1090.701      801.281      270.674        0.849        0.108      120.843       11.536        0.009      347.329       26.219      856.961
07/06/2013  21:01:00      -72.960       26.858       -0.788       32.441       25.296       20.550     1052.425      639.911      422.292        0.408        0.106       77.747       21.427        0.076      347.343       26.244      856.956
07/06/2013  21:02:00     -119.554       69.929      -20.362       74.572       66.452       38.611     5560.972     4415.911     1490.819        1.553        0.573      138.503       35.129        0.064      347.317       26.199      856.969
07/06/2013  21:03:00     -100.446       50.176      -11.000       47.800       60.247       27.269     2284.797     3629.758      743.582        0.969        0.333      112.281       18.933        0.028      347.223       26.036      856.962
07/06/2013  21:04:00     -130.565       -5.079       -5.767       55.765       48.990       28.883     3109.789     2400.016      834.208        1.172        0.317      130.664       29.651        0.051      347.287       26.147      856.977
07/06/2013  21:05:00     -127.164       95.047      -26.382       47.353       60.847       31.298     2242.343     3702.347      979.537        1.641        0.346      158.760       35.852        0.051      347.289       26.150      856.986
07/06/2013  21:06:00     -119.815      101.886      -19.251       37.829       46.082       30.935     1430.997     2123.546      956.991        1.481        0.226      157.278       26.945        0.029      347.228       26.043      856.996
07/06/2013  21:07:00     -153.409       42.471      -16.661       50.060       53.850       37.744     2506.006     2899.843     1424.645        1.622        0.342      159.179       33.197        0.043      347.254       26.088      856.996
07/06/2013  21:08:00     -179.316       75.762      -32.503       65.999      102.439       33.266     4355.890    10493.774     1106.617        2.745        0.798      194.664       30.493        0.025      347.196       25.988      857.001
07/06/2013  21:09:00     -182.694       52.014      -23.377       54.256       65.954       37.408     2943.710     4349.869     1399.386        2.266        0.435      189.954       28.852        0.023      347.159       25.924      856.996
07/06/2013  21:10:00     -173.104       55.256      -15.439       74.264       58.503       43.008     5515.159     3422.601     1849.708        2.202        0.539      181.710       31.960        0.031      347.223       26.034      856.994
07/06/2013  21:11:00     -132.181        3.438      -10.887       54.127       62.128       38.278     2929.727     3859.840     1465.170        1.293        0.413      132.225       31.562        0.057      347.161       25.930      856.982
07/06/2013  21:12:00     -226.461       -9.660      -30.896       82.885      128.294       54.230     6869.927    16459.404     2940.937        3.930        1.314      226.667       48.377        0.046      347.180       25.958      856.974
07/06/2013  21:13:00     -222.148      -36.210      -12.986       81.684       89.051       47.399     6672.220     7930.168     2246.630        3.384        0.842      225.080       39.840        0.031      347.081       25.789      856.962
07/06/2013  21:14:00     -216.708      -26.678      -32.332       85.342       86.919       46.052     7283.205     7554.846     2120.813        3.284        0.848      218.344       32.649        0.022      347.123       25.861      856.952
07/06/2013  21:15:00     -214.132      -28.845      -27.087       68.042       81.202       42.201     4629.683     6593.731     1780.929        3.021        0.650      216.066       25.639        0.014      347.131       25.875      856.928
07/06/2013  21:16:00     -228.157      -48.869      -15.716       86.780       99.165       49.300     7530.805     9833.754     2430.490        3.724        0.990      233.332       28.485        0.015      347.130       25.873      856.932
07/06/2013  21:17:00     -300.108      -97.255      -14.462       93.325       58.524       59.274     8709.475     3425.059     3513.372        5.769        0.782      315.473       53.963        0.029      347.076       25.779      856.953
07/06/2013  21:18:00     -265.467        7.462      -20.831       77.170       90.428       48.388     5955.260     8177.266     2341.425        4.371        0.824      265.572       31.190        0.014      347.063       25.756      856.955
07/06/2013  21:19:00     -171.268       -1.336      -12.127       75.980       82.709       50.855     5772.960     6840.797     2586.188        2.234        0.760      171.273       48.316        0.080      347.048       25.734      856.969
07/06/2013  21:20:00     -346.749      -43.242      -25.264       93.569      116.706       52.299     8755.137    13620.175     2735.143        7.392        1.256      349.435       41.926        0.014      347.146       25.899      856.982
07/06/2013  21:21:00     -325.524     -107.417      -20.246      134.057       98.281       57.484    17971.162     9659.074     3304.403        7.442        1.547      342.789       61.788        0.032      347.073       25.775      856.986
07/06/2013  21:22:00     -297.176      -68.565      -16.837      103.464       77.262       42.200    10704.831     5969.390     1780.880        5.587        0.923      304.983       46.481        0.023      346.994       25.640      857.001
07/06/2013  21:23:00     -315.116      -41.860      -28.931      102.727       69.901       48.383    10552.817     4886.209     2340.909        5.983        0.889      317.884       45.540        0.021      347.036       25.712      856.993
07/06/2013  21:24:00     -378.980      -92.207      -26.095      125.084      107.366       54.499    15646.087    11527.414     2970.152        9.147        1.507      390.035       57.297        0.022      347.002       25.652      856.996
07/06/2013  21:25:00     -377.642      -88.099      -33.378      107.214      104.113       59.134    11494.922    10839.593     3496.789        8.866        1.292      387.782       52.515        0.018      347.003       25.653      857.004
07/06/2013  21:26:00     -425.781      -29.818      -43.659      122.361       99.060       57.952    14972.233     9812.792     3358.492       10.611        1.407      426.824       64.003        0.022      347.001       25.651      857.005
07/06/2013  21:27:00     -383.770     -117.631      -33.177      117.767       92.937       63.662    13869.091     8637.205     4052.788        9.438        1.328      401.394       52.007        0.017      346.987       25.628      857.016
07/06/2013  21:28:00     -336.016      -98.210      -12.607      137.274      118.625       58.803    18844.161    14071.803     3457.793        7.954        1.819      350.074       67.693        0.037      346.935       25.537      857.042
07/06/2013  21:29:00     -382.971     -132.334       -7.930      120.794      101.994       66.501    14591.247    10402.853     4422.353        9.682        1.471      405.190       70.212        0.030      346.918       25.507      857.054
07/06/2013  21:30:00     -431.484      -58.014      -41.734      131.022       98.355       65.809    17166.856     9673.718     4330.806       11.122        1.559      435.367       69.362        0.025      346.952       25.566      857.067
07/06/2013  21:31:00     -412.932      -55.481      -25.537      122.788       97.813       68.781    15076.802     9567.351     4730.810       10.180        1.469      416.643       67.843        0.027      346.974       25.604      857.069
07/06/2013  21:32:00     -380.403      -79.756      -31.351      111.374      103.110       52.108    12404.085    10631.694     2715.286        8.890        1.288      388.674       54.877        0.020      346.955       25.573      857.081
07/06/2013  21:33:00     -389.797     -123.380      -13.907      150.134      128.077       66.020    22540.264    16403.696     4358.598       10.532        2.165      408.858       72.563        0.031      346.975       25.606      857.082
07/06/2013  21:34:00     -425.386     -107.635      -34.246      134.188       85.288       61.638    18006.526     7274.109     3799.185       11.139        1.454      438.792       63.207        0.021      347.011       25.669      857.100
07/06/2013  21:35:00     -441.665     -130.152      -27.685      184.793      148.685       81.628    34148.439    22107.357     6663.145       13.783        3.146      460.443       91.352        0.039      346.987       25.626      857.102
07/06/2013  21:36:00     -422.888     -117.706      -22.892      115.308      110.085       56.932    13296.040    12118.800     3241.239       11.093        1.433      438.963       45.284        0.011      347.006       25.660      857.119
07/06/2013  21:37:00     -413.872      -79.190      -29.244      131.712       95.021       65.318    17348.009     9028.942     4266.455       10.452        1.532      421.380       67.387        0.026      346.917       25.505      857.153
07/06/2013  21:38:00     -427.894      -85.637      -20.721      113.032      146.612       62.810    12776.124    21495.094     3945.090       11.453        1.911      436.379       52.429        0.014      346.935       25.537      857.171
07/06/2013  21:39:00     -359.776     -107.145      -22.931      109.236       97.875       64.716    11932.495     9579.512     4188.193        8.357        1.285      375.392       51.738        0.019      346.930       25.528      857.175
07/06/2013  21:40:00     -376.346      -29.209      -24.016      183.181      122.311       66.382    33555.295    14959.989     4406.540        9.798        2.646      377.478       83.809        0.049      346.933       25.533      857.152
07/06/2013  21:41:00     -406.713     -112.230      -35.247      129.095      111.027       66.726    16665.472    12326.963     4452.341       10.634        1.672      421.913       26.204        0.004      346.887       25.453      857.149
07/06/2013  21:42:00     -421.231     -103.170      -29.416      160.900      123.421       67.512    25888.764    15232.770     4557.888       11.730        2.284      433.682       79.411        0.034      346.870       25.424      857.171
07/06/2013  21:43:00     -488.174     -138.553      -36.186      176.471      152.717       84.588    31142.075    23322.400     7155.164       16.021        3.081      507.455       88.620        0.030      346.933       25.533      857.188
07/06/2013  21:44:00     -438.020     -104.347      -40.671      165.169      147.758       80.278    27280.668    21832.539     6444.480       12.997        2.778      450.278       78.498        0.030      346.960       25.580      857.172
07/06/2013  21:45:00     -423.817     -151.546      -22.426       99.409      108.919       59.615     9882.211    11863.278     3553.932       11.419        1.265      450.097       44.327        0.010      346.898       25.474      857.179
07/06/2013  21:46:00     -338.118      -89.902      -14.791      167.248      135.569       67.358    27971.789    18379.052     4537.043        8.675        2.544      349.866       68.011        0.038      346.831       25.359      857.194
07/06/2013  21:47:00     -376.227     -122.499      -40.601      121.412      116.253       61.483    14740.864    13514.863     3780.213        9.511        1.602      395.667       49.679        0.016      346.845       25.381      857.207
07/06/2013  21:48:00     -360.812      -83.714      -32.093      125.546       99.735       68.054    15761.908     9947.008     4631.409        8.428        1.517      370.396       54.143        0.021      346.811       25.324      857.214
07/06/2013  21:49:00     -426.323     -104.237      -19.703      152.174      145.247       79.344    23156.836    21096.750     6295.419       12.177        2.527      438.881       73.245        0.028      346.816       25.332      857.229
07/06/2013  21:50:00     -406.890     -104.795      -24.655      104.299      112.730       62.173    10878.247    12708.128     3865.477       10.230        1.373      420.169       50.530        0.014      346.790       25.288      857.233
07/06/2013  21:51:00     -529.488     -101.577      -30.436      167.294      111.829       64.006    27987.278    12505.816     4096.775       16.809        2.229      539.143       68.507        0.016      346.785       25.280      857.243
07/06/2013  21:52:00     -449.014      -98.651      -18.868      143.734      128.399       65.648    20659.598    16486.228     4309.716       12.657        2.073      459.723       62.528        0.018      346.782       25.274      857.251
07/06/2013  21:53:00     -402.344      -58.136      -23.502      140.055      131.671       81.339    19615.416    17337.168     6616.078       10.468        2.178      406.522       77.448        0.036      346.779       25.268      857.259
07/06/2013  21:54:00     -317.828     -130.982      -19.724      116.579      113.988       62.437    13590.746    12993.289     3898.379        7.452        1.524      343.760       48.114        0.020      346.794       25.295      857.249
07/06/2013  21:55:00     -332.578     -132.600      -16.629      129.397       84.564       50.103    16743.548     7151.129     2510.306        7.743        1.320      358.038       34.568        0.009      346.777       25.266      857.229
07/06/2013  21:56:00     -368.090      -55.435      -23.319      169.804      132.824       65.642    28833.358    17642.212     4308.933        9.494        2.539      372.241       78.457        0.044      346.711       25.150      857.239
07/06/2013  21:57:00     -481.057      -85.084      -45.823      148.034      151.199       65.533    21913.997    22861.170     4294.510       14.490        2.453      488.523       57.644        0.014      346.756       25.229      857.205
07/06/2013  21:58:00     -555.394      -88.226      -62.558      135.015      122.161       70.414    18229.033    14923.377     4958.186       17.913        1.906      562.358       66.848        0.014      346.805       25.312      857.197
07/06/2013  21:59:00     -498.889      -68.296      -47.185      144.310      110.150       74.192    20825.385    12133.002     5504.410       14.711        1.923      503.542       78.702        0.024      346.788       25.283      857.199
07/06/2013  22:00:00     -547.544     -100.823      -59.237      165.844      119.804       67.882    27504.153    14353.041     4607.987       17.996        2.323      556.749       64.736        0.014      346.779       25.270      857.179
07/06/2013  22:01:00     -492.335     -101.885      -45.926      161.150      139.054       72.478    25969.386    19336.149     5253.046       15.271        2.528      502.766       79.106        0.025      346.762       25.239      857.170
07/06/2013  22:02:00     -507.515     -126.109      -35.952      155.656      110.856       78.880    24228.667    12288.986     6222.005       15.874        2.137      522.948       78.904        0.023      346.681       25.098      857.177
07/06/2013  22:03:00     -375.972      -93.805      -25.512      135.385      134.721       70.445    18329.066    18149.871     4962.489        9.612        2.072      387.498       63.032        0.026      346.629       25.012      857.193
07/06/2013  22:04:00     -406.741     -113.194      -14.664      127.070      101.242       64.747    16146.826    10249.889     4192.137       10.452        1.529      422.198       66.823        0.025      346.597       24.955      857.196
07/06/2013  22:05:00     -306.833      -93.128      -22.142      132.926      106.751       67.877    17669.397    11395.755     4607.286        6.848        1.684      320.655       58.110        0.033      346.533       24.847      857.192
07/06/2013  22:06:00     -361.408     -106.369      -32.828      128.522      114.427       83.092    16517.817    13093.608     6904.340        8.975        1.826      376.736       66.964        0.032      346.584       24.932      857.174
07/06/2013  22:07:00     -451.294      -92.343      -42.440      195.656      148.861       72.255    38281.412    22159.498     5220.771       13.982        3.283      460.645       74.454        0.026      346.621       24.995      857.207
07/06/2013  22:08:00     -523.952      -63.081      -48.563      168.134      157.425       76.269    28268.894    24782.714     5816.978       16.985        2.943      527.735       73.184        0.019      346.565       24.901      857.249
07/06/2013  22:09:00     -363.159      -75.264      -26.747      140.586      153.983       77.581    19764.325    23710.669     6018.850        9.387        2.475      370.876       65.640        0.031      346.532       24.844      857.263
07/06/2013  22:10:00     -358.015      -10.008      -34.050      177.753      124.626       71.079    31596.171    15531.613     5052.190        9.080        2.609      358.155       76.394        0.045      346.468       24.734      857.270
07/06/2013  22:11:00     -258.610      -88.885      -15.432      141.399      104.441       72.171    19993.808    10907.843     5208.712        5.556        1.806      273.459       74.543        0.074      346.449       24.700      857.240
07/06/2013  22:12:00     -244.758      -77.635       -8.492      154.063      117.122       63.408    23735.438    13717.480     4020.597        5.373        2.074      256.776       60.789        0.056      346.388       24.598      857.269
07/06/2013  22:13:00     -322.644      -69.654      -11.286      162.075      134.554       56.882    26268.452    18104.748     3235.570        7.833        2.380      330.077       62.257        0.036      346.409       24.632      857.288
07/06/2013  22:14:00     -289.483        8.018      -22.306      135.734       90.689       56.249    18423.695     8224.437     3163.951        5.708        1.491      289.594       48.095        0.028      346.443       24.690      857.301
07/06/2013  22:15:00     -191.416      -53.056       -4.448      104.231       84.089       56.649    10864.136     7070.919     3209.094        3.031        1.057      198.633       56.783        0.082      346.418       24.648      857.295
07/06/2013  22:16:00     -344.649      -47.624      -49.708      132.980       69.223       58.468    17683.692     4791.845     3418.492        7.470        1.295      347.923       46.586        0.018      346.450       24.702      857.288
07/06/2013  22:17:00     -388.290      -90.785      -27.986      139.445      111.525       61.479    19444.936    12437.787     3779.637        9.772        1.783      398.762       52.533        0.017      346.447       24.697      857.280
07/06/2013  22:18:00     -343.066      -66.676      -12.584      145.998      141.682       68.545    21315.410    20073.805     4698.423        8.418        2.304      349.485       78.935        0.051      346.459       24.719      857.276
07/06/2013  22:19:00     -280.657      -34.354      -32.059      100.458       78.587       59.385    10091.734     6175.866     3526.612        5.038        0.990      282.752       35.228        0.016      346.482       24.759      857.277
07/06/2013  22:20:00     -253.583      -96.556       -0.365      106.394       88.259       54.312    11319.585     7789.702     2949.784        4.784        1.103      271.344       40.298        0.022      346.446       24.694      857.264
07/06/2013  22:21:00     -294.538      -87.744      -15.042      130.315      101.969       62.302    16982.030    10397.675     3881.594        6.296        1.563      307.330       57.815        0.035      346.447       24.698      857.272
07/06/2013  22:22:00     -279.353      -36.631      -31.534       89.265      116.902       55.299     7968.247    13666.073     3057.980        5.253        1.235      281.744       28.639        0.010      346.442       24.688      857.270
07/06/2013  22:23:00     -333.016     -140.327      -16.974      149.715       89.456       68.963    22414.561     8002.353     4755.943        8.302        1.759      361.374       66.881        0.034      346.430       24.668      857.246
07/06/2013  22:24:00     -316.080     -113.243      -25.809      104.076      102.332       59.740    10831.798    10471.746     3568.858        6.913        1.244      335.754       52.660        0.025      346.400       24.616      857.245
07/06/2013  22:25:00     -401.859      -71.397      -27.723      128.844      141.138       51.083    16600.876    19919.832     2609.469       10.324        1.957      408.152       46.797        0.013      346.422       24.655      857.234
07/06/2013  22:26:00     -329.923      -77.389      -47.052      107.943      127.024       58.026    11651.666    16135.009     3367.059        7.410        1.558      338.878       18.888        0.003      346.456       24.713      857.219
07/06/2013  22:27:00     -368.302      -41.574      -33.358      123.004      116.250       59.122    15129.988    13513.977     3495.445        8.531        1.607      370.641       58.793        0.025      346.409       24.632      857.215
07/06/2013  22:28:00     -361.200     -149.656       -5.452      143.734      118.883       70.051    20659.575    14133.258     4907.211        9.629        1.985      390.977       71.594        0.034      346.464       24.727      857.197
07/06/2013  22:29:00     -351.271      -65.453       -6.985      147.723      119.241       72.749    21822.214    14218.354     5292.443        8.452        2.067      357.317       73.625        0.042      346.480       24.753      857.198
07/06/2013  22:30:00     -321.246      -68.644      -13.935      155.675      112.776       63.764    24234.790    12718.332     4065.857        7.455        2.051      328.498       66.487        0.041      346.539       24.857      857.183
07/06/2013  22:31:00     -315.900      -74.407      -14.677      124.752       84.680       58.670    15563.004     7170.731     3442.138        6.586        1.309      324.545       66.917        0.043      346.486       24.765      857.181
07/06/2013  22:32:00     -250.586      -67.937       11.284      185.895       97.871       70.414    34556.860     9578.765     4958.196        5.831        2.455      259.632       90.553        0.122      346.478       24.751      857.185
07/06/2013  22:33:00     -284.291      -94.746        9.811      186.813      129.393       71.470    34899.088    16742.643     5107.912        7.331        2.837      299.663       86.342        0.083      346.514       24.813      857.190
07/06/2013  22:34:00     -360.105      -99.041       -1.628      182.336      129.760       76.142    33246.345    16837.606     5797.536        9.767        2.794      373.476       80.818        0.047      346.586       24.937      857.175
07/06/2013  22:35:00     -323.063      -86.221       -5.993      171.153      116.778       59.562    29293.449    13637.172     3547.677        7.915        2.324      334.371       55.842        0.028      346.575       24.916      857.178
07/06/2013  22:36:00     -465.859      -96.396       -6.364      183.629      128.814       88.723    33719.642    16592.944     7871.797       14.226        2.909      475.728       93.522        0.039      346.598       24.957      857.172
07/06/2013  22:37:00     -367.287     -146.866      -15.027      162.980      138.418       69.185    26562.407    19159.645     4786.532       10.359        2.525      395.562       67.302        0.029      346.615       24.985      857.134
07/06/2013  22:38:00     -397.001     -192.571      -16.045      174.487      106.278       72.014    30445.869    11294.910     5186.080       12.093        2.346      441.241       76.902        0.030      346.653       25.053      857.151
07/06/2013  22:39:00     -233.484      -86.710       -8.463      144.328      130.904       65.534    20830.598    17135.897     4294.752        5.217        2.113      249.065       62.451        0.063      346.608       24.975      857.167
07/06/2013  22:40:00     -391.981      -44.236      -10.793      150.223      135.199       79.236    22567.098    18278.744     6278.334       10.141        2.356      394.469       71.204        0.033      346.629       25.011      857.168
07/06/2013  22:41:00     -303.091      -51.905       -1.591      160.300      126.740       66.152    25696.185    16063.106     4376.068        7.034        2.307      307.504       67.901        0.049      346.639       25.028      857.177
07/06/2013  22:42:00     -409.870      -42.274      -21.662      162.001      145.458       76.163    26244.294    21157.891     5800.852       11.172        2.660      412.044       75.077        0.033      346.680       25.096      857.169
07/06/2013  22:43:00     -384.138      -65.808      -29.990      172.127      121.227       65.693    29627.825    14696.044     4315.525       10.071        2.432      389.734       75.830        0.038      346.732       25.187      857.147
07/06/2013  22:44:00     -298.204      -66.091       -5.334      152.052      106.479       55.753    23119.837    11337.766     3108.441        6.544        1.878      305.440       62.616        0.042      346.661       25.065      857.154
07/06/2013  22:45:00     -366.123      -96.723       -9.483      155.024      118.295       71.770    24032.516    13993.652     5150.932        9.333        2.159      378.683       78.816        0.043      346.693       25.120      857.162
07/06/2013  22:46:00     -285.966      -38.368      -12.354      139.028       93.920       57.907    19328.907     8820.947     3353.237        5.745        1.575      288.528       62.511        0.047      346.711       25.151      857.201
07/06/2013  22:47:00     -159.406      -93.149       -3.907      135.755      108.269       61.813    18429.372    11722.182     3820.908        3.403        1.699      184.626       68.961        0.140      346.669       25.081      857.229
07/06/2013  22:48:00     -197.241      -78.085      -13.958       93.523       54.800       44.913     8746.643     3003.094     2017.203        2.948        0.688      212.135       39.919        0.035      346.676       25.094      857.250
07/06/2013  22:49:00     -141.736     -104.086       14.202      115.697       73.916       55.172    13385.812     5463.523     3043.928        2.650        1.095      175.849       64.639        0.135      346.651       25.049      857.269
07/06/2013  22:50:00     -156.403     -159.467        3.797      106.120      116.763       53.875    11261.352    13633.649     2902.534        3.885        1.390      223.364       47.539        0.045      346.672       25.084      857.304
07/06/2013  22:51:00     -186.001     -169.291       -3.930      117.713       80.901       56.521    13856.413     6544.902     3194.639        4.343        1.180      251.507       56.154        0.050      346.648       25.043      857.354
07/06/2013  22:52:00      -80.571     -117.727        0.721       70.392       78.472       41.540     4955.052     6157.860     1725.608        1.659        0.642      142.657       40.016        0.079      346.603       24.968      857.378
07/06/2013  22:53:00       -9.143     -111.779       -4.173       47.628       76.568       36.992     2268.425     5862.659     1368.397        1.105        0.475      112.153       26.805        0.057      346.466       24.733      857.381
07/06/2013  22:54:00       17.871     -121.624       -6.171       85.558       64.372       42.682     7320.163     4143.693     1821.770        1.422        0.664      122.930       37.223        0.092      346.380       24.586      857.396
07/06/2013  22:55:00      -19.473      -82.689        2.129       50.966       54.840       29.806     2597.570     3007.474      888.380        0.686        0.325       84.951       27.206        0.103      346.339       24.516      857.425
07/06/2013  22:56:00       39.215      -37.372       13.609       45.436       47.140       34.965     2064.461     2222.139     1222.551        0.431        0.275       54.171       34.433        0.404      346.299       24.449      857.435
07/06/2013  22:57:00        0.006       -7.877       26.186       37.211       38.412       22.044     1384.678     1475.513      485.930        0.205        0.167        7.877       17.799        5.106      346.266       24.389      857.440
07/06/2013  22:58:00      -40.972     -129.714        4.977       61.283       57.116       30.785     3755.663     3262.208      947.726        1.325        0.398      136.031       18.275        0.018      346.242       24.347      857.423
07/06/2013  22:59:00       39.709      -94.311      -16.129       74.775       58.132       31.249     5591.365     3379.321      976.477        1.034        0.497      102.330       30.965        0.092      346.262       24.384      857.395
07/06/2013  23:00:00      -19.165      -38.272       -2.254       31.833       31.811       19.846     1013.323     1011.959      393.860        0.213        0.121       42.803       12.759        0.089      346.258       24.375      857.387
07/06/2013  23:01:00      -78.831      -34.859       -0.724       41.498       35.129       24.245     1722.053     1234.081      587.805        0.549        0.177       86.194       16.992        0.039      346.209       24.292      857.433
07/06/2013  23:02:00      -27.871      -49.477       -0.488       39.139       40.924       21.765     1531.874     1674.809      473.694        0.345        0.184       56.787       22.931        0.163      346.173       24.230      857.466
07/06/2013  23:03:00      -38.859      -33.481        6.669       23.619       42.554       23.245      557.834     1810.854      540.342        0.279        0.145       51.293       26.865        0.274      346.196       24.268      857.465
07/06/2013  23:04:00      -43.698        7.447       14.342       31.162       13.207       17.259      971.091      174.438      297.874        0.181        0.072       44.328       15.837        0.128      346.204       24.284      857.467
07/06/2013  23:05:00       33.063       39.551       17.102       19.486       25.903       14.988      379.718      670.965      224.628        0.211        0.064       51.550       16.298        0.100      346.116       24.133      857.469
07/06/2013  23:06:00       19.248        7.951       32.044       20.652       40.082       15.762      426.508     1606.569      248.435        0.187        0.114       20.826       19.216        0.851      346.007       23.944      857.473
07/06/2013  23:07:00      -14.282      -44.553        6.517       47.694       46.526       20.358     2274.681     2164.647      414.436        0.354        0.243       46.786       11.921        0.065      346.156       24.200      857.513
07/06/2013  23:08:00        3.013     -140.460      -24.588       63.278       57.495       38.374     4004.094     3305.720     1472.588        1.456        0.439      140.492       24.902        0.031      346.200       24.275      857.528
07/06/2013  23:09:00      -78.454     -145.518       -9.147       58.636       55.485       30.751     3438.193     3078.591      945.648        1.744        0.373      165.320       20.742        0.016      346.283       24.418      857.537
07/06/2013  23:10:00      -44.640     -105.162       -0.990       55.621       48.049       40.517     3093.664     2308.696     1641.607        1.005        0.352      114.244       30.621        0.072      346.256       24.374      857.519
07/06/2013  23:11:00      -96.108     -103.757       -3.071       95.128       99.423       38.671     9049.315     9884.902     1495.448        2.022        1.021      141.429       44.621        0.100      346.313       24.472      857.510
07/06/2013  23:12:00     -186.747     -120.543      -10.535       66.778       63.281       35.780     4459.314     4004.442     1280.192        2.963        0.487      222.272       34.656        0.024      346.469       24.736      857.506
07/06/2013  23:13:00     -124.559      -70.622       12.971       83.880       60.791       48.742     7035.845     3695.488     2375.791        1.689        0.655      143.186       43.424        0.092      346.339       24.514      857.514
07/06/2013  23:14:00     -100.209      -90.009        0.369       50.789       52.720       32.474     2579.483     2779.405     1054.562        1.228        0.321      134.698       33.084        0.060      346.301       24.451      857.513
07/06/2013  23:15:00      -86.932      -33.463       -1.065       66.964       41.796       31.240     4484.182     1746.870      975.963        0.794        0.360       93.150       34.274        0.135      346.256       24.372      857.472
07/06/2013  23:16:00        4.036      -33.536        0.274       36.602       30.206       18.577     1339.689      912.391      345.110        0.187        0.130       33.778       17.060        0.255      346.221       24.312      857.450
07/06/2013  23:17:00      -64.844      -68.550       -1.862       35.140       72.067       21.785     1234.802     5193.599      474.604        0.790        0.345       94.361       22.801        0.058      346.240       24.344      857.474
07/06/2013  23:18:00      -58.019     -100.330        7.837       42.181       50.225       24.619     1779.226     2522.569      606.079        0.920        0.245      115.898       24.396        0.044      346.213       24.299      857.518
07/06/2013  23:19:00      -74.901      -97.720        8.130       63.147       49.625       31.878     3987.515     2462.651     1016.205        1.134        0.373      123.123       38.157        0.096      346.130       24.156      857.535
07/06/2013  23:20:00      -58.098     -104.557        0.089       43.218       57.905       26.281     1867.818     3352.948      690.693        1.011        0.296      119.614       27.045        0.051      346.102       24.106      857.536
07/06/2013  23:21:00     -115.036      -90.415       -5.051       51.668       55.494       26.441     2669.587     3079.624      699.136        1.394        0.322      146.315       25.867        0.031      346.028       23.981      857.523
07/06/2013  23:22:00     -118.750      -77.030       -9.586       61.817       36.052       23.996     3821.286     1299.736      575.787        1.291        0.285      141.546       16.254        0.013      345.980       23.900      857.512
07/06/2013  23:23:00      -44.631      -37.696        7.190       50.992       48.912       24.070     2600.171     2392.400      579.355        0.452        0.279       58.420       29.745        0.259      345.860       23.694      857.498
07/06/2013  23:24:00      -13.403      -74.336        3.216       59.616       57.251       17.389     3554.081     3277.712      302.392        0.642        0.357       75.534       14.310        0.036      345.900       23.760      857.492
07/06/2013  23:25:00      -58.594      -53.420        8.201       56.535       35.344       26.938     3196.232     1249.178      725.671        0.576        0.259       79.290       18.424        0.054      345.903       23.766      857.499
07/06/2013  23:26:00      -68.093      -45.526       -2.190       36.097       27.056       16.234     1302.976      732.008      263.534        0.451        0.115       81.911       11.397        0.019      345.914       23.787      857.523
07/06/2013  23:27:00     -113.801       18.580        0.063       42.961       32.130       22.627     1845.647     1032.369      511.962        0.834        0.169      115.307       21.694        0.035      345.797       23.585      857.556
07/06/2013  23:28:00      -62.327        3.337        0.911       40.650       29.248       20.331     1652.391      855.470      413.349        0.341        0.146       62.416       14.303        0.053      345.717       23.446      857.568
07/06/2013  23:29:00       -3.317      -41.288        0.839       41.886       24.238       14.208     1754.430      587.468      201.873        0.213        0.127       41.421       12.055        0.085      345.783       23.560      857.569
07/06/2013  23:30:00       17.819        0.156       13.541       22.627       20.255       13.685      511.959      410.247      187.282        0.080        0.055       17.819       11.425        0.411      345.678       23.380      857.573
07/06/2013  23:31:00       36.398       23.544       30.538       30.436       24.356       23.321      926.374      593.237      543.862        0.244        0.103       43.349       21.047        0.236      345.546       23.155      857.584
07/06/2013  23:32:00       33.724       40.030       43.847       42.982       21.460       17.354     1847.457      460.540      301.177        0.364        0.130       52.342       13.113        0.063      345.569       23.195      857.585
07/06/2013  23:33:00        6.994       34.894       55.242       36.072       39.486       27.452     1301.202     1559.121      753.604        0.397        0.181       35.588       24.489        0.473      345.552       23.162      857.583
07/06/2013  23:34:00       -3.841      -31.285       40.466       24.769       39.666       27.258      613.498     1573.405      742.973        0.278        0.146       31.520       13.797        0.192      345.618       23.277      857.589
07/06/2013  23:35:00      -22.353      -28.562       -0.817       17.862       25.608       18.572      319.037      655.778      344.921        0.132        0.066       36.269       11.341        0.098      345.657       23.341      857.607
07/06/2013  23:36:00      -57.028      -27.900       -5.347       30.767       49.878       22.436      946.632     2487.804      503.355        0.400        0.197       63.487        8.318        0.017      345.793       23.574      857.613
07/06/2013  23:37:00        3.632       30.860       42.565       31.686       27.627       22.630     1003.973      763.239      512.139        0.253        0.114       31.073       13.779        0.197      345.651       23.333      857.600
07/06/2013  23:38:00        3.323       71.685       93.949       37.474       41.476       29.948     1404.278     1720.248      896.867        0.900        0.201       71.762       25.599        0.127      345.708       23.432      857.605
07/06/2013  23:39:00       81.689     -116.585      -13.129       59.256       71.135       40.137     3511.296     5060.208     1611.018        1.531        0.509      142.356       44.632        0.098      345.669       23.364      857.622
07/06/2013  23:40:00       62.531     -108.273      -13.142       39.357       39.846       23.383     1548.953     1587.682      546.762        0.974        0.184      125.032       20.196        0.026      345.608       23.260      857.653
07/06/2013  23:41:00      108.154     -107.252      -11.636       37.501       34.398       19.944     1406.354     1183.230      397.765        1.316        0.149      152.316       13.125        0.007      345.628       23.294      857.655
07/06/2013  23:42:00       19.548       25.275       37.032       35.607       40.061       25.275     1267.847     1604.894      638.841        0.295        0.176       31.952       26.516        0.689      345.573       23.199      857.639
07/06/2013  23:43:00       21.295       46.830       55.874       35.208       36.114       23.750     1239.628     1304.244      564.063        0.444        0.155       51.444       18.802        0.134      345.609       23.262      857.618
07/06/2013  23:44:00       26.819       63.638       74.184       47.701       42.503       26.397     2275.386     1806.547      696.812        0.752        0.239       69.058       29.556        0.183      345.701       23.418      857.599
07/06/2013  23:45:00       30.497        1.393       39.586       34.064       40.237       35.656     1160.376     1619.030     1271.366        0.327        0.203       30.528       35.249        1.333      345.621       23.282      857.583
07/06/2013  23:46:00       16.002        7.638       62.594       32.449       46.504       28.949     1052.958     2162.647      838.037        0.414        0.203       17.731       24.487        1.907      345.656       23.343      857.587
07/06/2013  23:47:00        5.786       12.435       57.332       24.845       45.180       20.606      617.289     2041.202      424.615        0.328        0.154       13.715       24.565        3.208      345.698       23.411      857.591
07/06/2013  23:48:00        3.371      -72.425       -8.428       41.218       27.073       23.385     1698.909      732.924      546.873        0.415        0.149       72.504       15.929        0.048      345.750       23.504      857.614
07/06/2013  23:49:00      -42.923      -34.168       -3.375       26.812       24.212       18.449      718.867      586.240      340.370        0.233        0.082       54.862       11.231        0.042      345.521       23.109      857.648
07/06/2013  23:50:00      -49.314      -25.308       -2.587       43.024       22.840       12.319     1851.045      521.681      151.755        0.280        0.126       55.429       14.140        0.065      345.265       22.672      857.662
07/06/2013  23:51:00        0.974      -19.300        3.174       17.326       14.545       12.019      300.204      211.571      144.456        0.052        0.033       19.324        8.213        0.181      345.200       22.560      857.674
07/06/2013  23:52:00      -19.151        6.567        3.357       24.955       31.522       18.484      622.736      993.661      341.671        0.119        0.098       20.245       16.866        0.694      345.189       22.541      857.696
07/06/2013  23:53:00      -64.027       75.100      -13.822       19.465       44.254       16.178      378.880     1958.430      261.744        0.626        0.130       98.688       10.786        0.012      345.352       22.820      857.700
07/06/2013  23:54:00      -65.649       76.232       -5.711       23.442       25.368       15.730      549.537      643.548      247.420        0.580        0.072      100.604       15.030        0.022      345.412       22.922      857.693
07/06/2013  23:55:00       53.903      104.301       -5.505       49.306       41.482       24.750     2431.089     1720.727      612.584        0.929        0.238      117.406       26.043        0.049      345.468       23.020      857.676
07/06/2013  23:56:00      132.836       83.567       11.330       57.852       42.088       43.496     3346.835     1771.392     1891.923        1.588        0.351      156.935       24.137        0.024      345.553       23.166      857.619
07/06/2013  23:57:00       48.477       16.926       -1.102       69.707       53.465       29.762     4859.104     2858.553      885.756        0.562        0.430       51.347       32.955        0.412      345.463       23.011      857.615
07/06/2013  23:58:00     -125.889      -31.413      -14.272       51.826       39.786       21.992     2685.893     1582.890      483.633        1.089        0.238      129.749        7.548        0.003      345.299       22.730      857.657
07/06/2013  23:59:00      -94.235      -89.631       16.678       65.768       45.974       35.601     4325.415     2113.581     1267.459        1.245        0.385      130.053       38.123        0.086      345.335       22.791      857.685
